<?xml version="1.0" encoding="UTF-8" standalone="no" ?>
<gpx xmlns="http://www.topografix.com/GPX/1/1" creator="www.cicloide.com" version="1.1" xmlns:xsi="http://www.w3.org/2001/XMLSchema-instance" xsi:schemaLocation="http://www.topografix.com/GPX/1/1 http://www.topografix.com/GPX/1/1/gpx.xsd">
  <trk>
    <name>www.cicloide.com 12369</name>
    <desc>www.cicloide.com 12369</desc>
    <trkseg>
      <trkpt lat="41.605774500" lon="2.540344100">
        <ele>117.40</ele>
        <time>2013-02-24T08:04:44Z</time>
      </trkpt>
      <trkpt lat="41.605796500" lon="2.540326600">
        <ele>117.40</ele>
        <time>2013-02-24T08:04:58Z</time>
      </trkpt>
      <trkpt lat="41.605786400" lon="2.540365800">
        <ele>117.40</ele>
        <time>2013-02-24T08:05:10Z</time>
      </trkpt>
      <trkpt lat="41.605754200" lon="2.540374500">
        <ele>117.40</ele>
        <time>2013-02-24T08:05:31Z</time>
      </trkpt>
      <trkpt lat="41.605750100" lon="2.540337700">
        <ele>117.40</ele>
        <time>2013-02-24T08:05:57Z</time>
      </trkpt>
      <trkpt lat="41.605762100" lon="2.540310500">
        <ele>117.40</ele>
        <time>2013-02-24T08:06:13Z</time>
      </trkpt>
      <trkpt lat="41.605764700" lon="2.540291400">
        <ele>117.40</ele>
        <time>2013-02-24T08:06:32Z</time>
      </trkpt>
      <trkpt lat="41.605786800" lon="2.540301800">
        <ele>117.40</ele>
        <time>2013-02-24T08:07:00Z</time>
      </trkpt>
      <trkpt lat="41.605780200" lon="2.540323000">
        <ele>117.40</ele>
        <time>2013-02-24T08:07:21Z</time>
      </trkpt>
      <trkpt lat="41.605779700" lon="2.540291700">
        <ele>117.40</ele>
        <time>2013-02-24T08:07:43Z</time>
      </trkpt>
      <trkpt lat="41.605752800" lon="2.540290000">
        <ele>117.40</ele>
        <time>2013-02-24T08:08:06Z</time>
      </trkpt>
      <trkpt lat="41.605738000" lon="2.540314400">
        <ele>117.40</ele>
        <time>2013-02-24T08:08:25Z</time>
      </trkpt>
      <trkpt lat="41.605755200" lon="2.540354900">
        <ele>117.40</ele>
        <time>2013-02-24T08:08:43Z</time>
      </trkpt>
      <trkpt lat="41.605772100" lon="2.540329700">
        <ele>117.40</ele>
        <time>2013-02-24T08:09:00Z</time>
      </trkpt>
      <trkpt lat="41.605772500" lon="2.540353200">
        <ele>117.40</ele>
        <time>2013-02-24T08:09:26Z</time>
      </trkpt>
      <trkpt lat="41.605765300" lon="2.540366400">
        <ele>117.40</ele>
        <time>2013-02-24T08:09:40Z</time>
      </trkpt>
      <trkpt lat="41.605762400" lon="2.540371800">
        <ele>117.40</ele>
        <time>2013-02-24T08:09:47Z</time>
      </trkpt>
      <trkpt lat="41.605780500" lon="2.540392000">
        <ele>117.40</ele>
        <time>2013-02-24T08:09:58Z</time>
      </trkpt>
      <trkpt lat="41.605882800" lon="2.540423100">
        <ele>117.40</ele>
        <time>2013-02-24T08:10:03Z</time>
      </trkpt>
      <trkpt lat="41.605948200" lon="2.540398800">
        <ele>117.90</ele>
        <time>2013-02-24T08:10:06Z</time>
      </trkpt>
      <trkpt lat="41.606026800" lon="2.540401400">
        <ele>117.40</ele>
        <time>2013-02-24T08:10:08Z</time>
      </trkpt>
      <trkpt lat="41.606209200" lon="2.540418500">
        <ele>117.40</ele>
        <time>2013-02-24T08:10:13Z</time>
      </trkpt>
      <trkpt lat="41.606365600" lon="2.540518800">
        <ele>117.90</ele>
        <time>2013-02-24T08:10:22Z</time>
      </trkpt>
      <trkpt lat="41.606536300" lon="2.540597400">
        <ele>118.40</ele>
        <time>2013-02-24T08:10:31Z</time>
      </trkpt>
      <trkpt lat="41.606666600" lon="2.540667900">
        <ele>118.90</ele>
        <time>2013-02-24T08:10:38Z</time>
      </trkpt>
      <trkpt lat="41.606779800" lon="2.540722500">
        <ele>119.30</ele>
        <time>2013-02-24T08:10:43Z</time>
      </trkpt>
      <trkpt lat="41.606963900" lon="2.540816800">
        <ele>119.80</ele>
        <time>2013-02-24T08:10:53Z</time>
      </trkpt>
      <trkpt lat="41.607157100" lon="2.540867700">
        <ele>120.30</ele>
        <time>2013-02-24T08:11:02Z</time>
      </trkpt>
      <trkpt lat="41.607197400" lon="2.540877700">
        <ele>120.30</ele>
        <time>2013-02-24T08:11:04Z</time>
      </trkpt>
      <trkpt lat="41.607318300" lon="2.540865400">
        <ele>120.80</ele>
        <time>2013-02-24T08:11:09Z</time>
      </trkpt>
      <trkpt lat="41.607486300" lon="2.540867500">
        <ele>121.30</ele>
        <time>2013-02-24T08:11:18Z</time>
      </trkpt>
      <trkpt lat="41.607563200" lon="2.540839200">
        <ele>121.70</ele>
        <time>2013-02-24T08:11:21Z</time>
      </trkpt>
      <trkpt lat="41.607647500" lon="2.540816600">
        <ele>121.70</ele>
        <time>2013-02-24T08:11:25Z</time>
      </trkpt>
      <trkpt lat="41.607811700" lon="2.540785700">
        <ele>122.20</ele>
        <time>2013-02-24T08:11:33Z</time>
      </trkpt>
      <trkpt lat="41.607955700" lon="2.540758500">
        <ele>122.70</ele>
        <time>2013-02-24T08:11:39Z</time>
      </trkpt>
      <trkpt lat="41.608125700" lon="2.540727900">
        <ele>123.20</ele>
        <time>2013-02-24T08:11:46Z</time>
      </trkpt>
      <trkpt lat="41.608180800" lon="2.540717300">
        <ele>123.20</ele>
        <time>2013-02-24T08:11:47Z</time>
      </trkpt>
      <trkpt lat="41.608352200" lon="2.540715300">
        <ele>123.70</ele>
        <time>2013-02-24T08:11:54Z</time>
      </trkpt>
      <trkpt lat="41.608507600" lon="2.540709300">
        <ele>124.20</ele>
        <time>2013-02-24T08:11:58Z</time>
      </trkpt>
      <trkpt lat="41.608539700" lon="2.540706400">
        <ele>124.20</ele>
        <time>2013-02-24T08:12:00Z</time>
      </trkpt>
      <trkpt lat="41.608726400" lon="2.540709900">
        <ele>124.60</ele>
        <time>2013-02-24T08:12:06Z</time>
      </trkpt>
      <trkpt lat="41.608883600" lon="2.540745700">
        <ele>125.10</ele>
        <time>2013-02-24T08:12:13Z</time>
      </trkpt>
      <trkpt lat="41.608998600" lon="2.540693700">
        <ele>125.10</ele>
        <time>2013-02-24T08:12:19Z</time>
      </trkpt>
      <trkpt lat="41.609158100" lon="2.540648400">
        <ele>125.60</ele>
        <time>2013-02-24T08:12:27Z</time>
      </trkpt>
      <trkpt lat="41.609294400" lon="2.540656000">
        <ele>126.10</ele>
        <time>2013-02-24T08:12:34Z</time>
      </trkpt>
      <trkpt lat="41.609364700" lon="2.540616900">
        <ele>126.10</ele>
        <time>2013-02-24T08:12:36Z</time>
      </trkpt>
      <trkpt lat="41.609468500" lon="2.540546900">
        <ele>126.60</ele>
        <time>2013-02-24T08:12:43Z</time>
      </trkpt>
      <trkpt lat="41.609624400" lon="2.540500900">
        <ele>127.00</ele>
        <time>2013-02-24T08:12:50Z</time>
      </trkpt>
      <trkpt lat="41.609798600" lon="2.540440000">
        <ele>127.50</ele>
        <time>2013-02-24T08:12:59Z</time>
      </trkpt>
      <trkpt lat="41.609989400" lon="2.540380500">
        <ele>128.00</ele>
        <time>2013-02-24T08:13:06Z</time>
      </trkpt>
      <trkpt lat="41.610147000" lon="2.540365700">
        <ele>128.50</ele>
        <time>2013-02-24T08:13:13Z</time>
      </trkpt>
      <trkpt lat="41.610332800" lon="2.540310700">
        <ele>128.90</ele>
        <time>2013-02-24T08:13:21Z</time>
      </trkpt>
      <trkpt lat="41.610492600" lon="2.540254900">
        <ele>129.40</ele>
        <time>2013-02-24T08:13:28Z</time>
      </trkpt>
      <trkpt lat="41.610629200" lon="2.540197000">
        <ele>129.40</ele>
        <time>2013-02-24T08:13:34Z</time>
      </trkpt>
      <trkpt lat="41.610806400" lon="2.540126800">
        <ele>130.40</ele>
        <time>2013-02-24T08:13:41Z</time>
      </trkpt>
      <trkpt lat="41.611012000" lon="2.540007200">
        <ele>130.90</ele>
        <time>2013-02-24T08:13:49Z</time>
      </trkpt>
      <trkpt lat="41.611063700" lon="2.539993000">
        <ele>131.40</ele>
        <time>2013-02-24T08:13:51Z</time>
      </trkpt>
      <trkpt lat="41.611265800" lon="2.539899400">
        <ele>131.80</ele>
        <time>2013-02-24T08:13:58Z</time>
      </trkpt>
      <trkpt lat="41.611493200" lon="2.539769900">
        <ele>132.80</ele>
        <time>2013-02-24T08:14:07Z</time>
      </trkpt>
      <trkpt lat="41.611600700" lon="2.539704900">
        <ele>132.80</ele>
        <time>2013-02-24T08:14:14Z</time>
      </trkpt>
      <trkpt lat="41.611699600" lon="2.539586000">
        <ele>133.30</ele>
        <time>2013-02-24T08:14:19Z</time>
      </trkpt>
      <trkpt lat="41.611766900" lon="2.539494600">
        <ele>133.80</ele>
        <time>2013-02-24T08:14:24Z</time>
      </trkpt>
      <trkpt lat="41.611848300" lon="2.539377600">
        <ele>134.20</ele>
        <time>2013-02-24T08:14:29Z</time>
      </trkpt>
      <trkpt lat="41.611917300" lon="2.539308300">
        <ele>133.80</ele>
        <time>2013-02-24T08:14:33Z</time>
      </trkpt>
      <trkpt lat="41.612048700" lon="2.539166700">
        <ele>134.70</ele>
        <time>2013-02-24T08:14:41Z</time>
      </trkpt>
      <trkpt lat="41.612188200" lon="2.538916500">
        <ele>135.70</ele>
        <time>2013-02-24T08:14:50Z</time>
      </trkpt>
      <trkpt lat="41.612252700" lon="2.538779900">
        <ele>136.20</ele>
        <time>2013-02-24T08:14:55Z</time>
      </trkpt>
      <trkpt lat="41.612353700" lon="2.538578100">
        <ele>137.10</ele>
        <time>2013-02-24T08:15:04Z</time>
      </trkpt>
      <trkpt lat="41.612458100" lon="2.538449300">
        <ele>137.60</ele>
        <time>2013-02-24T08:15:09Z</time>
      </trkpt>
      <trkpt lat="41.612609300" lon="2.538245000">
        <ele>138.10</ele>
        <time>2013-02-24T08:15:18Z</time>
      </trkpt>
      <trkpt lat="41.612758100" lon="2.538080700">
        <ele>138.60</ele>
        <time>2013-02-24T08:15:27Z</time>
      </trkpt>
      <trkpt lat="41.612894600" lon="2.537917500">
        <ele>139.10</ele>
        <time>2013-02-24T08:15:34Z</time>
      </trkpt>
      <trkpt lat="41.613017900" lon="2.537758600">
        <ele>139.50</ele>
        <time>2013-02-24T08:15:41Z</time>
      </trkpt>
      <trkpt lat="41.613165500" lon="2.537574000">
        <ele>140.00</ele>
        <time>2013-02-24T08:15:48Z</time>
      </trkpt>
      <trkpt lat="41.613347300" lon="2.537361700">
        <ele>141.00</ele>
        <time>2013-02-24T08:15:58Z</time>
      </trkpt>
      <trkpt lat="41.613464100" lon="2.537210400">
        <ele>141.40</ele>
        <time>2013-02-24T08:16:05Z</time>
      </trkpt>
      <trkpt lat="41.613599600" lon="2.537026400">
        <ele>142.40</ele>
        <time>2013-02-24T08:16:14Z</time>
      </trkpt>
      <trkpt lat="41.613701600" lon="2.536852700">
        <ele>142.90</ele>
        <time>2013-02-24T08:16:21Z</time>
      </trkpt>
      <trkpt lat="41.613709100" lon="2.536813500">
        <ele>142.90</ele>
        <time>2013-02-24T08:16:21Z</time>
      </trkpt>
      <trkpt lat="41.613765100" lon="2.536683900">
        <ele>142.90</ele>
        <time>2013-02-24T08:16:26Z</time>
      </trkpt>
      <trkpt lat="41.613925700" lon="2.536285900">
        <ele>144.80</ele>
        <time>2013-02-24T08:16:38Z</time>
      </trkpt>
      <trkpt lat="41.614012300" lon="2.536055800">
        <ele>145.30</ele>
        <time>2013-02-24T08:16:47Z</time>
      </trkpt>
      <trkpt lat="41.614118800" lon="2.535741800">
        <ele>146.30</ele>
        <time>2013-02-24T08:16:57Z</time>
      </trkpt>
      <trkpt lat="41.614218600" lon="2.535468300">
        <ele>147.20</ele>
        <time>2013-02-24T08:17:08Z</time>
      </trkpt>
      <trkpt lat="41.614293600" lon="2.535197100">
        <ele>147.70</ele>
        <time>2013-02-24T08:17:17Z</time>
      </trkpt>
      <trkpt lat="41.614356900" lon="2.534956300">
        <ele>148.70</ele>
        <time>2013-02-24T08:17:25Z</time>
      </trkpt>
      <trkpt lat="41.614447600" lon="2.534692500">
        <ele>149.60</ele>
        <time>2013-02-24T08:17:34Z</time>
      </trkpt>
      <trkpt lat="41.614523800" lon="2.534482500">
        <ele>150.10</ele>
        <time>2013-02-24T08:17:41Z</time>
      </trkpt>
      <trkpt lat="41.614613400" lon="2.534224900">
        <ele>151.10</ele>
        <time>2013-02-24T08:17:50Z</time>
      </trkpt>
      <trkpt lat="41.614689600" lon="2.534003500">
        <ele>152.00</ele>
        <time>2013-02-24T08:17:58Z</time>
      </trkpt>
      <trkpt lat="41.614742800" lon="2.533835600">
        <ele>152.50</ele>
        <time>2013-02-24T08:18:04Z</time>
      </trkpt>
      <trkpt lat="41.614812300" lon="2.533592600">
        <ele>153.00</ele>
        <time>2013-02-24T08:18:12Z</time>
      </trkpt>
      <trkpt lat="41.614872800" lon="2.533359100">
        <ele>153.90</ele>
        <time>2013-02-24T08:18:19Z</time>
      </trkpt>
      <trkpt lat="41.614932200" lon="2.533153900">
        <ele>154.40</ele>
        <time>2013-02-24T08:18:26Z</time>
      </trkpt>
      <trkpt lat="41.615010100" lon="2.532884900">
        <ele>155.40</ele>
        <time>2013-02-24T08:18:35Z</time>
      </trkpt>
      <trkpt lat="41.615070900" lon="2.532653300">
        <ele>156.40</ele>
        <time>2013-02-24T08:18:44Z</time>
      </trkpt>
      <trkpt lat="41.615139600" lon="2.532426000">
        <ele>156.80</ele>
        <time>2013-02-24T08:18:52Z</time>
      </trkpt>
      <trkpt lat="41.615217400" lon="2.532030400">
        <ele>157.30</ele>
        <time>2013-02-24T08:19:03Z</time>
      </trkpt>
      <trkpt lat="41.615230400" lon="2.531730900">
        <ele>158.30</ele>
        <time>2013-02-24T08:19:13Z</time>
      </trkpt>
      <trkpt lat="41.615218900" lon="2.531535100">
        <ele>159.20</ele>
        <time>2013-02-24T08:19:18Z</time>
      </trkpt>
      <trkpt lat="41.615175900" lon="2.531432700">
        <ele>160.20</ele>
        <time>2013-02-24T08:19:22Z</time>
      </trkpt>
      <trkpt lat="41.615137500" lon="2.531188400">
        <ele>161.20</ele>
        <time>2013-02-24T08:19:31Z</time>
      </trkpt>
      <trkpt lat="41.615154600" lon="2.530977000">
        <ele>161.60</ele>
        <time>2013-02-24T08:19:38Z</time>
      </trkpt>
      <trkpt lat="41.615174900" lon="2.530635500">
        <ele>163.10</ele>
        <time>2013-02-24T08:19:48Z</time>
      </trkpt>
      <trkpt lat="41.615192700" lon="2.530326000">
        <ele>164.00</ele>
        <time>2013-02-24T08:19:57Z</time>
      </trkpt>
      <trkpt lat="41.615191900" lon="2.530054900">
        <ele>165.00</ele>
        <time>2013-02-24T08:20:06Z</time>
      </trkpt>
      <trkpt lat="41.615185200" lon="2.529787300">
        <ele>166.00</ele>
        <time>2013-02-24T08:20:14Z</time>
      </trkpt>
      <trkpt lat="41.615195100" lon="2.529563300">
        <ele>166.00</ele>
        <time>2013-02-24T08:20:21Z</time>
      </trkpt>
      <trkpt lat="41.615207700" lon="2.529248400">
        <ele>167.40</ele>
        <time>2013-02-24T08:20:30Z</time>
      </trkpt>
      <trkpt lat="41.615218100" lon="2.529062400">
        <ele>167.90</ele>
        <time>2013-02-24T08:20:35Z</time>
      </trkpt>
      <trkpt lat="41.615259800" lon="2.528775100">
        <ele>168.90</ele>
        <time>2013-02-24T08:20:44Z</time>
      </trkpt>
      <trkpt lat="41.615319400" lon="2.528504000">
        <ele>168.90</ele>
        <time>2013-02-24T08:20:53Z</time>
      </trkpt>
      <trkpt lat="41.615381900" lon="2.528167500">
        <ele>169.80</ele>
        <time>2013-02-24T08:21:03Z</time>
      </trkpt>
      <trkpt lat="41.615437600" lon="2.527886100">
        <ele>170.80</ele>
        <time>2013-02-24T08:21:12Z</time>
      </trkpt>
      <trkpt lat="41.615494500" lon="2.527564300">
        <ele>171.70</ele>
        <time>2013-02-24T08:21:22Z</time>
      </trkpt>
      <trkpt lat="41.615557600" lon="2.527295200">
        <ele>173.20</ele>
        <time>2013-02-24T08:21:31Z</time>
      </trkpt>
      <trkpt lat="41.615596300" lon="2.527033600">
        <ele>174.10</ele>
        <time>2013-02-24T08:21:38Z</time>
      </trkpt>
      <trkpt lat="41.615606800" lon="2.526732900">
        <ele>175.60</ele>
        <time>2013-02-24T08:21:48Z</time>
      </trkpt>
      <trkpt lat="41.615594700" lon="2.526539000">
        <ele>176.50</ele>
        <time>2013-02-24T08:21:54Z</time>
      </trkpt>
      <trkpt lat="41.615564400" lon="2.526293900">
        <ele>177.00</ele>
        <time>2013-02-24T08:22:00Z</time>
      </trkpt>
      <trkpt lat="41.615542300" lon="2.526073600">
        <ele>178.00</ele>
        <time>2013-02-24T08:22:07Z</time>
      </trkpt>
      <trkpt lat="41.615534700" lon="2.525768900">
        <ele>178.50</ele>
        <time>2013-02-24T08:22:16Z</time>
      </trkpt>
      <trkpt lat="41.615527800" lon="2.525434500">
        <ele>179.40</ele>
        <time>2013-02-24T08:22:27Z</time>
      </trkpt>
      <trkpt lat="41.615534600" lon="2.525104500">
        <ele>180.90</ele>
        <time>2013-02-24T08:22:37Z</time>
      </trkpt>
      <trkpt lat="41.615559200" lon="2.524862200">
        <ele>181.80</ele>
        <time>2013-02-24T08:22:44Z</time>
      </trkpt>
      <trkpt lat="41.615583100" lon="2.524579400">
        <ele>182.80</ele>
        <time>2013-02-24T08:22:53Z</time>
      </trkpt>
      <trkpt lat="41.615602400" lon="2.524288800">
        <ele>184.20</ele>
        <time>2013-02-24T08:23:03Z</time>
      </trkpt>
      <trkpt lat="41.615629500" lon="2.524043000">
        <ele>185.70</ele>
        <time>2013-02-24T08:23:10Z</time>
      </trkpt>
      <trkpt lat="41.615644700" lon="2.523803900">
        <ele>187.10</ele>
        <time>2013-02-24T08:23:19Z</time>
      </trkpt>
      <trkpt lat="41.615662000" lon="2.523573300">
        <ele>187.60</ele>
        <time>2013-02-24T08:23:26Z</time>
      </trkpt>
      <trkpt lat="41.615688100" lon="2.523311400">
        <ele>188.60</ele>
        <time>2013-02-24T08:23:33Z</time>
      </trkpt>
      <trkpt lat="41.615711800" lon="2.523059900">
        <ele>189.00</ele>
        <time>2013-02-24T08:23:42Z</time>
      </trkpt>
      <trkpt lat="41.615754500" lon="2.522810400">
        <ele>190.00</ele>
        <time>2013-02-24T08:23:48Z</time>
      </trkpt>
      <trkpt lat="41.615796500" lon="2.522519700">
        <ele>191.00</ele>
        <time>2013-02-24T08:23:57Z</time>
      </trkpt>
      <trkpt lat="41.615836400" lon="2.522228600">
        <ele>192.40</ele>
        <time>2013-02-24T08:24:06Z</time>
      </trkpt>
      <trkpt lat="41.615870100" lon="2.522022600">
        <ele>193.40</ele>
        <time>2013-02-24T08:24:13Z</time>
      </trkpt>
      <trkpt lat="41.615892800" lon="2.521851600">
        <ele>193.80</ele>
        <time>2013-02-24T08:24:20Z</time>
      </trkpt>
      <trkpt lat="41.615928400" lon="2.521590800">
        <ele>193.80</ele>
        <time>2013-02-24T08:24:27Z</time>
      </trkpt>
      <trkpt lat="41.615964500" lon="2.521342500">
        <ele>194.30</ele>
        <time>2013-02-24T08:24:34Z</time>
      </trkpt>
      <trkpt lat="41.615998400" lon="2.521097700">
        <ele>195.30</ele>
        <time>2013-02-24T08:24:42Z</time>
      </trkpt>
      <trkpt lat="41.616061100" lon="2.520806400">
        <ele>196.20</ele>
        <time>2013-02-24T08:24:51Z</time>
      </trkpt>
      <trkpt lat="41.616119200" lon="2.520615500">
        <ele>196.20</ele>
        <time>2013-02-24T08:24:58Z</time>
      </trkpt>
      <trkpt lat="41.616211000" lon="2.520344700">
        <ele>197.20</ele>
        <time>2013-02-24T08:25:07Z</time>
      </trkpt>
      <trkpt lat="41.616270800" lon="2.520147200">
        <ele>197.70</ele>
        <time>2013-02-24T08:25:14Z</time>
      </trkpt>
      <trkpt lat="41.616282700" lon="2.520099800">
        <ele>197.70</ele>
        <time>2013-02-24T08:25:17Z</time>
      </trkpt>
      <trkpt lat="41.616322100" lon="2.519993300">
        <ele>198.20</ele>
        <time>2013-02-24T08:25:24Z</time>
      </trkpt>
      <trkpt lat="41.616381100" lon="2.519819400">
        <ele>198.60</ele>
        <time>2013-02-24T08:25:31Z</time>
      </trkpt>
      <trkpt lat="41.616445500" lon="2.519622800">
        <ele>200.10</ele>
        <time>2013-02-24T08:25:40Z</time>
      </trkpt>
      <trkpt lat="41.616496500" lon="2.519410200">
        <ele>200.60</ele>
        <time>2013-02-24T08:25:47Z</time>
      </trkpt>
      <trkpt lat="41.616534500" lon="2.519153100">
        <ele>201.50</ele>
        <time>2013-02-24T08:25:54Z</time>
      </trkpt>
      <trkpt lat="41.616574000" lon="2.518912800">
        <ele>202.00</ele>
        <time>2013-02-24T08:26:03Z</time>
      </trkpt>
      <trkpt lat="41.616591100" lon="2.518670300">
        <ele>202.50</ele>
        <time>2013-02-24T08:26:10Z</time>
      </trkpt>
      <trkpt lat="41.616600500" lon="2.518510600">
        <ele>203.50</ele>
        <time>2013-02-24T08:26:15Z</time>
      </trkpt>
      <trkpt lat="41.616610300" lon="2.518312600">
        <ele>203.90</ele>
        <time>2013-02-24T08:26:22Z</time>
      </trkpt>
      <trkpt lat="41.616613700" lon="2.518040300">
        <ele>205.40</ele>
        <time>2013-02-24T08:26:29Z</time>
      </trkpt>
      <trkpt lat="41.616600700" lon="2.517908000">
        <ele>206.30</ele>
        <time>2013-02-24T08:26:34Z</time>
      </trkpt>
      <trkpt lat="41.616520100" lon="2.517666000">
        <ele>207.80</ele>
        <time>2013-02-24T08:26:41Z</time>
      </trkpt>
      <trkpt lat="41.616451200" lon="2.517518400">
        <ele>207.80</ele>
        <time>2013-02-24T08:26:46Z</time>
      </trkpt>
      <trkpt lat="41.616443700" lon="2.517220200">
        <ele>208.30</ele>
        <time>2013-02-24T08:26:55Z</time>
      </trkpt>
      <trkpt lat="41.616438300" lon="2.517011900">
        <ele>208.30</ele>
        <time>2013-02-24T08:27:02Z</time>
      </trkpt>
      <trkpt lat="41.616551300" lon="2.516698300">
        <ele>208.70</ele>
        <time>2013-02-24T08:27:12Z</time>
      </trkpt>
      <trkpt lat="41.616504000" lon="2.516477600">
        <ele>209.20</ele>
        <time>2013-02-24T08:27:17Z</time>
      </trkpt>
      <trkpt lat="41.616424900" lon="2.516179600">
        <ele>209.70</ele>
        <time>2013-02-24T08:27:26Z</time>
      </trkpt>
      <trkpt lat="41.616367000" lon="2.515931800">
        <ele>210.20</ele>
        <time>2013-02-24T08:27:35Z</time>
      </trkpt>
      <trkpt lat="41.616390600" lon="2.515663500">
        <ele>210.70</ele>
        <time>2013-02-24T08:27:42Z</time>
      </trkpt>
      <trkpt lat="41.616428500" lon="2.515460700">
        <ele>211.60</ele>
        <time>2013-02-24T08:27:49Z</time>
      </trkpt>
      <trkpt lat="41.616496200" lon="2.515231700">
        <ele>212.10</ele>
        <time>2013-02-24T08:27:58Z</time>
      </trkpt>
      <trkpt lat="41.616518700" lon="2.515130400">
        <ele>212.60</ele>
        <time>2013-02-24T08:28:01Z</time>
      </trkpt>
      <trkpt lat="41.616598100" lon="2.514977900">
        <ele>214.00</ele>
        <time>2013-02-24T08:28:08Z</time>
      </trkpt>
      <trkpt lat="41.616623200" lon="2.514932200">
        <ele>214.00</ele>
        <time>2013-02-24T08:28:10Z</time>
      </trkpt>
      <trkpt lat="41.616661600" lon="2.514749600">
        <ele>215.00</ele>
        <time>2013-02-24T08:28:15Z</time>
      </trkpt>
      <trkpt lat="41.616729800" lon="2.514678500">
        <ele>215.50</ele>
        <time>2013-02-24T08:28:20Z</time>
      </trkpt>
      <trkpt lat="41.616846700" lon="2.514661000">
        <ele>215.90</ele>
        <time>2013-02-24T08:28:25Z</time>
      </trkpt>
      <trkpt lat="41.616892400" lon="2.514507900">
        <ele>215.50</ele>
        <time>2013-02-24T08:28:31Z</time>
      </trkpt>
      <trkpt lat="41.616899300" lon="2.514289500">
        <ele>216.90</ele>
        <time>2013-02-24T08:28:39Z</time>
      </trkpt>
      <trkpt lat="41.616910000" lon="2.514072200">
        <ele>217.40</ele>
        <time>2013-02-24T08:28:48Z</time>
      </trkpt>
      <trkpt lat="41.616907000" lon="2.513854800">
        <ele>217.90</ele>
        <time>2013-02-24T08:28:55Z</time>
      </trkpt>
      <trkpt lat="41.616911700" lon="2.513585500">
        <ele>218.80</ele>
        <time>2013-02-24T08:29:04Z</time>
      </trkpt>
      <trkpt lat="41.616904000" lon="2.513333800">
        <ele>219.80</ele>
        <time>2013-02-24T08:29:12Z</time>
      </trkpt>
      <trkpt lat="41.616901300" lon="2.513063000">
        <ele>220.80</ele>
        <time>2013-02-24T08:29:21Z</time>
      </trkpt>
      <trkpt lat="41.616887600" lon="2.512851800">
        <ele>221.20</ele>
        <time>2013-02-24T08:29:28Z</time>
      </trkpt>
      <trkpt lat="41.616870600" lon="2.512718800">
        <ele>221.20</ele>
        <time>2013-02-24T08:29:33Z</time>
      </trkpt>
      <trkpt lat="41.616837700" lon="2.512583200">
        <ele>221.70</ele>
        <time>2013-02-24T08:29:37Z</time>
      </trkpt>
      <trkpt lat="41.616807600" lon="2.512466700">
        <ele>222.20</ele>
        <time>2013-02-24T08:29:42Z</time>
      </trkpt>
      <trkpt lat="41.616722600" lon="2.512235300">
        <ele>222.70</ele>
        <time>2013-02-24T08:29:51Z</time>
      </trkpt>
      <trkpt lat="41.616627700" lon="2.512081300">
        <ele>223.20</ele>
        <time>2013-02-24T08:29:58Z</time>
      </trkpt>
      <trkpt lat="41.616576700" lon="2.511972400">
        <ele>224.10</ele>
        <time>2013-02-24T08:30:03Z</time>
      </trkpt>
      <trkpt lat="41.616458300" lon="2.511740900">
        <ele>224.60</ele>
        <time>2013-02-24T08:30:12Z</time>
      </trkpt>
      <trkpt lat="41.616354400" lon="2.511545900">
        <ele>225.60</ele>
        <time>2013-02-24T08:30:19Z</time>
      </trkpt>
      <trkpt lat="41.616259200" lon="2.511372700">
        <ele>225.60</ele>
        <time>2013-02-24T08:30:24Z</time>
      </trkpt>
      <trkpt lat="41.616158100" lon="2.511118800">
        <ele>224.60</ele>
        <time>2013-02-24T08:30:33Z</time>
      </trkpt>
      <trkpt lat="41.616071200" lon="2.510891700">
        <ele>226.50</ele>
        <time>2013-02-24T08:30:41Z</time>
      </trkpt>
      <trkpt lat="41.616055100" lon="2.510846800">
        <ele>227.00</ele>
        <time>2013-02-24T08:30:43Z</time>
      </trkpt>
      <trkpt lat="41.616000400" lon="2.510677300">
        <ele>227.00</ele>
        <time>2013-02-24T08:30:50Z</time>
      </trkpt>
      <trkpt lat="41.615921300" lon="2.510472600">
        <ele>228.00</ele>
        <time>2013-02-24T08:30:59Z</time>
      </trkpt>
      <trkpt lat="41.615829200" lon="2.510254000">
        <ele>228.40</ele>
        <time>2013-02-24T08:31:06Z</time>
      </trkpt>
      <trkpt lat="41.615803100" lon="2.510167600">
        <ele>228.90</ele>
        <time>2013-02-24T08:31:09Z</time>
      </trkpt>
      <trkpt lat="41.615784000" lon="2.510027300">
        <ele>229.40</ele>
        <time>2013-02-24T08:31:14Z</time>
      </trkpt>
      <trkpt lat="41.615694400" lon="2.509766600">
        <ele>229.90</ele>
        <time>2013-02-24T08:31:23Z</time>
      </trkpt>
      <trkpt lat="41.615563500" lon="2.509565200">
        <ele>230.90</ele>
        <time>2013-02-24T08:31:30Z</time>
      </trkpt>
      <trkpt lat="41.615542700" lon="2.509450800">
        <ele>230.90</ele>
        <time>2013-02-24T08:31:35Z</time>
      </trkpt>
      <trkpt lat="41.615529200" lon="2.509331900">
        <ele>231.30</ele>
        <time>2013-02-24T08:31:39Z</time>
      </trkpt>
      <trkpt lat="41.615548200" lon="2.509111800">
        <ele>232.30</ele>
        <time>2013-02-24T08:31:46Z</time>
      </trkpt>
      <trkpt lat="41.615566000" lon="2.508883000">
        <ele>232.80</ele>
        <time>2013-02-24T08:31:54Z</time>
      </trkpt>
      <trkpt lat="41.615528900" lon="2.508684800">
        <ele>233.30</ele>
        <time>2013-02-24T08:32:00Z</time>
      </trkpt>
      <trkpt lat="41.615489800" lon="2.508426800">
        <ele>233.70</ele>
        <time>2013-02-24T08:32:08Z</time>
      </trkpt>
      <trkpt lat="41.615489300" lon="2.508393500">
        <ele>233.70</ele>
        <time>2013-02-24T08:32:10Z</time>
      </trkpt>
      <trkpt lat="41.615522400" lon="2.508174200">
        <ele>234.70</ele>
        <time>2013-02-24T08:32:17Z</time>
      </trkpt>
      <trkpt lat="41.615510000" lon="2.507974800">
        <ele>235.70</ele>
        <time>2013-02-24T08:32:24Z</time>
      </trkpt>
      <trkpt lat="41.615463700" lon="2.507927300">
        <ele>237.10</ele>
        <time>2013-02-24T08:32:29Z</time>
      </trkpt>
      <trkpt lat="41.615338300" lon="2.507814400">
        <ele>240.50</ele>
        <time>2013-02-24T08:32:38Z</time>
      </trkpt>
      <trkpt lat="41.615269000" lon="2.507671600">
        <ele>241.90</ele>
        <time>2013-02-24T08:32:45Z</time>
      </trkpt>
      <trkpt lat="41.615241500" lon="2.507569300">
        <ele>241.90</ele>
        <time>2013-02-24T08:32:48Z</time>
      </trkpt>
      <trkpt lat="41.615150700" lon="2.507447900">
        <ele>241.90</ele>
        <time>2013-02-24T08:32:55Z</time>
      </trkpt>
      <trkpt lat="41.615050600" lon="2.507482200">
        <ele>241.90</ele>
        <time>2013-02-24T08:33:01Z</time>
      </trkpt>
      <trkpt lat="41.615025700" lon="2.507515700">
        <ele>241.90</ele>
        <time>2013-02-24T08:33:02Z</time>
      </trkpt>
      <trkpt lat="41.614977300" lon="2.507627400">
        <ele>242.40</ele>
        <time>2013-02-24T08:33:09Z</time>
      </trkpt>
      <trkpt lat="41.614953000" lon="2.507756600">
        <ele>244.80</ele>
        <time>2013-02-24T08:33:16Z</time>
      </trkpt>
      <trkpt lat="41.614963900" lon="2.507863600">
        <ele>246.70</ele>
        <time>2013-02-24T08:33:23Z</time>
      </trkpt>
      <trkpt lat="41.615015900" lon="2.507985100">
        <ele>249.10</ele>
        <time>2013-02-24T08:33:30Z</time>
      </trkpt>
      <trkpt lat="41.615057300" lon="2.508115200">
        <ele>250.60</ele>
        <time>2013-02-24T08:33:37Z</time>
      </trkpt>
      <trkpt lat="41.615113700" lon="2.508208700">
        <ele>252.50</ele>
        <time>2013-02-24T08:33:44Z</time>
      </trkpt>
      <trkpt lat="41.615119200" lon="2.508239400">
        <ele>252.50</ele>
        <time>2013-02-24T08:33:46Z</time>
      </trkpt>
      <trkpt lat="41.615081600" lon="2.508361800">
        <ele>254.40</ele>
        <time>2013-02-24T08:33:51Z</time>
      </trkpt>
      <trkpt lat="41.614993600" lon="2.508364800">
        <ele>256.80</ele>
        <time>2013-02-24T08:34:00Z</time>
      </trkpt>
      <trkpt lat="41.614941600" lon="2.508266300">
        <ele>258.70</ele>
        <time>2013-02-24T08:34:09Z</time>
      </trkpt>
      <trkpt lat="41.614899900" lon="2.508203100">
        <ele>260.20</ele>
        <time>2013-02-24T08:34:14Z</time>
      </trkpt>
      <trkpt lat="41.614854600" lon="2.508127900">
        <ele>261.60</ele>
        <time>2013-02-24T08:34:21Z</time>
      </trkpt>
      <trkpt lat="41.614775600" lon="2.508035300">
        <ele>263.50</ele>
        <time>2013-02-24T08:34:31Z</time>
      </trkpt>
      <trkpt lat="41.614690000" lon="2.507931700">
        <ele>265.90</ele>
        <time>2013-02-24T08:34:40Z</time>
      </trkpt>
      <trkpt lat="41.614608000" lon="2.507855000">
        <ele>267.40</ele>
        <time>2013-02-24T08:34:47Z</time>
      </trkpt>
      <trkpt lat="41.614582100" lon="2.507824000">
        <ele>267.90</ele>
        <time>2013-02-24T08:34:49Z</time>
      </trkpt>
      <trkpt lat="41.614438500" lon="2.507711200">
        <ele>269.80</ele>
        <time>2013-02-24T08:35:01Z</time>
      </trkpt>
      <trkpt lat="41.614341400" lon="2.507635700">
        <ele>271.20</ele>
        <time>2013-02-24T08:35:10Z</time>
      </trkpt>
      <trkpt lat="41.614258300" lon="2.507575200">
        <ele>273.10</ele>
        <time>2013-02-24T08:35:18Z</time>
      </trkpt>
      <trkpt lat="41.614154900" lon="2.507515300">
        <ele>275.60</ele>
        <time>2013-02-24T08:35:25Z</time>
      </trkpt>
      <trkpt lat="41.614094000" lon="2.507558100">
        <ele>277.00</ele>
        <time>2013-02-24T08:35:32Z</time>
      </trkpt>
      <trkpt lat="41.614101800" lon="2.507591400">
        <ele>277.50</ele>
        <time>2013-02-24T08:35:36Z</time>
      </trkpt>
      <trkpt lat="41.614140400" lon="2.507646800">
        <ele>278.00</ele>
        <time>2013-02-24T08:35:41Z</time>
      </trkpt>
      <trkpt lat="41.614229400" lon="2.507742400">
        <ele>279.40</ele>
        <time>2013-02-24T08:35:48Z</time>
      </trkpt>
      <trkpt lat="41.614277700" lon="2.507822500">
        <ele>280.80</ele>
        <time>2013-02-24T08:35:55Z</time>
      </trkpt>
      <trkpt lat="41.614345600" lon="2.507934700">
        <ele>281.80</ele>
        <time>2013-02-24T08:36:04Z</time>
      </trkpt>
      <trkpt lat="41.614405000" lon="2.508034300">
        <ele>283.20</ele>
        <time>2013-02-24T08:36:12Z</time>
      </trkpt>
      <trkpt lat="41.614421000" lon="2.508159800">
        <ele>284.70</ele>
        <time>2013-02-24T08:36:19Z</time>
      </trkpt>
      <trkpt lat="41.614416500" lon="2.508180800">
        <ele>285.20</ele>
        <time>2013-02-24T08:36:21Z</time>
      </trkpt>
      <trkpt lat="41.614362700" lon="2.508237100">
        <ele>286.10</ele>
        <time>2013-02-24T08:36:26Z</time>
      </trkpt>
      <trkpt lat="41.614338500" lon="2.508238700">
        <ele>287.10</ele>
        <time>2013-02-24T08:36:28Z</time>
      </trkpt>
      <trkpt lat="41.614308200" lon="2.508197600">
        <ele>287.10</ele>
        <time>2013-02-24T08:36:31Z</time>
      </trkpt>
      <trkpt lat="41.614280200" lon="2.508111700">
        <ele>288.00</ele>
        <time>2013-02-24T08:36:37Z</time>
      </trkpt>
      <trkpt lat="41.614242000" lon="2.508046500">
        <ele>289.50</ele>
        <time>2013-02-24T08:36:44Z</time>
      </trkpt>
      <trkpt lat="41.614131200" lon="2.507964600">
        <ele>290.90</ele>
        <time>2013-02-24T08:36:52Z</time>
      </trkpt>
      <trkpt lat="41.614105900" lon="2.507931900">
        <ele>290.90</ele>
        <time>2013-02-24T08:36:56Z</time>
      </trkpt>
      <trkpt lat="41.614002500" lon="2.507861500">
        <ele>292.40</ele>
        <time>2013-02-24T08:37:05Z</time>
      </trkpt>
      <trkpt lat="41.613905400" lon="2.507774000">
        <ele>293.80</ele>
        <time>2013-02-24T08:37:13Z</time>
      </trkpt>
      <trkpt lat="41.613833400" lon="2.507672900">
        <ele>295.70</ele>
        <time>2013-02-24T08:37:22Z</time>
      </trkpt>
      <trkpt lat="41.613788400" lon="2.507664600">
        <ele>296.20</ele>
        <time>2013-02-24T08:37:27Z</time>
      </trkpt>
      <trkpt lat="41.613763100" lon="2.507709300">
        <ele>297.20</ele>
        <time>2013-02-24T08:37:31Z</time>
      </trkpt>
      <trkpt lat="41.613803700" lon="2.507781900">
        <ele>298.10</ele>
        <time>2013-02-24T08:37:38Z</time>
      </trkpt>
      <trkpt lat="41.613851800" lon="2.507839600">
        <ele>299.10</ele>
        <time>2013-02-24T08:37:45Z</time>
      </trkpt>
      <trkpt lat="41.613912900" lon="2.507915800">
        <ele>301.00</ele>
        <time>2013-02-24T08:37:52Z</time>
      </trkpt>
      <trkpt lat="41.613918200" lon="2.507927300">
        <ele>301.00</ele>
        <time>2013-02-24T08:37:53Z</time>
      </trkpt>
      <trkpt lat="41.613955500" lon="2.508058300">
        <ele>303.40</ele>
        <time>2013-02-24T08:38:02Z</time>
      </trkpt>
      <trkpt lat="41.613956900" lon="2.508071300">
        <ele>303.40</ele>
        <time>2013-02-24T08:38:04Z</time>
      </trkpt>
      <trkpt lat="41.613951900" lon="2.508176600">
        <ele>303.90</ele>
        <time>2013-02-24T08:38:09Z</time>
      </trkpt>
      <trkpt lat="41.613877300" lon="2.508298900">
        <ele>304.40</ele>
        <time>2013-02-24T08:38:18Z</time>
      </trkpt>
      <trkpt lat="41.613767400" lon="2.508441000">
        <ele>304.90</ele>
        <time>2013-02-24T08:38:28Z</time>
      </trkpt>
      <trkpt lat="41.613670200" lon="2.508582200">
        <ele>306.30</ele>
        <time>2013-02-24T08:38:37Z</time>
      </trkpt>
      <trkpt lat="41.613568900" lon="2.508633100">
        <ele>306.80</ele>
        <time>2013-02-24T08:38:46Z</time>
      </trkpt>
      <trkpt lat="41.613445800" lon="2.508736100">
        <ele>307.80</ele>
        <time>2013-02-24T08:38:56Z</time>
      </trkpt>
      <trkpt lat="41.613339700" lon="2.508868000">
        <ele>308.20</ele>
        <time>2013-02-24T08:39:05Z</time>
      </trkpt>
      <trkpt lat="41.613322000" lon="2.508876800">
        <ele>308.70</ele>
        <time>2013-02-24T08:39:06Z</time>
      </trkpt>
      <trkpt lat="41.613262300" lon="2.508934200">
        <ele>308.70</ele>
        <time>2013-02-24T08:39:10Z</time>
      </trkpt>
      <trkpt lat="41.613235900" lon="2.508949700">
        <ele>308.70</ele>
        <time>2013-02-24T08:39:12Z</time>
      </trkpt>
      <trkpt lat="41.613195900" lon="2.509113200">
        <ele>308.20</ele>
        <time>2013-02-24T08:39:19Z</time>
      </trkpt>
      <trkpt lat="41.613263800" lon="2.509354000">
        <ele>308.20</ele>
        <time>2013-02-24T08:39:29Z</time>
      </trkpt>
      <trkpt lat="41.613278300" lon="2.509454900">
        <ele>309.20</ele>
        <time>2013-02-24T08:39:34Z</time>
      </trkpt>
      <trkpt lat="41.613336700" lon="2.509626800">
        <ele>309.20</ele>
        <time>2013-02-24T08:39:41Z</time>
      </trkpt>
      <trkpt lat="41.613488500" lon="2.509673200">
        <ele>309.20</ele>
        <time>2013-02-24T08:39:50Z</time>
      </trkpt>
      <trkpt lat="41.613643600" lon="2.509663400">
        <ele>308.70</ele>
        <time>2013-02-24T08:39:59Z</time>
      </trkpt>
      <trkpt lat="41.613774200" lon="2.509632600">
        <ele>310.20</ele>
        <time>2013-02-24T08:40:07Z</time>
      </trkpt>
      <trkpt lat="41.613855700" lon="2.509657400">
        <ele>311.60</ele>
        <time>2013-02-24T08:40:13Z</time>
      </trkpt>
      <trkpt lat="41.613872500" lon="2.509734900">
        <ele>312.10</ele>
        <time>2013-02-24T08:40:18Z</time>
      </trkpt>
      <trkpt lat="41.613809300" lon="2.509804100">
        <ele>313.00</ele>
        <time>2013-02-24T08:40:25Z</time>
      </trkpt>
      <trkpt lat="41.613687600" lon="2.509859100">
        <ele>315.50</ele>
        <time>2013-02-24T08:40:34Z</time>
      </trkpt>
      <trkpt lat="41.613593900" lon="2.509932700">
        <ele>317.40</ele>
        <time>2013-02-24T08:40:42Z</time>
      </trkpt>
      <trkpt lat="41.613480100" lon="2.510001900">
        <ele>319.30</ele>
        <time>2013-02-24T08:40:51Z</time>
      </trkpt>
      <trkpt lat="41.613369600" lon="2.510066000">
        <ele>320.30</ele>
        <time>2013-02-24T08:40:58Z</time>
      </trkpt>
      <trkpt lat="41.613276600" lon="2.510116600">
        <ele>321.70</ele>
        <time>2013-02-24T08:41:05Z</time>
      </trkpt>
      <trkpt lat="41.613160000" lon="2.510196500">
        <ele>323.60</ele>
        <time>2013-02-24T08:41:15Z</time>
      </trkpt>
      <trkpt lat="41.613116500" lon="2.510200700">
        <ele>324.10</ele>
        <time>2013-02-24T08:41:19Z</time>
      </trkpt>
      <trkpt lat="41.613013300" lon="2.510081600">
        <ele>326.50</ele>
        <time>2013-02-24T08:41:29Z</time>
      </trkpt>
      <trkpt lat="41.612943400" lon="2.509914000">
        <ele>328.40</ele>
        <time>2013-02-24T08:41:38Z</time>
      </trkpt>
      <trkpt lat="41.612894800" lon="2.509786800">
        <ele>329.90</ele>
        <time>2013-02-24T08:41:45Z</time>
      </trkpt>
      <trkpt lat="41.612841000" lon="2.509694900">
        <ele>331.30</ele>
        <time>2013-02-24T08:41:52Z</time>
      </trkpt>
      <trkpt lat="41.612803700" lon="2.509630500">
        <ele>331.80</ele>
        <time>2013-02-24T08:41:57Z</time>
      </trkpt>
      <trkpt lat="41.612740200" lon="2.509467700">
        <ele>334.70</ele>
        <time>2013-02-24T08:42:09Z</time>
      </trkpt>
      <trkpt lat="41.612694000" lon="2.509363000">
        <ele>336.10</ele>
        <time>2013-02-24T08:42:16Z</time>
      </trkpt>
      <trkpt lat="41.612618200" lon="2.509392900">
        <ele>338.50</ele>
        <time>2013-02-24T08:42:23Z</time>
      </trkpt>
      <trkpt lat="41.612605500" lon="2.509480500">
        <ele>339.50</ele>
        <time>2013-02-24T08:42:30Z</time>
      </trkpt>
      <trkpt lat="41.612607000" lon="2.509565300">
        <ele>340.90</ele>
        <time>2013-02-24T08:42:37Z</time>
      </trkpt>
      <trkpt lat="41.612614900" lon="2.509693700">
        <ele>342.90</ele>
        <time>2013-02-24T08:42:44Z</time>
      </trkpt>
      <trkpt lat="41.612626700" lon="2.509798600">
        <ele>343.30</ele>
        <time>2013-02-24T08:42:51Z</time>
      </trkpt>
      <trkpt lat="41.612626600" lon="2.509956600">
        <ele>344.80</ele>
        <time>2013-02-24T08:43:00Z</time>
      </trkpt>
      <trkpt lat="41.612627500" lon="2.510099300">
        <ele>345.70</ele>
        <time>2013-02-24T08:43:07Z</time>
      </trkpt>
      <trkpt lat="41.612671500" lon="2.510280500">
        <ele>347.60</ele>
        <time>2013-02-24T08:43:19Z</time>
      </trkpt>
      <trkpt lat="41.612719100" lon="2.510389000">
        <ele>348.10</ele>
        <time>2013-02-24T08:43:26Z</time>
      </trkpt>
      <trkpt lat="41.612779400" lon="2.510526400">
        <ele>348.60</ele>
        <time>2013-02-24T08:43:33Z</time>
      </trkpt>
      <trkpt lat="41.612867700" lon="2.510653000">
        <ele>350.10</ele>
        <time>2013-02-24T08:43:42Z</time>
      </trkpt>
      <trkpt lat="41.612964700" lon="2.510755500">
        <ele>352.00</ele>
        <time>2013-02-24T08:43:52Z</time>
      </trkpt>
      <trkpt lat="41.613051800" lon="2.510833800">
        <ele>353.90</ele>
        <time>2013-02-24T08:43:59Z</time>
      </trkpt>
      <trkpt lat="41.613146300" lon="2.510917300">
        <ele>354.90</ele>
        <time>2013-02-24T08:44:06Z</time>
      </trkpt>
      <trkpt lat="41.613250100" lon="2.510960800">
        <ele>356.30</ele>
        <time>2013-02-24T08:44:15Z</time>
      </trkpt>
      <trkpt lat="41.613274100" lon="2.510979300">
        <ele>356.80</ele>
        <time>2013-02-24T08:44:17Z</time>
      </trkpt>
      <trkpt lat="41.613316900" lon="2.511039900">
        <ele>357.80</ele>
        <time>2013-02-24T08:44:22Z</time>
      </trkpt>
      <trkpt lat="41.613308600" lon="2.511191000">
        <ele>360.60</ele>
        <time>2013-02-24T08:44:32Z</time>
      </trkpt>
      <trkpt lat="41.613301600" lon="2.511253500">
        <ele>361.60</ele>
        <time>2013-02-24T08:44:36Z</time>
      </trkpt>
      <trkpt lat="41.613283200" lon="2.511364300">
        <ele>363.50</ele>
        <time>2013-02-24T08:44:43Z</time>
      </trkpt>
      <trkpt lat="41.613271700" lon="2.511424800">
        <ele>364.50</ele>
        <time>2013-02-24T08:44:46Z</time>
      </trkpt>
      <trkpt lat="41.613239500" lon="2.511585400">
        <ele>366.40</ele>
        <time>2013-02-24T08:44:55Z</time>
      </trkpt>
      <trkpt lat="41.613204600" lon="2.511703000">
        <ele>367.80</ele>
        <time>2013-02-24T08:45:02Z</time>
      </trkpt>
      <trkpt lat="41.613148200" lon="2.511853500">
        <ele>369.30</ele>
        <time>2013-02-24T08:45:12Z</time>
      </trkpt>
      <trkpt lat="41.613127000" lon="2.511901800">
        <ele>369.80</ele>
        <time>2013-02-24T08:45:14Z</time>
      </trkpt>
      <trkpt lat="41.613071400" lon="2.512003200">
        <ele>371.70</ele>
        <time>2013-02-24T08:45:23Z</time>
      </trkpt>
      <trkpt lat="41.613038700" lon="2.512112700">
        <ele>373.10</ele>
        <time>2013-02-24T08:45:30Z</time>
      </trkpt>
      <trkpt lat="41.612997700" lon="2.512250500">
        <ele>375.00</ele>
        <time>2013-02-24T08:45:38Z</time>
      </trkpt>
      <trkpt lat="41.612979400" lon="2.512368100">
        <ele>377.00</ele>
        <time>2013-02-24T08:45:47Z</time>
      </trkpt>
      <trkpt lat="41.612968000" lon="2.512409700">
        <ele>377.50</ele>
        <time>2013-02-24T08:45:49Z</time>
      </trkpt>
      <trkpt lat="41.612959300" lon="2.512435700">
        <ele>377.90</ele>
        <time>2013-02-24T08:45:52Z</time>
      </trkpt>
      <trkpt lat="41.612910500" lon="2.512453400">
        <ele>378.90</ele>
        <time>2013-02-24T08:45:56Z</time>
      </trkpt>
      <trkpt lat="41.612879700" lon="2.512436200">
        <ele>379.40</ele>
        <time>2013-02-24T08:45:59Z</time>
      </trkpt>
      <trkpt lat="41.612840400" lon="2.512371100">
        <ele>379.90</ele>
        <time>2013-02-24T08:46:05Z</time>
      </trkpt>
      <trkpt lat="41.612794400" lon="2.512227000">
        <ele>382.70</ele>
        <time>2013-02-24T08:46:15Z</time>
      </trkpt>
      <trkpt lat="41.612748900" lon="2.512113600">
        <ele>383.70</ele>
        <time>2013-02-24T08:46:22Z</time>
      </trkpt>
      <trkpt lat="41.612727800" lon="2.512004700">
        <ele>384.20</ele>
        <time>2013-02-24T08:46:29Z</time>
      </trkpt>
      <trkpt lat="41.612706600" lon="2.511870900">
        <ele>386.10</ele>
        <time>2013-02-24T08:46:38Z</time>
      </trkpt>
      <trkpt lat="41.612696100" lon="2.511792200">
        <ele>387.10</ele>
        <time>2013-02-24T08:46:43Z</time>
      </trkpt>
      <trkpt lat="41.612605100" lon="2.511791300">
        <ele>388.50</ele>
        <time>2013-02-24T08:46:50Z</time>
      </trkpt>
      <trkpt lat="41.612545600" lon="2.511873600">
        <ele>389.00</ele>
        <time>2013-02-24T08:46:57Z</time>
      </trkpt>
      <trkpt lat="41.612529000" lon="2.511897900">
        <ele>389.50</ele>
        <time>2013-02-24T08:46:59Z</time>
      </trkpt>
      <trkpt lat="41.612480800" lon="2.512075300">
        <ele>391.40</ele>
        <time>2013-02-24T08:47:09Z</time>
      </trkpt>
      <trkpt lat="41.612443400" lon="2.512175500">
        <ele>392.40</ele>
        <time>2013-02-24T08:47:16Z</time>
      </trkpt>
      <trkpt lat="41.612408200" lon="2.512165100">
        <ele>392.40</ele>
        <time>2013-02-24T08:47:19Z</time>
      </trkpt>
      <trkpt lat="41.612357500" lon="2.512080800">
        <ele>392.80</ele>
        <time>2013-02-24T08:47:25Z</time>
      </trkpt>
      <trkpt lat="41.612295200" lon="2.511911300">
        <ele>394.30</ele>
        <time>2013-02-24T08:47:37Z</time>
      </trkpt>
      <trkpt lat="41.612233100" lon="2.511773900">
        <ele>396.20</ele>
        <time>2013-02-24T08:47:47Z</time>
      </trkpt>
      <trkpt lat="41.612166200" lon="2.511673700">
        <ele>398.60</ele>
        <time>2013-02-24T08:47:54Z</time>
      </trkpt>
      <trkpt lat="41.612088600" lon="2.511622700">
        <ele>400.00</ele>
        <time>2013-02-24T08:48:01Z</time>
      </trkpt>
      <trkpt lat="41.612012500" lon="2.511615600">
        <ele>401.50</ele>
        <time>2013-02-24T08:48:08Z</time>
      </trkpt>
      <trkpt lat="41.611944500" lon="2.511619500">
        <ele>402.50</ele>
        <time>2013-02-24T08:48:13Z</time>
      </trkpt>
      <trkpt lat="41.611895000" lon="2.511626400">
        <ele>402.90</ele>
        <time>2013-02-24T08:48:17Z</time>
      </trkpt>
      <trkpt lat="41.611757000" lon="2.511584600">
        <ele>404.90</ele>
        <time>2013-02-24T08:48:27Z</time>
      </trkpt>
      <trkpt lat="41.611706900" lon="2.511478800">
        <ele>405.80</ele>
        <time>2013-02-24T08:48:34Z</time>
      </trkpt>
      <trkpt lat="41.611639400" lon="2.511360700">
        <ele>405.30</ele>
        <time>2013-02-24T08:48:41Z</time>
      </trkpt>
      <trkpt lat="41.611563600" lon="2.511245600">
        <ele>405.30</ele>
        <time>2013-02-24T08:48:48Z</time>
      </trkpt>
      <trkpt lat="41.611541400" lon="2.511202900">
        <ele>404.90</ele>
        <time>2013-02-24T08:48:50Z</time>
      </trkpt>
      <trkpt lat="41.611440300" lon="2.511082600">
        <ele>405.80</ele>
        <time>2013-02-24T08:48:57Z</time>
      </trkpt>
      <trkpt lat="41.611307200" lon="2.510901900">
        <ele>406.30</ele>
        <time>2013-02-24T08:49:07Z</time>
      </trkpt>
      <trkpt lat="41.611215100" lon="2.510752300">
        <ele>407.30</ele>
        <time>2013-02-24T08:49:16Z</time>
      </trkpt>
      <trkpt lat="41.611158900" lon="2.510634800">
        <ele>407.30</ele>
        <time>2013-02-24T08:49:23Z</time>
      </trkpt>
      <trkpt lat="41.611053600" lon="2.510494600">
        <ele>408.20</ele>
        <time>2013-02-24T08:49:32Z</time>
      </trkpt>
      <trkpt lat="41.610961400" lon="2.510402400">
        <ele>409.70</ele>
        <time>2013-02-24T08:49:39Z</time>
      </trkpt>
      <trkpt lat="41.610934300" lon="2.510388900">
        <ele>410.10</ele>
        <time>2013-02-24T08:49:42Z</time>
      </trkpt>
      <trkpt lat="41.610908700" lon="2.510381400">
        <ele>410.10</ele>
        <time>2013-02-24T08:49:44Z</time>
      </trkpt>
      <trkpt lat="41.610851300" lon="2.510335000">
        <ele>410.60</ele>
        <time>2013-02-24T08:49:49Z</time>
      </trkpt>
      <trkpt lat="41.610770900" lon="2.510177200">
        <ele>412.10</ele>
        <time>2013-02-24T08:49:58Z</time>
      </trkpt>
      <trkpt lat="41.610641300" lon="2.509789500">
        <ele>412.10</ele>
        <time>2013-02-24T08:50:14Z</time>
      </trkpt>
      <trkpt lat="41.610567000" lon="2.509526700">
        <ele>410.10</ele>
        <time>2013-02-24T08:50:21Z</time>
      </trkpt>
      <trkpt lat="41.610453700" lon="2.509292700">
        <ele>408.20</ele>
        <time>2013-02-24T08:50:26Z</time>
      </trkpt>
      <trkpt lat="41.610430900" lon="2.509253800">
        <ele>407.70</ele>
        <time>2013-02-24T08:50:28Z</time>
      </trkpt>
      <trkpt lat="41.610168000" lon="2.508940100">
        <ele>406.30</ele>
        <time>2013-02-24T08:50:36Z</time>
      </trkpt>
      <trkpt lat="41.609988400" lon="2.508748900">
        <ele>406.30</ele>
        <time>2013-02-24T08:50:43Z</time>
      </trkpt>
      <trkpt lat="41.609823800" lon="2.508613200">
        <ele>406.30</ele>
        <time>2013-02-24T08:50:50Z</time>
      </trkpt>
      <trkpt lat="41.609643300" lon="2.508481300">
        <ele>406.80</ele>
        <time>2013-02-24T08:50:59Z</time>
      </trkpt>
      <trkpt lat="41.609512300" lon="2.508350800">
        <ele>407.70</ele>
        <time>2013-02-24T08:51:08Z</time>
      </trkpt>
      <trkpt lat="41.609411000" lon="2.508234000">
        <ele>408.70</ele>
        <time>2013-02-24T08:51:15Z</time>
      </trkpt>
      <trkpt lat="41.609312400" lon="2.508162500">
        <ele>409.20</ele>
        <time>2013-02-24T08:51:22Z</time>
      </trkpt>
      <trkpt lat="41.609264800" lon="2.508163900">
        <ele>409.20</ele>
        <time>2013-02-24T08:51:25Z</time>
      </trkpt>
      <trkpt lat="41.609182200" lon="2.508180000">
        <ele>410.10</ele>
        <time>2013-02-24T08:51:30Z</time>
      </trkpt>
      <trkpt lat="41.609051600" lon="2.508152600">
        <ele>411.60</ele>
        <time>2013-02-24T08:51:39Z</time>
      </trkpt>
      <trkpt lat="41.608930100" lon="2.508057700">
        <ele>414.50</ele>
        <time>2013-02-24T08:51:48Z</time>
      </trkpt>
      <trkpt lat="41.608879800" lon="2.507941000">
        <ele>415.00</ele>
        <time>2013-02-24T08:51:56Z</time>
      </trkpt>
      <trkpt lat="41.608842300" lon="2.507821600">
        <ele>415.90</ele>
        <time>2013-02-24T08:52:05Z</time>
      </trkpt>
      <trkpt lat="41.608823000" lon="2.507657200">
        <ele>417.80</ele>
        <time>2013-02-24T08:52:14Z</time>
      </trkpt>
      <trkpt lat="41.608791800" lon="2.507468100">
        <ele>419.30</ele>
        <time>2013-02-24T08:52:24Z</time>
      </trkpt>
      <trkpt lat="41.608784700" lon="2.507432600">
        <ele>419.30</ele>
        <time>2013-02-24T08:52:26Z</time>
      </trkpt>
      <trkpt lat="41.608781600" lon="2.507244700">
        <ele>420.70</ele>
        <time>2013-02-24T08:52:35Z</time>
      </trkpt>
      <trkpt lat="41.608784600" lon="2.507227000">
        <ele>420.70</ele>
        <time>2013-02-24T08:52:35Z</time>
      </trkpt>
      <trkpt lat="41.608769100" lon="2.507082000">
        <ele>422.60</ele>
        <time>2013-02-24T08:52:45Z</time>
      </trkpt>
      <trkpt lat="41.608744600" lon="2.506946700">
        <ele>424.10</ele>
        <time>2013-02-24T08:52:54Z</time>
      </trkpt>
      <trkpt lat="41.608735500" lon="2.506854500">
        <ele>425.50</ele>
        <time>2013-02-24T08:52:59Z</time>
      </trkpt>
      <trkpt lat="41.608732400" lon="2.506687200">
        <ele>427.00</ele>
        <time>2013-02-24T08:53:06Z</time>
      </trkpt>
      <trkpt lat="41.608733700" lon="2.506613000">
        <ele>427.90</ele>
        <time>2013-02-24T08:53:13Z</time>
      </trkpt>
      <trkpt lat="41.608714600" lon="2.506612200">
        <ele>427.40</ele>
        <time>2013-02-24T08:53:25Z</time>
      </trkpt>
      <trkpt lat="41.608707800" lon="2.506629200">
        <ele>427.40</ele>
        <time>2013-02-24T08:53:34Z</time>
      </trkpt>
      <trkpt lat="41.608695300" lon="2.506637100">
        <ele>427.40</ele>
        <time>2013-02-24T08:53:55Z</time>
      </trkpt>
      <trkpt lat="41.608689300" lon="2.506620400">
        <ele>427.90</ele>
        <time>2013-02-24T08:53:57Z</time>
      </trkpt>
      <trkpt lat="41.608670300" lon="2.506417800">
        <ele>428.40</ele>
        <time>2013-02-24T08:54:05Z</time>
      </trkpt>
      <trkpt lat="41.608654800" lon="2.506179000">
        <ele>427.90</ele>
        <time>2013-02-24T08:54:12Z</time>
      </trkpt>
      <trkpt lat="41.608661000" lon="2.505996900">
        <ele>428.90</ele>
        <time>2013-02-24T08:54:19Z</time>
      </trkpt>
      <trkpt lat="41.608658800" lon="2.505971400">
        <ele>428.90</ele>
        <time>2013-02-24T08:54:21Z</time>
      </trkpt>
      <trkpt lat="41.608695000" lon="2.505736300">
        <ele>429.90</ele>
        <time>2013-02-24T08:54:28Z</time>
      </trkpt>
      <trkpt lat="41.608716400" lon="2.505443500">
        <ele>429.40</ele>
        <time>2013-02-24T08:54:35Z</time>
      </trkpt>
      <trkpt lat="41.608705000" lon="2.505207200">
        <ele>428.40</ele>
        <time>2013-02-24T08:54:40Z</time>
      </trkpt>
      <trkpt lat="41.608715200" lon="2.505164800">
        <ele>427.90</ele>
        <time>2013-02-24T08:54:40Z</time>
      </trkpt>
      <trkpt lat="41.608730300" lon="2.505118300">
        <ele>427.40</ele>
        <time>2013-02-24T08:54:42Z</time>
      </trkpt>
      <trkpt lat="41.608785100" lon="2.504957600">
        <ele>426.00</ele>
        <time>2013-02-24T08:54:45Z</time>
      </trkpt>
      <trkpt lat="41.608849400" lon="2.504961800">
        <ele>426.50</ele>
        <time>2013-02-24T08:54:49Z</time>
      </trkpt>
      <trkpt lat="41.608977600" lon="2.505046800">
        <ele>427.00</ele>
        <time>2013-02-24T08:54:56Z</time>
      </trkpt>
      <trkpt lat="41.609034400" lon="2.505097100">
        <ele>428.40</ele>
        <time>2013-02-24T08:55:03Z</time>
      </trkpt>
      <trkpt lat="41.609108100" lon="2.505178200">
        <ele>429.90</ele>
        <time>2013-02-24T08:55:12Z</time>
      </trkpt>
      <trkpt lat="41.609188000" lon="2.505242000">
        <ele>430.80</ele>
        <time>2013-02-24T08:55:18Z</time>
      </trkpt>
      <trkpt lat="41.609265200" lon="2.505316700">
        <ele>432.20</ele>
        <time>2013-02-24T08:55:25Z</time>
      </trkpt>
      <trkpt lat="41.609281600" lon="2.505336600">
        <ele>432.70</ele>
        <time>2013-02-24T08:55:27Z</time>
      </trkpt>
      <trkpt lat="41.609364900" lon="2.505408700">
        <ele>433.20</ele>
        <time>2013-02-24T08:55:34Z</time>
      </trkpt>
      <trkpt lat="41.609482400" lon="2.505483300">
        <ele>434.20</ele>
        <time>2013-02-24T08:55:43Z</time>
      </trkpt>
      <trkpt lat="41.609507800" lon="2.505495400">
        <ele>435.10</ele>
        <time>2013-02-24T08:55:45Z</time>
      </trkpt>
      <trkpt lat="41.609577800" lon="2.505513200">
        <ele>436.60</ele>
        <time>2013-02-24T08:55:50Z</time>
      </trkpt>
      <trkpt lat="41.609686400" lon="2.505533500">
        <ele>438.00</ele>
        <time>2013-02-24T08:55:59Z</time>
      </trkpt>
      <trkpt lat="41.609768200" lon="2.505527900">
        <ele>439.50</ele>
        <time>2013-02-24T08:56:06Z</time>
      </trkpt>
      <trkpt lat="41.609849000" lon="2.505408900">
        <ele>440.90</ele>
        <time>2013-02-24T08:56:14Z</time>
      </trkpt>
      <trkpt lat="41.609901600" lon="2.505290000">
        <ele>441.40</ele>
        <time>2013-02-24T08:56:23Z</time>
      </trkpt>
      <trkpt lat="41.609916800" lon="2.505237300">
        <ele>441.90</ele>
        <time>2013-02-24T08:56:25Z</time>
      </trkpt>
      <trkpt lat="41.609945200" lon="2.505105600">
        <ele>443.30</ele>
        <time>2013-02-24T08:56:35Z</time>
      </trkpt>
      <trkpt lat="41.609920600" lon="2.505008100">
        <ele>444.80</ele>
        <time>2013-02-24T08:56:42Z</time>
      </trkpt>
      <trkpt lat="41.609893200" lon="2.504956000">
        <ele>445.20</ele>
        <time>2013-02-24T08:56:47Z</time>
      </trkpt>
      <trkpt lat="41.609796700" lon="2.504971000">
        <ele>447.60</ele>
        <time>2013-02-24T08:56:54Z</time>
      </trkpt>
      <trkpt lat="41.609783900" lon="2.504980600">
        <ele>448.10</ele>
        <time>2013-02-24T08:56:56Z</time>
      </trkpt>
      <trkpt lat="41.609730200" lon="2.505036300">
        <ele>450.00</ele>
        <time>2013-02-24T08:57:01Z</time>
      </trkpt>
      <trkpt lat="41.609690700" lon="2.505046400">
        <ele>450.00</ele>
        <time>2013-02-24T08:57:05Z</time>
      </trkpt>
      <trkpt lat="41.609632700" lon="2.504994700">
        <ele>450.00</ele>
        <time>2013-02-24T08:57:10Z</time>
      </trkpt>
      <trkpt lat="41.609512400" lon="2.504780500">
        <ele>448.60</ele>
        <time>2013-02-24T08:57:19Z</time>
      </trkpt>
      <trkpt lat="41.609489100" lon="2.504749600">
        <ele>448.60</ele>
        <time>2013-02-24T08:57:27Z</time>
      </trkpt>
      <trkpt lat="41.609474600" lon="2.504722900">
        <ele>448.60</ele>
        <time>2013-02-24T08:57:29Z</time>
      </trkpt>
      <trkpt lat="41.609457800" lon="2.504699400">
        <ele>449.10</ele>
        <time>2013-02-24T08:57:31Z</time>
      </trkpt>
      <trkpt lat="41.609384800" lon="2.504610500">
        <ele>449.50</ele>
        <time>2013-02-24T08:57:40Z</time>
      </trkpt>
      <trkpt lat="41.609281000" lon="2.504495600">
        <ele>450.50</ele>
        <time>2013-02-24T08:57:50Z</time>
      </trkpt>
      <trkpt lat="41.609189300" lon="2.504393800">
        <ele>451.50</ele>
        <time>2013-02-24T08:57:57Z</time>
      </trkpt>
      <trkpt lat="41.609088800" lon="2.504208300">
        <ele>454.80</ele>
        <time>2013-02-24T08:58:07Z</time>
      </trkpt>
      <trkpt lat="41.609074000" lon="2.504058500">
        <ele>456.80</ele>
        <time>2013-02-24T08:58:16Z</time>
      </trkpt>
      <trkpt lat="41.609073200" lon="2.504043600">
        <ele>456.80</ele>
        <time>2013-02-24T08:58:18Z</time>
      </trkpt>
      <trkpt lat="41.609076400" lon="2.503946900">
        <ele>457.70</ele>
        <time>2013-02-24T08:58:23Z</time>
      </trkpt>
      <trkpt lat="41.609088800" lon="2.503739700">
        <ele>458.20</ele>
        <time>2013-02-24T08:58:32Z</time>
      </trkpt>
      <trkpt lat="41.609093000" lon="2.503719000">
        <ele>457.70</ele>
        <time>2013-02-24T08:58:44Z</time>
      </trkpt>
      <trkpt lat="41.609091800" lon="2.503722200">
        <ele>457.70</ele>
        <time>2013-02-24T08:59:00Z</time>
      </trkpt>
      <trkpt lat="41.609108800" lon="2.503706900">
        <ele>457.70</ele>
        <time>2013-02-24T08:59:17Z</time>
      </trkpt>
      <trkpt lat="41.609103600" lon="2.503614400">
        <ele>457.70</ele>
        <time>2013-02-24T08:59:22Z</time>
      </trkpt>
      <trkpt lat="41.609062600" lon="2.503427900">
        <ele>458.20</ele>
        <time>2013-02-24T08:59:29Z</time>
      </trkpt>
      <trkpt lat="41.609002900" lon="2.503120700">
        <ele>455.80</ele>
        <time>2013-02-24T08:59:35Z</time>
      </trkpt>
      <trkpt lat="41.608998600" lon="2.502978600">
        <ele>454.40</ele>
        <time>2013-02-24T08:59:38Z</time>
      </trkpt>
      <trkpt lat="41.609020900" lon="2.502941400">
        <ele>453.40</ele>
        <time>2013-02-24T08:59:40Z</time>
      </trkpt>
      <trkpt lat="41.609095200" lon="2.502823600">
        <ele>451.00</ele>
        <time>2013-02-24T08:59:43Z</time>
      </trkpt>
      <trkpt lat="41.609088400" lon="2.502589800">
        <ele>449.10</ele>
        <time>2013-02-24T08:59:47Z</time>
      </trkpt>
      <trkpt lat="41.609144400" lon="2.502479300">
        <ele>448.10</ele>
        <time>2013-02-24T08:59:52Z</time>
      </trkpt>
      <trkpt lat="41.609203200" lon="2.502390900">
        <ele>448.10</ele>
        <time>2013-02-24T08:59:57Z</time>
      </trkpt>
      <trkpt lat="41.609267300" lon="2.502346600">
        <ele>448.60</ele>
        <time>2013-02-24T08:59:59Z</time>
      </trkpt>
      <trkpt lat="41.609448400" lon="2.502270500">
        <ele>449.50</ele>
        <time>2013-02-24T09:00:09Z</time>
      </trkpt>
      <trkpt lat="41.609568000" lon="2.502259800">
        <ele>451.00</ele>
        <time>2013-02-24T09:00:15Z</time>
      </trkpt>
      <trkpt lat="41.609712200" lon="2.502216400">
        <ele>452.40</ele>
        <time>2013-02-24T09:00:22Z</time>
      </trkpt>
      <trkpt lat="41.609825300" lon="2.502157700">
        <ele>453.40</ele>
        <time>2013-02-24T09:00:29Z</time>
      </trkpt>
      <trkpt lat="41.609871000" lon="2.502018900">
        <ele>454.40</ele>
        <time>2013-02-24T09:00:35Z</time>
      </trkpt>
      <trkpt lat="41.609882700" lon="2.501893300">
        <ele>455.80</ele>
        <time>2013-02-24T09:00:42Z</time>
      </trkpt>
      <trkpt lat="41.609895600" lon="2.501745500">
        <ele>457.20</ele>
        <time>2013-02-24T09:00:51Z</time>
      </trkpt>
      <trkpt lat="41.609907400" lon="2.501625100">
        <ele>458.20</ele>
        <time>2013-02-24T09:00:58Z</time>
      </trkpt>
      <trkpt lat="41.609908600" lon="2.501500500">
        <ele>459.20</ele>
        <time>2013-02-24T09:01:05Z</time>
      </trkpt>
      <trkpt lat="41.609915200" lon="2.501427600">
        <ele>460.10</ele>
        <time>2013-02-24T09:01:10Z</time>
      </trkpt>
      <trkpt lat="41.609904200" lon="2.501304000">
        <ele>461.10</ele>
        <time>2013-02-24T09:01:19Z</time>
      </trkpt>
      <trkpt lat="41.609934100" lon="2.501171300">
        <ele>461.60</ele>
        <time>2013-02-24T09:01:26Z</time>
      </trkpt>
      <trkpt lat="41.610014200" lon="2.501107700">
        <ele>463.00</ele>
        <time>2013-02-24T09:01:35Z</time>
      </trkpt>
      <trkpt lat="41.610122200" lon="2.501073900">
        <ele>464.50</ele>
        <time>2013-02-24T09:01:43Z</time>
      </trkpt>
      <trkpt lat="41.610212500" lon="2.501042700">
        <ele>466.40</ele>
        <time>2013-02-24T09:01:52Z</time>
      </trkpt>
      <trkpt lat="41.610223200" lon="2.501039100">
        <ele>466.90</ele>
        <time>2013-02-24T09:01:52Z</time>
      </trkpt>
      <trkpt lat="41.610313000" lon="2.500972100">
        <ele>469.30</ele>
        <time>2013-02-24T09:02:01Z</time>
      </trkpt>
      <trkpt lat="41.610402500" lon="2.500945100">
        <ele>470.20</ele>
        <time>2013-02-24T09:02:08Z</time>
      </trkpt>
      <trkpt lat="41.610514300" lon="2.500873600">
        <ele>472.10</ele>
        <time>2013-02-24T09:02:18Z</time>
      </trkpt>
      <trkpt lat="41.610562600" lon="2.500834900">
        <ele>473.10</ele>
        <time>2013-02-24T09:02:22Z</time>
      </trkpt>
      <trkpt lat="41.610666400" lon="2.500791400">
        <ele>474.10</ele>
        <time>2013-02-24T09:02:32Z</time>
      </trkpt>
      <trkpt lat="41.610742300" lon="2.500787100">
        <ele>473.60</ele>
        <time>2013-02-24T09:02:34Z</time>
      </trkpt>
      <trkpt lat="41.610910300" lon="2.500636400">
        <ele>470.20</ele>
        <time>2013-02-24T09:02:39Z</time>
      </trkpt>
      <trkpt lat="41.610952000" lon="2.500535500">
        <ele>469.30</ele>
        <time>2013-02-24T09:02:41Z</time>
      </trkpt>
      <trkpt lat="41.611064500" lon="2.500187900">
        <ele>466.90</ele>
        <time>2013-02-24T09:02:48Z</time>
      </trkpt>
      <trkpt lat="41.611139900" lon="2.499897700">
        <ele>464.90</ele>
        <time>2013-02-24T09:02:53Z</time>
      </trkpt>
      <trkpt lat="41.611165000" lon="2.499674700">
        <ele>463.50</ele>
        <time>2013-02-24T09:02:58Z</time>
      </trkpt>
      <trkpt lat="41.611162900" lon="2.499501400">
        <ele>461.10</ele>
        <time>2013-02-24T09:03:04Z</time>
      </trkpt>
      <trkpt lat="41.611154100" lon="2.499427800">
        <ele>459.60</ele>
        <time>2013-02-24T09:03:05Z</time>
      </trkpt>
      <trkpt lat="41.611193500" lon="2.499229200">
        <ele>455.30</ele>
        <time>2013-02-24T09:03:11Z</time>
      </trkpt>
      <trkpt lat="41.611203900" lon="2.499121100">
        <ele>454.40</ele>
        <time>2013-02-24T09:03:12Z</time>
      </trkpt>
      <trkpt lat="41.611193300" lon="2.499018000">
        <ele>454.40</ele>
        <time>2013-02-24T09:03:16Z</time>
      </trkpt>
      <trkpt lat="41.611132700" lon="2.498836700">
        <ele>455.80</ele>
        <time>2013-02-24T09:03:23Z</time>
      </trkpt>
      <trkpt lat="41.611064000" lon="2.498710400">
        <ele>457.20</ele>
        <time>2013-02-24T09:03:30Z</time>
      </trkpt>
      <trkpt lat="41.610986200" lon="2.498588100">
        <ele>458.20</ele>
        <time>2013-02-24T09:03:38Z</time>
      </trkpt>
      <trkpt lat="41.610883300" lon="2.498481100">
        <ele>458.70</ele>
        <time>2013-02-24T09:03:47Z</time>
      </trkpt>
      <trkpt lat="41.610756800" lon="2.498357600">
        <ele>459.60</ele>
        <time>2013-02-24T09:03:56Z</time>
      </trkpt>
      <trkpt lat="41.610641500" lon="2.498248700">
        <ele>457.70</ele>
        <time>2013-02-24T09:04:03Z</time>
      </trkpt>
      <trkpt lat="41.610524100" lon="2.498192600">
        <ele>458.20</ele>
        <time>2013-02-24T09:04:08Z</time>
      </trkpt>
      <trkpt lat="41.610467300" lon="2.498196600">
        <ele>459.20</ele>
        <time>2013-02-24T09:04:12Z</time>
      </trkpt>
      <trkpt lat="41.610317100" lon="2.498280700">
        <ele>458.20</ele>
        <time>2013-02-24T09:04:20Z</time>
      </trkpt>
      <trkpt lat="41.610190200" lon="2.498337500">
        <ele>456.30</ele>
        <time>2013-02-24T09:04:27Z</time>
      </trkpt>
      <trkpt lat="41.610168900" lon="2.498337100">
        <ele>455.80</ele>
        <time>2013-02-24T09:04:27Z</time>
      </trkpt>
      <trkpt lat="41.610090800" lon="2.498242000">
        <ele>453.40</ele>
        <time>2013-02-24T09:04:31Z</time>
      </trkpt>
      <trkpt lat="41.610083600" lon="2.498168100">
        <ele>452.00</ele>
        <time>2013-02-24T09:04:34Z</time>
      </trkpt>
      <trkpt lat="41.610179600" lon="2.498026300">
        <ele>449.50</ele>
        <time>2013-02-24T09:04:38Z</time>
      </trkpt>
      <trkpt lat="41.610328100" lon="2.497876800">
        <ele>445.20</ele>
        <time>2013-02-24T09:04:45Z</time>
      </trkpt>
      <trkpt lat="41.610348600" lon="2.497854500">
        <ele>445.20</ele>
        <time>2013-02-24T09:04:46Z</time>
      </trkpt>
      <trkpt lat="41.610383800" lon="2.497646500">
        <ele>441.40</ele>
        <time>2013-02-24T09:04:52Z</time>
      </trkpt>
      <trkpt lat="41.610403800" lon="2.497574900">
        <ele>439.90</ele>
        <time>2013-02-24T09:04:57Z</time>
      </trkpt>
      <trkpt lat="41.610412300" lon="2.497561500">
        <ele>439.90</ele>
        <time>2013-02-24T09:05:09Z</time>
      </trkpt>
      <trkpt lat="41.610400500" lon="2.497517000">
        <ele>439.90</ele>
        <time>2013-02-24T09:05:33Z</time>
      </trkpt>
      <trkpt lat="41.610402100" lon="2.497514300">
        <ele>439.90</ele>
        <time>2013-02-24T09:05:35Z</time>
      </trkpt>
      <trkpt lat="41.610495600" lon="2.497377000">
        <ele>438.50</ele>
        <time>2013-02-24T09:05:40Z</time>
      </trkpt>
      <trkpt lat="41.610769400" lon="2.497127900">
        <ele>436.60</ele>
        <time>2013-02-24T09:05:47Z</time>
      </trkpt>
      <trkpt lat="41.610910200" lon="2.496922500">
        <ele>433.70</ele>
        <time>2013-02-24T09:05:54Z</time>
      </trkpt>
      <trkpt lat="41.611038400" lon="2.496796300">
        <ele>430.30</ele>
        <time>2013-02-24T09:05:58Z</time>
      </trkpt>
      <trkpt lat="41.611074300" lon="2.496757400">
        <ele>430.30</ele>
        <time>2013-02-24T09:06:00Z</time>
      </trkpt>
      <trkpt lat="41.611191600" lon="2.496645100">
        <ele>429.40</ele>
        <time>2013-02-24T09:06:03Z</time>
      </trkpt>
      <trkpt lat="41.611422200" lon="2.496510400">
        <ele>429.40</ele>
        <time>2013-02-24T09:06:10Z</time>
      </trkpt>
      <trkpt lat="41.611529600" lon="2.496444000">
        <ele>429.90</ele>
        <time>2013-02-24T09:06:15Z</time>
      </trkpt>
      <trkpt lat="41.611670700" lon="2.496315500">
        <ele>431.30</ele>
        <time>2013-02-24T09:06:22Z</time>
      </trkpt>
      <trkpt lat="41.611683000" lon="2.496300300">
        <ele>431.30</ele>
        <time>2013-02-24T09:06:22Z</time>
      </trkpt>
      <trkpt lat="41.611694400" lon="2.496262200">
        <ele>431.80</ele>
        <time>2013-02-24T09:06:29Z</time>
      </trkpt>
      <trkpt lat="41.611692800" lon="2.496271000">
        <ele>431.80</ele>
        <time>2013-02-24T09:06:50Z</time>
      </trkpt>
      <trkpt lat="41.611704600" lon="2.496262900">
        <ele>431.80</ele>
        <time>2013-02-24T09:07:06Z</time>
      </trkpt>
      <trkpt lat="41.611713200" lon="2.496246200">
        <ele>432.20</ele>
        <time>2013-02-24T09:07:07Z</time>
      </trkpt>
      <trkpt lat="41.611750900" lon="2.496183400">
        <ele>431.80</ele>
        <time>2013-02-24T09:07:11Z</time>
      </trkpt>
      <trkpt lat="41.611873600" lon="2.496042700">
        <ele>430.30</ele>
        <time>2013-02-24T09:07:16Z</time>
      </trkpt>
      <trkpt lat="41.612010300" lon="2.495838000">
        <ele>429.40</ele>
        <time>2013-02-24T09:07:23Z</time>
      </trkpt>
      <trkpt lat="41.612029500" lon="2.495786500">
        <ele>429.40</ele>
        <time>2013-02-24T09:07:28Z</time>
      </trkpt>
      <trkpt lat="41.612021200" lon="2.495774700">
        <ele>429.40</ele>
        <time>2013-02-24T09:07:46Z</time>
      </trkpt>
      <trkpt lat="41.612046100" lon="2.495745800">
        <ele>429.90</ele>
        <time>2013-02-24T09:07:56Z</time>
      </trkpt>
      <trkpt lat="41.612148800" lon="2.495695500">
        <ele>430.30</ele>
        <time>2013-02-24T09:08:05Z</time>
      </trkpt>
      <trkpt lat="41.612246900" lon="2.495650200">
        <ele>430.80</ele>
        <time>2013-02-24T09:08:10Z</time>
      </trkpt>
      <trkpt lat="41.612281600" lon="2.495651700">
        <ele>431.30</ele>
        <time>2013-02-24T09:08:12Z</time>
      </trkpt>
      <trkpt lat="41.612318000" lon="2.495646100">
        <ele>431.80</ele>
        <time>2013-02-24T09:08:14Z</time>
      </trkpt>
      <trkpt lat="41.612392500" lon="2.495673600">
        <ele>433.20</ele>
        <time>2013-02-24T09:08:19Z</time>
      </trkpt>
      <trkpt lat="41.612500300" lon="2.495692400">
        <ele>435.10</ele>
        <time>2013-02-24T09:08:26Z</time>
      </trkpt>
      <trkpt lat="41.612512300" lon="2.495694600">
        <ele>435.10</ele>
        <time>2013-02-24T09:08:26Z</time>
      </trkpt>
      <trkpt lat="41.612622800" lon="2.495809800">
        <ele>434.60</ele>
        <time>2013-02-24T09:08:36Z</time>
      </trkpt>
      <trkpt lat="41.612748300" lon="2.495820700">
        <ele>435.60</ele>
        <time>2013-02-24T09:08:43Z</time>
      </trkpt>
      <trkpt lat="41.612822700" lon="2.495828600">
        <ele>436.10</ele>
        <time>2013-02-24T09:08:47Z</time>
      </trkpt>
      <trkpt lat="41.612903200" lon="2.495826100">
        <ele>436.60</ele>
        <time>2013-02-24T09:08:50Z</time>
      </trkpt>
      <trkpt lat="41.613080300" lon="2.495858800">
        <ele>438.00</ele>
        <time>2013-02-24T09:09:01Z</time>
      </trkpt>
      <trkpt lat="41.613223500" lon="2.495915000">
        <ele>439.00</ele>
        <time>2013-02-24T09:09:09Z</time>
      </trkpt>
      <trkpt lat="41.613415200" lon="2.495917400">
        <ele>439.90</ele>
        <time>2013-02-24T09:09:18Z</time>
      </trkpt>
      <trkpt lat="41.613556100" lon="2.495884100">
        <ele>440.40</ele>
        <time>2013-02-24T09:09:23Z</time>
      </trkpt>
      <trkpt lat="41.613659000" lon="2.495851600">
        <ele>441.40</ele>
        <time>2013-02-24T09:09:29Z</time>
      </trkpt>
      <trkpt lat="41.613749600" lon="2.495813400">
        <ele>441.90</ele>
        <time>2013-02-24T09:09:34Z</time>
      </trkpt>
      <trkpt lat="41.613915100" lon="2.495745400">
        <ele>442.80</ele>
        <time>2013-02-24T09:09:44Z</time>
      </trkpt>
      <trkpt lat="41.614072800" lon="2.495708100">
        <ele>443.80</ele>
        <time>2013-02-24T09:09:51Z</time>
      </trkpt>
      <trkpt lat="41.614220700" lon="2.495678600">
        <ele>444.30</ele>
        <time>2013-02-24T09:10:00Z</time>
      </trkpt>
      <trkpt lat="41.614328200" lon="2.495659300">
        <ele>445.70</ele>
        <time>2013-02-24T09:10:05Z</time>
      </trkpt>
      <trkpt lat="41.614477800" lon="2.495654000">
        <ele>446.70</ele>
        <time>2013-02-24T09:10:14Z</time>
      </trkpt>
      <trkpt lat="41.614622200" lon="2.495612500">
        <ele>448.10</ele>
        <time>2013-02-24T09:10:21Z</time>
      </trkpt>
      <trkpt lat="41.614771400" lon="2.495548900">
        <ele>449.50</ele>
        <time>2013-02-24T09:10:29Z</time>
      </trkpt>
      <trkpt lat="41.614900300" lon="2.495512100">
        <ele>451.00</ele>
        <time>2013-02-24T09:10:36Z</time>
      </trkpt>
      <trkpt lat="41.615032800" lon="2.495478500">
        <ele>452.90</ele>
        <time>2013-02-24T09:10:45Z</time>
      </trkpt>
      <trkpt lat="41.615208600" lon="2.495495200">
        <ele>453.90</ele>
        <time>2013-02-24T09:10:54Z</time>
      </trkpt>
      <trkpt lat="41.615308200" lon="2.495593000">
        <ele>455.80</ele>
        <time>2013-02-24T09:11:01Z</time>
      </trkpt>
      <trkpt lat="41.615395300" lon="2.495693000">
        <ele>457.70</ele>
        <time>2013-02-24T09:11:10Z</time>
      </trkpt>
      <trkpt lat="41.615439600" lon="2.495753000">
        <ele>458.20</ele>
        <time>2013-02-24T09:11:13Z</time>
      </trkpt>
      <trkpt lat="41.615522100" lon="2.495902200">
        <ele>460.10</ele>
        <time>2013-02-24T09:11:23Z</time>
      </trkpt>
      <trkpt lat="41.615544900" lon="2.496037400">
        <ele>461.60</ele>
        <time>2013-02-24T09:11:32Z</time>
      </trkpt>
      <trkpt lat="41.615567900" lon="2.496182500">
        <ele>462.50</ele>
        <time>2013-02-24T09:11:39Z</time>
      </trkpt>
      <trkpt lat="41.615609500" lon="2.496326900">
        <ele>463.50</ele>
        <time>2013-02-24T09:11:48Z</time>
      </trkpt>
      <trkpt lat="41.615655600" lon="2.496438000">
        <ele>464.50</ele>
        <time>2013-02-24T09:11:53Z</time>
      </trkpt>
      <trkpt lat="41.615717100" lon="2.496554500">
        <ele>465.90</ele>
        <time>2013-02-24T09:12:00Z</time>
      </trkpt>
      <trkpt lat="41.615747800" lon="2.496614700">
        <ele>467.30</ele>
        <time>2013-02-24T09:12:05Z</time>
      </trkpt>
      <trkpt lat="41.615847700" lon="2.496769900">
        <ele>468.80</ele>
        <time>2013-02-24T09:12:14Z</time>
      </trkpt>
      <trkpt lat="41.615965700" lon="2.496807200">
        <ele>469.70</ele>
        <time>2013-02-24T09:12:23Z</time>
      </trkpt>
      <trkpt lat="41.616068800" lon="2.496767300">
        <ele>470.70</ele>
        <time>2013-02-24T09:12:30Z</time>
      </trkpt>
      <trkpt lat="41.616170200" lon="2.496672800">
        <ele>473.10</ele>
        <time>2013-02-24T09:12:38Z</time>
      </trkpt>
      <trkpt lat="41.616213700" lon="2.496620800">
        <ele>473.60</ele>
        <time>2013-02-24T09:12:42Z</time>
      </trkpt>
      <trkpt lat="41.616283600" lon="2.496466800">
        <ele>475.00</ele>
        <time>2013-02-24T09:12:52Z</time>
      </trkpt>
      <trkpt lat="41.616307600" lon="2.496389100">
        <ele>475.50</ele>
        <time>2013-02-24T09:12:56Z</time>
      </trkpt>
      <trkpt lat="41.616341900" lon="2.496162700">
        <ele>477.00</ele>
        <time>2013-02-24T09:13:06Z</time>
      </trkpt>
      <trkpt lat="41.616354900" lon="2.495988300">
        <ele>478.90</ele>
        <time>2013-02-24T09:13:15Z</time>
      </trkpt>
      <trkpt lat="41.616349200" lon="2.495800400">
        <ele>480.80</ele>
        <time>2013-02-24T09:13:25Z</time>
      </trkpt>
      <trkpt lat="41.616373000" lon="2.495602300">
        <ele>482.70</ele>
        <time>2013-02-24T09:13:36Z</time>
      </trkpt>
      <trkpt lat="41.616445900" lon="2.495462200">
        <ele>484.60</ele>
        <time>2013-02-24T09:13:43Z</time>
      </trkpt>
      <trkpt lat="41.616565400" lon="2.495428700">
        <ele>484.60</ele>
        <time>2013-02-24T09:13:50Z</time>
      </trkpt>
      <trkpt lat="41.616723800" lon="2.495493800">
        <ele>484.60</ele>
        <time>2013-02-24T09:14:00Z</time>
      </trkpt>
      <trkpt lat="41.616901000" lon="2.495566300">
        <ele>485.10</ele>
        <time>2013-02-24T09:14:09Z</time>
      </trkpt>
      <trkpt lat="41.617052600" lon="2.495628800">
        <ele>485.60</ele>
        <time>2013-02-24T09:14:16Z</time>
      </trkpt>
      <trkpt lat="41.617193400" lon="2.495668100">
        <ele>486.10</ele>
        <time>2013-02-24T09:14:23Z</time>
      </trkpt>
      <trkpt lat="41.617346400" lon="2.495674000">
        <ele>487.00</ele>
        <time>2013-02-24T09:14:30Z</time>
      </trkpt>
      <trkpt lat="41.617520900" lon="2.495663400">
        <ele>487.50</ele>
        <time>2013-02-24T09:14:40Z</time>
      </trkpt>
      <trkpt lat="41.617651400" lon="2.495665100">
        <ele>489.00</ele>
        <time>2013-02-24T09:14:47Z</time>
      </trkpt>
      <trkpt lat="41.617814600" lon="2.495685700">
        <ele>489.90</ele>
        <time>2013-02-24T09:14:56Z</time>
      </trkpt>
      <trkpt lat="41.617939000" lon="2.495721900">
        <ele>491.40</ele>
        <time>2013-02-24T09:15:03Z</time>
      </trkpt>
      <trkpt lat="41.618082100" lon="2.495750900">
        <ele>492.80</ele>
        <time>2013-02-24T09:15:12Z</time>
      </trkpt>
      <trkpt lat="41.618213000" lon="2.495763700">
        <ele>493.80</ele>
        <time>2013-02-24T09:15:19Z</time>
      </trkpt>
      <trkpt lat="41.618365100" lon="2.495760300">
        <ele>495.70</ele>
        <time>2013-02-24T09:15:27Z</time>
      </trkpt>
      <trkpt lat="41.618476900" lon="2.495700500">
        <ele>497.10</ele>
        <time>2013-02-24T09:15:34Z</time>
      </trkpt>
      <trkpt lat="41.618614100" lon="2.495584800">
        <ele>498.60</ele>
        <time>2013-02-24T09:15:45Z</time>
      </trkpt>
      <trkpt lat="41.618700200" lon="2.495476900">
        <ele>499.50</ele>
        <time>2013-02-24T09:15:52Z</time>
      </trkpt>
      <trkpt lat="41.618808900" lon="2.495326900">
        <ele>500.00</ele>
        <time>2013-02-24T09:15:59Z</time>
      </trkpt>
      <trkpt lat="41.618909100" lon="2.495189900">
        <ele>500.50</ele>
        <time>2013-02-24T09:16:06Z</time>
      </trkpt>
      <trkpt lat="41.619050600" lon="2.495086300">
        <ele>501.50</ele>
        <time>2013-02-24T09:16:16Z</time>
      </trkpt>
      <trkpt lat="41.619190100" lon="2.495065600">
        <ele>501.50</ele>
        <time>2013-02-24T09:16:23Z</time>
      </trkpt>
      <trkpt lat="41.619382200" lon="2.495119400">
        <ele>502.00</ele>
        <time>2013-02-24T09:16:32Z</time>
      </trkpt>
      <trkpt lat="41.619526700" lon="2.495206300">
        <ele>502.40</ele>
        <time>2013-02-24T09:16:39Z</time>
      </trkpt>
      <trkpt lat="41.619703800" lon="2.495326700">
        <ele>503.40</ele>
        <time>2013-02-24T09:16:49Z</time>
      </trkpt>
      <trkpt lat="41.619832800" lon="2.495345600">
        <ele>504.40</ele>
        <time>2013-02-24T09:16:56Z</time>
      </trkpt>
      <trkpt lat="41.619961700" lon="2.495240900">
        <ele>505.30</ele>
        <time>2013-02-24T09:17:05Z</time>
      </trkpt>
      <trkpt lat="41.620105400" lon="2.495104900">
        <ele>506.80</ele>
        <time>2013-02-24T09:17:14Z</time>
      </trkpt>
      <trkpt lat="41.620223600" lon="2.494979300">
        <ele>507.70</ele>
        <time>2013-02-24T09:17:22Z</time>
      </trkpt>
      <trkpt lat="41.620276700" lon="2.494882100">
        <ele>508.70</ele>
        <time>2013-02-24T09:17:28Z</time>
      </trkpt>
      <trkpt lat="41.620409000" lon="2.494778100">
        <ele>510.10</ele>
        <time>2013-02-24T09:17:36Z</time>
      </trkpt>
      <trkpt lat="41.620560700" lon="2.494881100">
        <ele>512.00</ele>
        <time>2013-02-24T09:17:45Z</time>
      </trkpt>
      <trkpt lat="41.620709300" lon="2.495021200">
        <ele>513.50</ele>
        <time>2013-02-24T09:17:55Z</time>
      </trkpt>
      <trkpt lat="41.620826400" lon="2.495129000">
        <ele>514.90</ele>
        <time>2013-02-24T09:18:04Z</time>
      </trkpt>
      <trkpt lat="41.620963000" lon="2.495238400">
        <ele>515.90</ele>
        <time>2013-02-24T09:18:13Z</time>
      </trkpt>
      <trkpt lat="41.621089400" lon="2.495260500">
        <ele>516.80</ele>
        <time>2013-02-24T09:18:20Z</time>
      </trkpt>
      <trkpt lat="41.621164600" lon="2.495200400">
        <ele>517.30</ele>
        <time>2013-02-24T09:18:25Z</time>
      </trkpt>
      <trkpt lat="41.621222700" lon="2.494974000">
        <ele>518.30</ele>
        <time>2013-02-24T09:18:36Z</time>
      </trkpt>
      <trkpt lat="41.621300900" lon="2.494845000">
        <ele>518.30</ele>
        <time>2013-02-24T09:18:41Z</time>
      </trkpt>
      <trkpt lat="41.621421300" lon="2.494696400">
        <ele>518.80</ele>
        <time>2013-02-24T09:18:49Z</time>
      </trkpt>
      <trkpt lat="41.621421000" lon="2.494519100">
        <ele>518.80</ele>
        <time>2013-02-24T09:18:56Z</time>
      </trkpt>
      <trkpt lat="41.621384100" lon="2.494260200">
        <ele>518.80</ele>
        <time>2013-02-24T09:19:05Z</time>
      </trkpt>
      <trkpt lat="41.621412000" lon="2.494009500">
        <ele>518.80</ele>
        <time>2013-02-24T09:19:14Z</time>
      </trkpt>
      <trkpt lat="41.621535200" lon="2.493894100">
        <ele>518.30</ele>
        <time>2013-02-24T09:19:21Z</time>
      </trkpt>
      <trkpt lat="41.621664200" lon="2.493761500">
        <ele>516.80</ele>
        <time>2013-02-24T09:19:28Z</time>
      </trkpt>
      <trkpt lat="41.621910300" lon="2.493577300">
        <ele>516.40</ele>
        <time>2013-02-24T09:19:36Z</time>
      </trkpt>
      <trkpt lat="41.622057700" lon="2.493662200">
        <ele>516.40</ele>
        <time>2013-02-24T09:19:42Z</time>
      </trkpt>
      <trkpt lat="41.622192800" lon="2.493886500">
        <ele>514.90</ele>
        <time>2013-02-24T09:19:49Z</time>
      </trkpt>
      <trkpt lat="41.622363000" lon="2.493965900">
        <ele>514.90</ele>
        <time>2013-02-24T09:19:56Z</time>
      </trkpt>
      <trkpt lat="41.622566100" lon="2.493958200">
        <ele>514.40</ele>
        <time>2013-02-24T09:20:04Z</time>
      </trkpt>
      <trkpt lat="41.622750800" lon="2.494068600">
        <ele>514.00</ele>
        <time>2013-02-24T09:20:10Z</time>
      </trkpt>
      <trkpt lat="41.622967800" lon="2.494312700">
        <ele>514.00</ele>
        <time>2013-02-24T09:20:17Z</time>
      </trkpt>
      <trkpt lat="41.623088100" lon="2.494587300">
        <ele>515.40</ele>
        <time>2013-02-24T09:20:25Z</time>
      </trkpt>
      <trkpt lat="41.623166400" lon="2.494924600">
        <ele>514.90</ele>
        <time>2013-02-24T09:20:34Z</time>
      </trkpt>
      <trkpt lat="41.623197200" lon="2.495196300">
        <ele>515.40</ele>
        <time>2013-02-24T09:20:41Z</time>
      </trkpt>
      <trkpt lat="41.623121700" lon="2.495483500">
        <ele>515.90</ele>
        <time>2013-02-24T09:20:50Z</time>
      </trkpt>
      <trkpt lat="41.623112900" lon="2.495686900">
        <ele>516.40</ele>
        <time>2013-02-24T09:20:57Z</time>
      </trkpt>
      <trkpt lat="41.623208600" lon="2.495796500">
        <ele>517.30</ele>
        <time>2013-02-24T09:21:02Z</time>
      </trkpt>
      <trkpt lat="41.623295300" lon="2.495963400">
        <ele>518.30</ele>
        <time>2013-02-24T09:21:09Z</time>
      </trkpt>
      <trkpt lat="41.623398400" lon="2.496194600">
        <ele>518.80</ele>
        <time>2013-02-24T09:21:19Z</time>
      </trkpt>
      <trkpt lat="41.623545400" lon="2.496382100">
        <ele>519.70</ele>
        <time>2013-02-24T09:21:26Z</time>
      </trkpt>
      <trkpt lat="41.623730800" lon="2.496426300">
        <ele>519.70</ele>
        <time>2013-02-24T09:21:33Z</time>
      </trkpt>
      <trkpt lat="41.623928700" lon="2.496386600">
        <ele>518.80</ele>
        <time>2013-02-24T09:21:40Z</time>
      </trkpt>
      <trkpt lat="41.624090600" lon="2.496200900">
        <ele>516.80</ele>
        <time>2013-02-24T09:21:45Z</time>
      </trkpt>
      <trkpt lat="41.624161200" lon="2.496078900">
        <ele>516.40</ele>
        <time>2013-02-24T09:21:47Z</time>
      </trkpt>
      <trkpt lat="41.624242800" lon="2.495716500">
        <ele>515.40</ele>
        <time>2013-02-24T09:21:52Z</time>
      </trkpt>
      <trkpt lat="41.624207100" lon="2.495005900">
        <ele>514.40</ele>
        <time>2013-02-24T09:22:01Z</time>
      </trkpt>
      <trkpt lat="41.624210200" lon="2.494783300">
        <ele>512.50</ele>
        <time>2013-02-24T09:22:06Z</time>
      </trkpt>
      <trkpt lat="41.624296900" lon="2.494431900">
        <ele>512.00</ele>
        <time>2013-02-24T09:22:13Z</time>
      </trkpt>
      <trkpt lat="41.624179600" lon="2.494049500">
        <ele>512.00</ele>
        <time>2013-02-24T09:22:20Z</time>
      </trkpt>
      <trkpt lat="41.624118400" lon="2.493683100">
        <ele>511.60</ele>
        <time>2013-02-24T09:22:27Z</time>
      </trkpt>
      <trkpt lat="41.624064700" lon="2.493287900">
        <ele>511.60</ele>
        <time>2013-02-24T09:22:36Z</time>
      </trkpt>
      <trkpt lat="41.624025200" lon="2.492902900">
        <ele>511.60</ele>
        <time>2013-02-24T09:22:43Z</time>
      </trkpt>
      <trkpt lat="41.624072700" lon="2.492617800">
        <ele>511.10</ele>
        <time>2013-02-24T09:22:48Z</time>
      </trkpt>
      <trkpt lat="41.624244800" lon="2.492134200">
        <ele>511.10</ele>
        <time>2013-02-24T09:22:59Z</time>
      </trkpt>
      <trkpt lat="41.624297000" lon="2.491790500">
        <ele>512.00</ele>
        <time>2013-02-24T09:23:07Z</time>
      </trkpt>
      <trkpt lat="41.624309700" lon="2.491690300">
        <ele>512.00</ele>
        <time>2013-02-24T09:23:09Z</time>
      </trkpt>
      <trkpt lat="41.624342100" lon="2.491138800">
        <ele>514.00</ele>
        <time>2013-02-24T09:23:19Z</time>
      </trkpt>
      <trkpt lat="41.624424200" lon="2.490790500">
        <ele>515.90</ele>
        <time>2013-02-24T09:23:28Z</time>
      </trkpt>
      <trkpt lat="41.624551700" lon="2.490539800">
        <ele>514.90</ele>
        <time>2013-02-24T09:23:35Z</time>
      </trkpt>
      <trkpt lat="41.624682900" lon="2.490312000">
        <ele>515.40</ele>
        <time>2013-02-24T09:23:42Z</time>
      </trkpt>
      <trkpt lat="41.624854400" lon="2.490129000">
        <ele>514.40</ele>
        <time>2013-02-24T09:23:49Z</time>
      </trkpt>
      <trkpt lat="41.624935200" lon="2.490027100">
        <ele>514.90</ele>
        <time>2013-02-24T09:23:54Z</time>
      </trkpt>
      <trkpt lat="41.624954900" lon="2.490016300">
        <ele>514.40</ele>
        <time>2013-02-24T09:23:58Z</time>
      </trkpt>
      <trkpt lat="41.624972000" lon="2.490001300">
        <ele>514.90</ele>
        <time>2013-02-24T09:24:15Z</time>
      </trkpt>
      <trkpt lat="41.624968300" lon="2.489936300">
        <ele>514.40</ele>
        <time>2013-02-24T09:24:26Z</time>
      </trkpt>
      <trkpt lat="41.624972500" lon="2.489919300">
        <ele>514.40</ele>
        <time>2013-02-24T09:24:29Z</time>
      </trkpt>
      <trkpt lat="41.625010000" lon="2.489764300">
        <ele>514.00</ele>
        <time>2013-02-24T09:24:36Z</time>
      </trkpt>
      <trkpt lat="41.625019800" lon="2.489692600">
        <ele>514.00</ele>
        <time>2013-02-24T09:24:38Z</time>
      </trkpt>
      <trkpt lat="41.625083300" lon="2.489447200">
        <ele>514.40</ele>
        <time>2013-02-24T09:24:45Z</time>
      </trkpt>
      <trkpt lat="41.625122800" lon="2.489128600">
        <ele>515.40</ele>
        <time>2013-02-24T09:24:54Z</time>
      </trkpt>
      <trkpt lat="41.625164400" lon="2.488851900">
        <ele>515.40</ele>
        <time>2013-02-24T09:25:00Z</time>
      </trkpt>
      <trkpt lat="41.625234500" lon="2.488616100">
        <ele>515.90</ele>
        <time>2013-02-24T09:25:07Z</time>
      </trkpt>
      <trkpt lat="41.625222800" lon="2.488437700">
        <ele>516.40</ele>
        <time>2013-02-24T09:25:13Z</time>
      </trkpt>
      <trkpt lat="41.625199600" lon="2.488228600">
        <ele>516.80</ele>
        <time>2013-02-24T09:25:18Z</time>
      </trkpt>
      <trkpt lat="41.625141200" lon="2.488113800">
        <ele>518.30</ele>
        <time>2013-02-24T09:25:23Z</time>
      </trkpt>
      <trkpt lat="41.625101000" lon="2.488064200">
        <ele>518.80</ele>
        <time>2013-02-24T09:25:30Z</time>
      </trkpt>
      <trkpt lat="41.625097400" lon="2.488016000">
        <ele>519.20</ele>
        <time>2013-02-24T09:25:48Z</time>
      </trkpt>
      <trkpt lat="41.625100200" lon="2.487998200">
        <ele>518.80</ele>
        <time>2013-02-24T09:26:05Z</time>
      </trkpt>
      <trkpt lat="41.625089600" lon="2.487989300">
        <ele>519.20</ele>
        <time>2013-02-24T09:26:24Z</time>
      </trkpt>
      <trkpt lat="41.625088900" lon="2.487986200">
        <ele>519.20</ele>
        <time>2013-02-24T09:26:36Z</time>
      </trkpt>
      <trkpt lat="41.624974400" lon="2.488070900">
        <ele>518.80</ele>
        <time>2013-02-24T09:26:43Z</time>
      </trkpt>
      <trkpt lat="41.624901600" lon="2.488125700">
        <ele>518.80</ele>
        <time>2013-02-24T09:26:47Z</time>
      </trkpt>
      <trkpt lat="41.624786000" lon="2.488200400">
        <ele>518.80</ele>
        <time>2013-02-24T09:26:52Z</time>
      </trkpt>
      <trkpt lat="41.624613900" lon="2.488183900">
        <ele>519.70</ele>
        <time>2013-02-24T09:27:01Z</time>
      </trkpt>
      <trkpt lat="41.624486100" lon="2.488170200">
        <ele>520.70</ele>
        <time>2013-02-24T09:27:06Z</time>
      </trkpt>
      <trkpt lat="41.624309200" lon="2.488176900">
        <ele>522.10</ele>
        <time>2013-02-24T09:27:15Z</time>
      </trkpt>
      <trkpt lat="41.624189000" lon="2.488185500">
        <ele>523.10</ele>
        <time>2013-02-24T09:27:20Z</time>
      </trkpt>
      <trkpt lat="41.624130100" lon="2.488173100">
        <ele>523.60</ele>
        <time>2013-02-24T09:27:23Z</time>
      </trkpt>
      <trkpt lat="41.624039100" lon="2.488176200">
        <ele>524.10</ele>
        <time>2013-02-24T09:27:29Z</time>
      </trkpt>
      <trkpt lat="41.623996900" lon="2.488168000">
        <ele>525.00</ele>
        <time>2013-02-24T09:27:32Z</time>
      </trkpt>
      <trkpt lat="41.623912900" lon="2.488183100">
        <ele>526.00</ele>
        <time>2013-02-24T09:27:37Z</time>
      </trkpt>
      <trkpt lat="41.623838800" lon="2.488174400">
        <ele>526.50</ele>
        <time>2013-02-24T09:27:41Z</time>
      </trkpt>
      <trkpt lat="41.623694100" lon="2.488207000">
        <ele>528.40</ele>
        <time>2013-02-24T09:27:48Z</time>
      </trkpt>
      <trkpt lat="41.623580000" lon="2.488280700">
        <ele>529.80</ele>
        <time>2013-02-24T09:27:55Z</time>
      </trkpt>
      <trkpt lat="41.623566000" lon="2.488291500">
        <ele>529.80</ele>
        <time>2013-02-24T09:27:56Z</time>
      </trkpt>
      <trkpt lat="41.623432900" lon="2.488391600">
        <ele>531.80</ele>
        <time>2013-02-24T09:28:05Z</time>
      </trkpt>
      <trkpt lat="41.623300700" lon="2.488501900">
        <ele>533.70</ele>
        <time>2013-02-24T09:28:14Z</time>
      </trkpt>
      <trkpt lat="41.623242200" lon="2.488548500">
        <ele>534.60</ele>
        <time>2013-02-24T09:28:19Z</time>
      </trkpt>
      <trkpt lat="41.623171900" lon="2.488566400">
        <ele>535.60</ele>
        <time>2013-02-24T09:28:24Z</time>
      </trkpt>
      <trkpt lat="41.622985600" lon="2.488515900">
        <ele>532.20</ele>
        <time>2013-02-24T09:28:31Z</time>
      </trkpt>
      <trkpt lat="41.622887000" lon="2.488458100">
        <ele>530.80</ele>
        <time>2013-02-24T09:28:33Z</time>
      </trkpt>
      <trkpt lat="41.622729700" lon="2.488446400">
        <ele>527.90</ele>
        <time>2013-02-24T09:28:38Z</time>
      </trkpt>
      <trkpt lat="41.622700900" lon="2.488410900">
        <ele>527.40</ele>
        <time>2013-02-24T09:28:38Z</time>
      </trkpt>
      <trkpt lat="41.622654700" lon="2.488328400">
        <ele>526.50</ele>
        <time>2013-02-24T09:28:40Z</time>
      </trkpt>
      <trkpt lat="41.622592300" lon="2.488233300">
        <ele>524.50</ele>
        <time>2013-02-24T09:28:42Z</time>
      </trkpt>
      <trkpt lat="41.622371000" lon="2.488034600">
        <ele>521.70</ele>
        <time>2013-02-24T09:28:49Z</time>
      </trkpt>
      <trkpt lat="41.622249700" lon="2.487910200">
        <ele>519.70</ele>
        <time>2013-02-24T09:28:52Z</time>
      </trkpt>
      <trkpt lat="41.622272200" lon="2.487843500">
        <ele>518.80</ele>
        <time>2013-02-24T09:28:57Z</time>
      </trkpt>
      <trkpt lat="41.622293400" lon="2.487821800">
        <ele>518.80</ele>
        <time>2013-02-24T09:28:59Z</time>
      </trkpt>
      <trkpt lat="41.622423400" lon="2.487740600">
        <ele>518.80</ele>
        <time>2013-02-24T09:29:08Z</time>
      </trkpt>
      <trkpt lat="41.622555700" lon="2.487586900">
        <ele>519.70</ele>
        <time>2013-02-24T09:29:17Z</time>
      </trkpt>
      <trkpt lat="41.622632500" lon="2.487446300">
        <ele>521.70</ele>
        <time>2013-02-24T09:29:25Z</time>
      </trkpt>
      <trkpt lat="41.622690400" lon="2.487331300">
        <ele>522.10</ele>
        <time>2013-02-24T09:29:30Z</time>
      </trkpt>
      <trkpt lat="41.622773700" lon="2.487130000">
        <ele>524.10</ele>
        <time>2013-02-24T09:29:41Z</time>
      </trkpt>
      <trkpt lat="41.622840300" lon="2.486946900">
        <ele>526.50</ele>
        <time>2013-02-24T09:29:50Z</time>
      </trkpt>
      <trkpt lat="41.622863200" lon="2.486916600">
        <ele>526.90</ele>
        <time>2013-02-24T09:29:51Z</time>
      </trkpt>
      <trkpt lat="41.623020800" lon="2.486853200">
        <ele>527.40</ele>
        <time>2013-02-24T09:30:00Z</time>
      </trkpt>
      <trkpt lat="41.623114600" lon="2.486854600">
        <ele>527.90</ele>
        <time>2013-02-24T09:30:07Z</time>
      </trkpt>
      <trkpt lat="41.623233800" lon="2.486871600">
        <ele>529.30</ele>
        <time>2013-02-24T09:30:14Z</time>
      </trkpt>
      <trkpt lat="41.623268700" lon="2.486872300">
        <ele>529.80</ele>
        <time>2013-02-24T09:30:16Z</time>
      </trkpt>
      <trkpt lat="41.623419700" lon="2.486868900">
        <ele>531.30</ele>
        <time>2013-02-24T09:30:24Z</time>
      </trkpt>
      <trkpt lat="41.623547000" lon="2.486857800">
        <ele>532.70</ele>
        <time>2013-02-24T09:30:33Z</time>
      </trkpt>
      <trkpt lat="41.623698200" lon="2.486802800">
        <ele>533.70</ele>
        <time>2013-02-24T09:30:42Z</time>
      </trkpt>
      <trkpt lat="41.623844500" lon="2.486757300">
        <ele>535.60</ele>
        <time>2013-02-24T09:30:51Z</time>
      </trkpt>
      <trkpt lat="41.623985700" lon="2.486847500">
        <ele>537.00</ele>
        <time>2013-02-24T09:30:59Z</time>
      </trkpt>
      <trkpt lat="41.624083600" lon="2.486923000">
        <ele>539.00</ele>
        <time>2013-02-24T09:31:06Z</time>
      </trkpt>
      <trkpt lat="41.624224000" lon="2.487012500">
        <ele>539.00</ele>
        <time>2013-02-24T09:31:15Z</time>
      </trkpt>
      <trkpt lat="41.624398200" lon="2.487097000">
        <ele>539.00</ele>
        <time>2013-02-24T09:31:24Z</time>
      </trkpt>
      <trkpt lat="41.624522600" lon="2.487154700">
        <ele>539.40</ele>
        <time>2013-02-24T09:31:31Z</time>
      </trkpt>
      <trkpt lat="41.624684500" lon="2.487276000">
        <ele>537.50</ele>
        <time>2013-02-24T09:31:38Z</time>
      </trkpt>
      <trkpt lat="41.624810400" lon="2.487242300">
        <ele>536.10</ele>
        <time>2013-02-24T09:31:43Z</time>
      </trkpt>
      <trkpt lat="41.624873600" lon="2.487098600">
        <ele>537.50</ele>
        <time>2013-02-24T09:31:48Z</time>
      </trkpt>
      <trkpt lat="41.624874900" lon="2.487039500">
        <ele>538.00</ele>
        <time>2013-02-24T09:31:52Z</time>
      </trkpt>
      <trkpt lat="41.624842200" lon="2.486952400">
        <ele>539.90</ele>
        <time>2013-02-24T09:31:57Z</time>
      </trkpt>
      <trkpt lat="41.624828800" lon="2.486917300">
        <ele>540.40</ele>
        <time>2013-02-24T09:31:59Z</time>
      </trkpt>
      <trkpt lat="41.624836300" lon="2.486724800">
        <ele>541.80</ele>
        <time>2013-02-24T09:32:09Z</time>
      </trkpt>
      <trkpt lat="41.624839100" lon="2.486567100">
        <ele>543.30</ele>
        <time>2013-02-24T09:32:16Z</time>
      </trkpt>
      <trkpt lat="41.624828100" lon="2.486391300">
        <ele>545.70</ele>
        <time>2013-02-24T09:32:25Z</time>
      </trkpt>
      <trkpt lat="41.624820100" lon="2.486334800">
        <ele>546.70</ele>
        <time>2013-02-24T09:32:28Z</time>
      </trkpt>
      <trkpt lat="41.624814000" lon="2.486222400">
        <ele>548.60</ele>
        <time>2013-02-24T09:32:35Z</time>
      </trkpt>
      <trkpt lat="41.624838300" lon="2.486053600">
        <ele>550.50</ele>
        <time>2013-02-24T09:32:44Z</time>
      </trkpt>
      <trkpt lat="41.624841000" lon="2.485961800">
        <ele>551.90</ele>
        <time>2013-02-24T09:32:49Z</time>
      </trkpt>
      <trkpt lat="41.624840900" lon="2.485944400">
        <ele>552.40</ele>
        <time>2013-02-24T09:32:49Z</time>
      </trkpt>
      <trkpt lat="41.624838100" lon="2.485750400">
        <ele>555.30</ele>
        <time>2013-02-24T09:33:01Z</time>
      </trkpt>
      <trkpt lat="41.624867100" lon="2.485605200">
        <ele>557.20</ele>
        <time>2013-02-24T09:33:08Z</time>
      </trkpt>
      <trkpt lat="41.624897400" lon="2.485464000">
        <ele>558.20</ele>
        <time>2013-02-24T09:33:17Z</time>
      </trkpt>
      <trkpt lat="41.624903300" lon="2.485326300">
        <ele>559.10</ele>
        <time>2013-02-24T09:33:24Z</time>
      </trkpt>
      <trkpt lat="41.624911100" lon="2.485257500">
        <ele>560.60</ele>
        <time>2013-02-24T09:33:27Z</time>
      </trkpt>
      <trkpt lat="41.624949700" lon="2.485065000">
        <ele>561.50</ele>
        <time>2013-02-24T09:33:38Z</time>
      </trkpt>
      <trkpt lat="41.624978500" lon="2.484940400">
        <ele>561.10</ele>
        <time>2013-02-24T09:33:43Z</time>
      </trkpt>
      <trkpt lat="41.624992000" lon="2.484827800">
        <ele>561.10</ele>
        <time>2013-02-24T09:33:48Z</time>
      </trkpt>
      <trkpt lat="41.624965100" lon="2.484579100">
        <ele>562.00</ele>
        <time>2013-02-24T09:33:59Z</time>
      </trkpt>
      <trkpt lat="41.624979200" lon="2.484372200">
        <ele>562.50</ele>
        <time>2013-02-24T09:34:06Z</time>
      </trkpt>
      <trkpt lat="41.625060600" lon="2.484177000">
        <ele>563.50</ele>
        <time>2013-02-24T09:34:16Z</time>
      </trkpt>
      <trkpt lat="41.625091400" lon="2.484006800">
        <ele>564.90</ele>
        <time>2013-02-24T09:34:25Z</time>
      </trkpt>
      <trkpt lat="41.625094900" lon="2.483968500">
        <ele>565.40</ele>
        <time>2013-02-24T09:34:30Z</time>
      </trkpt>
      <trkpt lat="41.625091100" lon="2.483938900">
        <ele>565.40</ele>
        <time>2013-02-24T09:34:39Z</time>
      </trkpt>
      <trkpt lat="41.625095200" lon="2.483918100">
        <ele>565.40</ele>
        <time>2013-02-24T09:34:46Z</time>
      </trkpt>
      <trkpt lat="41.625108200" lon="2.483869500">
        <ele>565.90</ele>
        <time>2013-02-24T09:34:51Z</time>
      </trkpt>
      <trkpt lat="41.625158400" lon="2.483856400">
        <ele>566.30</ele>
        <time>2013-02-24T09:34:56Z</time>
      </trkpt>
      <trkpt lat="41.625269800" lon="2.483892300">
        <ele>568.30</ele>
        <time>2013-02-24T09:35:05Z</time>
      </trkpt>
      <trkpt lat="41.625331200" lon="2.483916000">
        <ele>569.20</ele>
        <time>2013-02-24T09:35:10Z</time>
      </trkpt>
      <trkpt lat="41.625432300" lon="2.484029200">
        <ele>570.70</ele>
        <time>2013-02-24T09:35:19Z</time>
      </trkpt>
      <trkpt lat="41.625458900" lon="2.484175000">
        <ele>570.70</ele>
        <time>2013-02-24T09:35:26Z</time>
      </trkpt>
      <trkpt lat="41.625383400" lon="2.484281400">
        <ele>570.70</ele>
        <time>2013-02-24T09:35:33Z</time>
      </trkpt>
      <trkpt lat="41.625285800" lon="2.484366100">
        <ele>572.60</ele>
        <time>2013-02-24T09:35:42Z</time>
      </trkpt>
      <trkpt lat="41.625257000" lon="2.484399800">
        <ele>573.10</ele>
        <time>2013-02-24T09:35:45Z</time>
      </trkpt>
      <trkpt lat="41.625274700" lon="2.484531000">
        <ele>574.00</ele>
        <time>2013-02-24T09:35:52Z</time>
      </trkpt>
      <trkpt lat="41.625298300" lon="2.484537700">
        <ele>574.50</ele>
        <time>2013-02-24T09:35:54Z</time>
      </trkpt>
      <trkpt lat="41.625450300" lon="2.484536300">
        <ele>576.50</ele>
        <time>2013-02-24T09:36:06Z</time>
      </trkpt>
      <trkpt lat="41.625555300" lon="2.484478700">
        <ele>578.40</ele>
        <time>2013-02-24T09:36:13Z</time>
      </trkpt>
      <trkpt lat="41.625568000" lon="2.484470500">
        <ele>578.40</ele>
        <time>2013-02-24T09:36:15Z</time>
      </trkpt>
      <trkpt lat="41.625605100" lon="2.484433000">
        <ele>578.80</ele>
        <time>2013-02-24T09:36:18Z</time>
      </trkpt>
      <trkpt lat="41.625693100" lon="2.484373200">
        <ele>579.30</ele>
        <time>2013-02-24T09:36:23Z</time>
      </trkpt>
      <trkpt lat="41.625852200" lon="2.484279200">
        <ele>580.30</ele>
        <time>2013-02-24T09:36:34Z</time>
      </trkpt>
      <trkpt lat="41.625969100" lon="2.484163300">
        <ele>582.20</ele>
        <time>2013-02-24T09:36:44Z</time>
      </trkpt>
      <trkpt lat="41.626078600" lon="2.484045400">
        <ele>584.10</ele>
        <time>2013-02-24T09:36:53Z</time>
      </trkpt>
      <trkpt lat="41.626178100" lon="2.483929700">
        <ele>587.00</ele>
        <time>2013-02-24T09:37:02Z</time>
      </trkpt>
      <trkpt lat="41.626207400" lon="2.483899100">
        <ele>588.00</ele>
        <time>2013-02-24T09:37:03Z</time>
      </trkpt>
      <trkpt lat="41.626332900" lon="2.483797600">
        <ele>589.90</ele>
        <time>2013-02-24T09:37:12Z</time>
      </trkpt>
      <trkpt lat="41.626410000" lon="2.483733600">
        <ele>590.90</ele>
        <time>2013-02-24T09:37:19Z</time>
      </trkpt>
      <trkpt lat="41.626495300" lon="2.483584900">
        <ele>589.90</ele>
        <time>2013-02-24T09:37:26Z</time>
      </trkpt>
      <trkpt lat="41.626549300" lon="2.483375800">
        <ele>589.40</ele>
        <time>2013-02-24T09:37:33Z</time>
      </trkpt>
      <trkpt lat="41.626598700" lon="2.483143100">
        <ele>588.50</ele>
        <time>2013-02-24T09:37:40Z</time>
      </trkpt>
      <trkpt lat="41.626613600" lon="2.483105000">
        <ele>588.50</ele>
        <time>2013-02-24T09:37:47Z</time>
      </trkpt>
      <trkpt lat="41.626618800" lon="2.483105800">
        <ele>588.50</ele>
        <time>2013-02-24T09:37:57Z</time>
      </trkpt>
      <trkpt lat="41.626648300" lon="2.483059200">
        <ele>588.50</ele>
        <time>2013-02-24T09:38:15Z</time>
      </trkpt>
      <trkpt lat="41.626641100" lon="2.483045700">
        <ele>588.50</ele>
        <time>2013-02-24T09:38:25Z</time>
      </trkpt>
      <trkpt lat="41.626639000" lon="2.483034200">
        <ele>588.50</ele>
        <time>2013-02-24T09:38:41Z</time>
      </trkpt>
      <trkpt lat="41.626641500" lon="2.483007400">
        <ele>588.50</ele>
        <time>2013-02-24T09:38:48Z</time>
      </trkpt>
      <trkpt lat="41.626647100" lon="2.482985100">
        <ele>588.50</ele>
        <time>2013-02-24T09:38:57Z</time>
      </trkpt>
      <trkpt lat="41.626640800" lon="2.482993300">
        <ele>588.50</ele>
        <time>2013-02-24T09:39:07Z</time>
      </trkpt>
      <trkpt lat="41.626649200" lon="2.483017700">
        <ele>588.50</ele>
        <time>2013-02-24T09:39:18Z</time>
      </trkpt>
      <trkpt lat="41.626666900" lon="2.483032500">
        <ele>588.50</ele>
        <time>2013-02-24T09:39:40Z</time>
      </trkpt>
      <trkpt lat="41.626690200" lon="2.483067300">
        <ele>588.50</ele>
        <time>2013-02-24T09:39:56Z</time>
      </trkpt>
      <trkpt lat="41.626735900" lon="2.483072400">
        <ele>588.50</ele>
        <time>2013-02-24T09:40:01Z</time>
      </trkpt>
      <trkpt lat="41.626843300" lon="2.483152600">
        <ele>589.40</ele>
        <time>2013-02-24T09:40:08Z</time>
      </trkpt>
      <trkpt lat="41.626867900" lon="2.483173200">
        <ele>589.90</ele>
        <time>2013-02-24T09:40:10Z</time>
      </trkpt>
      <trkpt lat="41.626995200" lon="2.483176900">
        <ele>591.80</ele>
        <time>2013-02-24T09:40:20Z</time>
      </trkpt>
      <trkpt lat="41.627100100" lon="2.483078800">
        <ele>593.80</ele>
        <time>2013-02-24T09:40:29Z</time>
      </trkpt>
      <trkpt lat="41.627216000" lon="2.482966400">
        <ele>596.20</ele>
        <time>2013-02-24T09:40:39Z</time>
      </trkpt>
      <trkpt lat="41.627254300" lon="2.482938000">
        <ele>596.60</ele>
        <time>2013-02-24T09:40:43Z</time>
      </trkpt>
      <trkpt lat="41.627364400" lon="2.482876300">
        <ele>599.50</ele>
        <time>2013-02-24T09:40:52Z</time>
      </trkpt>
      <trkpt lat="41.627482000" lon="2.482851100">
        <ele>601.40</ele>
        <time>2013-02-24T09:41:00Z</time>
      </trkpt>
      <trkpt lat="41.627591700" lon="2.482909000">
        <ele>603.80</ele>
        <time>2013-02-24T09:41:09Z</time>
      </trkpt>
      <trkpt lat="41.627688500" lon="2.482985900">
        <ele>604.30</ele>
        <time>2013-02-24T09:41:18Z</time>
      </trkpt>
      <trkpt lat="41.627794800" lon="2.482972800">
        <ele>605.80</ele>
        <time>2013-02-24T09:41:25Z</time>
      </trkpt>
      <trkpt lat="41.627815600" lon="2.482914800">
        <ele>606.70</ele>
        <time>2013-02-24T09:41:30Z</time>
      </trkpt>
      <trkpt lat="41.627811000" lon="2.482779100">
        <ele>608.20</ele>
        <time>2013-02-24T09:41:39Z</time>
      </trkpt>
      <trkpt lat="41.627792000" lon="2.482721900">
        <ele>608.70</ele>
        <time>2013-02-24T09:41:42Z</time>
      </trkpt>
      <trkpt lat="41.627722400" lon="2.482603300">
        <ele>609.60</ele>
        <time>2013-02-24T09:41:51Z</time>
      </trkpt>
      <trkpt lat="41.627682200" lon="2.482541700">
        <ele>610.10</ele>
        <time>2013-02-24T09:41:56Z</time>
      </trkpt>
      <trkpt lat="41.627625600" lon="2.482464600">
        <ele>610.10</ele>
        <time>2013-02-24T09:42:03Z</time>
      </trkpt>
      <trkpt lat="41.627554100" lon="2.482296600">
        <ele>611.50</ele>
        <time>2013-02-24T09:42:12Z</time>
      </trkpt>
      <trkpt lat="41.627528200" lon="2.482126700">
        <ele>613.00</ele>
        <time>2013-02-24T09:42:22Z</time>
      </trkpt>
      <trkpt lat="41.627482800" lon="2.481916700">
        <ele>614.90</ele>
        <time>2013-02-24T09:42:33Z</time>
      </trkpt>
      <trkpt lat="41.627427400" lon="2.481787300">
        <ele>616.30</ele>
        <time>2013-02-24T09:42:38Z</time>
      </trkpt>
      <trkpt lat="41.627301300" lon="2.481621900">
        <ele>618.30</ele>
        <time>2013-02-24T09:42:45Z</time>
      </trkpt>
      <trkpt lat="41.627252400" lon="2.481583500">
        <ele>618.80</ele>
        <time>2013-02-24T09:42:48Z</time>
      </trkpt>
      <trkpt lat="41.627200100" lon="2.481550500">
        <ele>619.20</ele>
        <time>2013-02-24T09:42:54Z</time>
      </trkpt>
      <trkpt lat="41.627163200" lon="2.481525600">
        <ele>619.20</ele>
        <time>2013-02-24T09:43:07Z</time>
      </trkpt>
      <trkpt lat="41.627112800" lon="2.481503300">
        <ele>619.70</ele>
        <time>2013-02-24T09:43:16Z</time>
      </trkpt>
      <trkpt lat="41.627092400" lon="2.481496900">
        <ele>620.20</ele>
        <time>2013-02-24T09:43:32Z</time>
      </trkpt>
      <trkpt lat="41.627081900" lon="2.481487100">
        <ele>620.20</ele>
        <time>2013-02-24T09:43:37Z</time>
      </trkpt>
      <trkpt lat="41.626978300" lon="2.481431700">
        <ele>621.60</ele>
        <time>2013-02-24T09:43:46Z</time>
      </trkpt>
      <trkpt lat="41.626821600" lon="2.481407200">
        <ele>623.10</ele>
        <time>2013-02-24T09:43:56Z</time>
      </trkpt>
      <trkpt lat="41.626709700" lon="2.481428700">
        <ele>625.00</ele>
        <time>2013-02-24T09:44:03Z</time>
      </trkpt>
      <trkpt lat="41.626558200" lon="2.481423300">
        <ele>627.40</ele>
        <time>2013-02-24T09:44:12Z</time>
      </trkpt>
      <trkpt lat="41.626453800" lon="2.481286800">
        <ele>629.30</ele>
        <time>2013-02-24T09:44:19Z</time>
      </trkpt>
      <trkpt lat="41.626330700" lon="2.481178900">
        <ele>631.20</ele>
        <time>2013-02-24T09:44:28Z</time>
      </trkpt>
      <trkpt lat="41.626215300" lon="2.481141100">
        <ele>632.70</ele>
        <time>2013-02-24T09:44:35Z</time>
      </trkpt>
      <trkpt lat="41.626068600" lon="2.481103200">
        <ele>634.10</ele>
        <time>2013-02-24T09:44:43Z</time>
      </trkpt>
      <trkpt lat="41.625963900" lon="2.480988000">
        <ele>635.10</ele>
        <time>2013-02-24T09:44:50Z</time>
      </trkpt>
      <trkpt lat="41.625892000" lon="2.480783300">
        <ele>637.00</ele>
        <time>2013-02-24T09:44:59Z</time>
      </trkpt>
      <trkpt lat="41.625832200" lon="2.480620900">
        <ele>638.50</ele>
        <time>2013-02-24T09:45:08Z</time>
      </trkpt>
      <trkpt lat="41.625793700" lon="2.480432700">
        <ele>640.40</ele>
        <time>2013-02-24T09:45:16Z</time>
      </trkpt>
      <trkpt lat="41.625829700" lon="2.480231300">
        <ele>642.80</ele>
        <time>2013-02-24T09:45:27Z</time>
      </trkpt>
      <trkpt lat="41.625862500" lon="2.480066500">
        <ele>643.70</ele>
        <time>2013-02-24T09:45:34Z</time>
      </trkpt>
      <trkpt lat="41.625898500" lon="2.479980400">
        <ele>643.70</ele>
        <time>2013-02-24T09:45:39Z</time>
      </trkpt>
      <trkpt lat="41.625992500" lon="2.479869500">
        <ele>643.70</ele>
        <time>2013-02-24T09:45:46Z</time>
      </trkpt>
      <trkpt lat="41.626145000" lon="2.479791000">
        <ele>642.80</ele>
        <time>2013-02-24T09:45:55Z</time>
      </trkpt>
      <trkpt lat="41.626257300" lon="2.479748800">
        <ele>642.80</ele>
        <time>2013-02-24T09:46:03Z</time>
      </trkpt>
      <trkpt lat="41.626265500" lon="2.479736300">
        <ele>642.80</ele>
        <time>2013-02-24T09:46:10Z</time>
      </trkpt>
      <trkpt lat="41.626243900" lon="2.479744100">
        <ele>642.30</ele>
        <time>2013-02-24T09:46:17Z</time>
      </trkpt>
      <trkpt lat="41.626248600" lon="2.479784400">
        <ele>642.80</ele>
        <time>2013-02-24T09:46:24Z</time>
      </trkpt>
      <trkpt lat="41.626231100" lon="2.479800400">
        <ele>642.80</ele>
        <time>2013-02-24T09:46:31Z</time>
      </trkpt>
      <trkpt lat="41.626230100" lon="2.479810600">
        <ele>642.30</ele>
        <time>2013-02-24T09:46:52Z</time>
      </trkpt>
      <trkpt lat="41.626232800" lon="2.479827300">
        <ele>642.30</ele>
        <time>2013-02-24T09:47:11Z</time>
      </trkpt>
      <trkpt lat="41.626256400" lon="2.479823800">
        <ele>642.80</ele>
        <time>2013-02-24T09:47:22Z</time>
      </trkpt>
      <trkpt lat="41.626260300" lon="2.479829000">
        <ele>642.80</ele>
        <time>2013-02-24T09:47:22Z</time>
      </trkpt>
      <trkpt lat="41.626199200" lon="2.479921200">
        <ele>643.30</ele>
        <time>2013-02-24T09:47:32Z</time>
      </trkpt>
      <trkpt lat="41.626161000" lon="2.479921800">
        <ele>643.30</ele>
        <time>2013-02-24T09:47:39Z</time>
      </trkpt>
      <trkpt lat="41.626155000" lon="2.479929900">
        <ele>643.30</ele>
        <time>2013-02-24T09:47:50Z</time>
      </trkpt>
      <trkpt lat="41.626159800" lon="2.479935500">
        <ele>643.30</ele>
        <time>2013-02-24T09:48:19Z</time>
      </trkpt>
      <trkpt lat="41.626179300" lon="2.479928300">
        <ele>643.30</ele>
        <time>2013-02-24T09:48:47Z</time>
      </trkpt>
      <trkpt lat="41.626155900" lon="2.479927700">
        <ele>642.80</ele>
        <time>2013-02-24T09:49:06Z</time>
      </trkpt>
      <trkpt lat="41.626151700" lon="2.479934500">
        <ele>642.80</ele>
        <time>2013-02-24T09:49:32Z</time>
      </trkpt>
      <trkpt lat="41.626167300" lon="2.479934800">
        <ele>642.80</ele>
        <time>2013-02-24T09:49:34Z</time>
      </trkpt>
      <trkpt lat="41.626238400" lon="2.479933800">
        <ele>642.30</ele>
        <time>2013-02-24T09:49:43Z</time>
      </trkpt>
      <trkpt lat="41.626246000" lon="2.479938400">
        <ele>642.30</ele>
        <time>2013-02-24T09:49:53Z</time>
      </trkpt>
      <trkpt lat="41.626240900" lon="2.479915400">
        <ele>641.80</ele>
        <time>2013-02-24T09:50:12Z</time>
      </trkpt>
      <trkpt lat="41.626240200" lon="2.479932100">
        <ele>641.80</ele>
        <time>2013-02-24T09:50:30Z</time>
      </trkpt>
      <trkpt lat="41.626247700" lon="2.479923200">
        <ele>641.80</ele>
        <time>2013-02-24T09:50:33Z</time>
      </trkpt>
      <trkpt lat="41.626262400" lon="2.479881700">
        <ele>642.30</ele>
        <time>2013-02-24T09:50:35Z</time>
      </trkpt>
      <trkpt lat="41.626260800" lon="2.479824900">
        <ele>642.30</ele>
        <time>2013-02-24T09:50:39Z</time>
      </trkpt>
      <trkpt lat="41.626193600" lon="2.479781200">
        <ele>641.30</ele>
        <time>2013-02-24T09:50:44Z</time>
      </trkpt>
      <trkpt lat="41.626106600" lon="2.479705100">
        <ele>640.90</ele>
        <time>2013-02-24T09:50:51Z</time>
      </trkpt>
      <trkpt lat="41.625999700" lon="2.479657200">
        <ele>640.40</ele>
        <time>2013-02-24T09:50:58Z</time>
      </trkpt>
      <trkpt lat="41.625984900" lon="2.479664400">
        <ele>640.40</ele>
        <time>2013-02-24T09:51:01Z</time>
      </trkpt>
      <trkpt lat="41.625964100" lon="2.479766400">
        <ele>640.40</ele>
        <time>2013-02-24T09:51:06Z</time>
      </trkpt>
      <trkpt lat="41.625933100" lon="2.479809700">
        <ele>640.90</ele>
        <time>2013-02-24T09:51:10Z</time>
      </trkpt>
      <trkpt lat="41.625900000" lon="2.479914400">
        <ele>641.80</ele>
        <time>2013-02-24T09:51:17Z</time>
      </trkpt>
      <trkpt lat="41.625837600" lon="2.479899200">
        <ele>643.30</ele>
        <time>2013-02-24T09:51:20Z</time>
      </trkpt>
      <trkpt lat="41.625797900" lon="2.479794000">
        <ele>642.80</ele>
        <time>2013-02-24T09:51:27Z</time>
      </trkpt>
      <trkpt lat="41.625765900" lon="2.479682000">
        <ele>642.30</ele>
        <time>2013-02-24T09:51:34Z</time>
      </trkpt>
      <trkpt lat="41.625754600" lon="2.479662800">
        <ele>642.30</ele>
        <time>2013-02-24T09:51:36Z</time>
      </trkpt>
      <trkpt lat="41.625723600" lon="2.479627600">
        <ele>641.80</ele>
        <time>2013-02-24T09:51:40Z</time>
      </trkpt>
      <trkpt lat="41.625687900" lon="2.479546800">
        <ele>640.90</ele>
        <time>2013-02-24T09:51:45Z</time>
      </trkpt>
      <trkpt lat="41.625660700" lon="2.479475900">
        <ele>640.40</ele>
        <time>2013-02-24T09:51:48Z</time>
      </trkpt>
      <trkpt lat="41.625510500" lon="2.479375600">
        <ele>638.50</ele>
        <time>2013-02-24T09:51:55Z</time>
      </trkpt>
      <trkpt lat="41.625359400" lon="2.479327500">
        <ele>638.50</ele>
        <time>2013-02-24T09:52:04Z</time>
      </trkpt>
      <trkpt lat="41.625224300" lon="2.479265500">
        <ele>638.50</ele>
        <time>2013-02-24T09:52:13Z</time>
      </trkpt>
      <trkpt lat="41.625162700" lon="2.479165900">
        <ele>638.50</ele>
        <time>2013-02-24T09:52:18Z</time>
      </trkpt>
      <trkpt lat="41.625052600" lon="2.479019000">
        <ele>637.50</ele>
        <time>2013-02-24T09:52:25Z</time>
      </trkpt>
      <trkpt lat="41.625035400" lon="2.478996700">
        <ele>637.50</ele>
        <time>2013-02-24T09:52:27Z</time>
      </trkpt>
      <trkpt lat="41.624853800" lon="2.478805600">
        <ele>636.50</ele>
        <time>2013-02-24T09:52:35Z</time>
      </trkpt>
      <trkpt lat="41.624786000" lon="2.478676600">
        <ele>636.50</ele>
        <time>2013-02-24T09:52:41Z</time>
      </trkpt>
      <trkpt lat="41.624660500" lon="2.478479800">
        <ele>637.00</ele>
        <time>2013-02-24T09:52:49Z</time>
      </trkpt>
      <trkpt lat="41.624530400" lon="2.478324800">
        <ele>637.00</ele>
        <time>2013-02-24T09:52:56Z</time>
      </trkpt>
      <trkpt lat="41.624423100" lon="2.478167200">
        <ele>637.00</ele>
        <time>2013-02-24T09:53:03Z</time>
      </trkpt>
      <trkpt lat="41.624304300" lon="2.477956300">
        <ele>634.60</ele>
        <time>2013-02-24T09:53:10Z</time>
      </trkpt>
      <trkpt lat="41.624211800" lon="2.477764300">
        <ele>632.20</ele>
        <time>2013-02-24T09:53:15Z</time>
      </trkpt>
      <trkpt lat="41.624157800" lon="2.477597000">
        <ele>630.30</ele>
        <time>2013-02-24T09:53:21Z</time>
      </trkpt>
      <trkpt lat="41.624140500" lon="2.477425000">
        <ele>628.80</ele>
        <time>2013-02-24T09:53:26Z</time>
      </trkpt>
      <trkpt lat="41.624136700" lon="2.477396300">
        <ele>628.80</ele>
        <time>2013-02-24T09:53:26Z</time>
      </trkpt>
      <trkpt lat="41.624127600" lon="2.477187200">
        <ele>626.90</ele>
        <time>2013-02-24T09:53:33Z</time>
      </trkpt>
      <trkpt lat="41.624126100" lon="2.477001800">
        <ele>625.50</ele>
        <time>2013-02-24T09:53:40Z</time>
      </trkpt>
      <trkpt lat="41.624106500" lon="2.476781700">
        <ele>622.60</ele>
        <time>2013-02-24T09:53:45Z</time>
      </trkpt>
      <trkpt lat="41.624089300" lon="2.476583500">
        <ele>620.20</ele>
        <time>2013-02-24T09:53:52Z</time>
      </trkpt>
      <trkpt lat="41.624086400" lon="2.476558700">
        <ele>619.70</ele>
        <time>2013-02-24T09:53:54Z</time>
      </trkpt>
      <trkpt lat="41.624061900" lon="2.476371700">
        <ele>617.80</ele>
        <time>2013-02-24T09:54:02Z</time>
      </trkpt>
      <trkpt lat="41.624053300" lon="2.476157400">
        <ele>615.90</ele>
        <time>2013-02-24T09:54:09Z</time>
      </trkpt>
      <trkpt lat="41.624052500" lon="2.475981500">
        <ele>614.90</ele>
        <time>2013-02-24T09:54:15Z</time>
      </trkpt>
      <trkpt lat="41.623998500" lon="2.475760900">
        <ele>613.90</ele>
        <time>2013-02-24T09:54:23Z</time>
      </trkpt>
      <trkpt lat="41.623965500" lon="2.475627500">
        <ele>612.00</ele>
        <time>2013-02-24T09:54:29Z</time>
      </trkpt>
      <trkpt lat="41.623898700" lon="2.475513500">
        <ele>609.60</ele>
        <time>2013-02-24T09:54:35Z</time>
      </trkpt>
      <trkpt lat="41.623810300" lon="2.475272800">
        <ele>606.70</ele>
        <time>2013-02-24T09:54:44Z</time>
      </trkpt>
      <trkpt lat="41.623801000" lon="2.475206100">
        <ele>605.80</ele>
        <time>2013-02-24T09:54:46Z</time>
      </trkpt>
      <trkpt lat="41.623770100" lon="2.474995700">
        <ele>603.40</ele>
        <time>2013-02-24T09:54:51Z</time>
      </trkpt>
      <trkpt lat="41.623704900" lon="2.474787100">
        <ele>600.50</ele>
        <time>2013-02-24T09:55:00Z</time>
      </trkpt>
      <trkpt lat="41.623683700" lon="2.474724100">
        <ele>599.00</ele>
        <time>2013-02-24T09:55:03Z</time>
      </trkpt>
      <trkpt lat="41.623637200" lon="2.474602400">
        <ele>597.10</ele>
        <time>2013-02-24T09:55:10Z</time>
      </trkpt>
      <trkpt lat="41.623578500" lon="2.474535900">
        <ele>595.70</ele>
        <time>2013-02-24T09:55:16Z</time>
      </trkpt>
      <trkpt lat="41.623446900" lon="2.474481500">
        <ele>593.30</ele>
        <time>2013-02-24T09:55:23Z</time>
      </trkpt>
      <trkpt lat="41.623337500" lon="2.474469400">
        <ele>591.30</ele>
        <time>2013-02-24T09:55:28Z</time>
      </trkpt>
      <trkpt lat="41.623177000" lon="2.474337000">
        <ele>588.50</ele>
        <time>2013-02-24T09:55:35Z</time>
      </trkpt>
      <trkpt lat="41.623030000" lon="2.474260300">
        <ele>586.50</ele>
        <time>2013-02-24T09:55:42Z</time>
      </trkpt>
      <trkpt lat="41.622910600" lon="2.474215200">
        <ele>583.20</ele>
        <time>2013-02-24T09:55:47Z</time>
      </trkpt>
      <trkpt lat="41.622867500" lon="2.474177800">
        <ele>582.20</ele>
        <time>2013-02-24T09:55:52Z</time>
      </trkpt>
      <trkpt lat="41.622837400" lon="2.474196800">
        <ele>581.70</ele>
        <time>2013-02-24T09:55:54Z</time>
      </trkpt>
      <trkpt lat="41.622760800" lon="2.474310000">
        <ele>578.80</ele>
        <time>2013-02-24T09:56:03Z</time>
      </trkpt>
      <trkpt lat="41.622743200" lon="2.474337500">
        <ele>578.40</ele>
        <time>2013-02-24T09:56:04Z</time>
      </trkpt>
      <trkpt lat="41.622652700" lon="2.474340100">
        <ele>576.50</ele>
        <time>2013-02-24T09:56:11Z</time>
      </trkpt>
      <trkpt lat="41.622596200" lon="2.474265900">
        <ele>576.00</ele>
        <time>2013-02-24T09:56:17Z</time>
      </trkpt>
      <trkpt lat="41.622543900" lon="2.474190100">
        <ele>574.50</ele>
        <time>2013-02-24T09:56:22Z</time>
      </trkpt>
      <trkpt lat="41.622474300" lon="2.474049700">
        <ele>573.10</ele>
        <time>2013-02-24T09:56:29Z</time>
      </trkpt>
      <trkpt lat="41.622416100" lon="2.473866700">
        <ele>572.10</ele>
        <time>2013-02-24T09:56:36Z</time>
      </trkpt>
      <trkpt lat="41.622394200" lon="2.473767800">
        <ele>571.60</ele>
        <time>2013-02-24T09:56:39Z</time>
      </trkpt>
      <trkpt lat="41.622320300" lon="2.473609700">
        <ele>569.70</ele>
        <time>2013-02-24T09:56:46Z</time>
      </trkpt>
      <trkpt lat="41.622322600" lon="2.473595600">
        <ele>569.70</ele>
        <time>2013-02-24T09:56:53Z</time>
      </trkpt>
      <trkpt lat="41.622300600" lon="2.473569300">
        <ele>569.70</ele>
        <time>2013-02-24T09:57:11Z</time>
      </trkpt>
      <trkpt lat="41.622281200" lon="2.473544700">
        <ele>569.20</ele>
        <time>2013-02-24T09:57:19Z</time>
      </trkpt>
      <trkpt lat="41.622161200" lon="2.473561000">
        <ele>567.80</ele>
        <time>2013-02-24T09:57:26Z</time>
      </trkpt>
      <trkpt lat="41.622020200" lon="2.473490500">
        <ele>564.90</ele>
        <time>2013-02-24T09:57:31Z</time>
      </trkpt>
      <trkpt lat="41.621926600" lon="2.473468900">
        <ele>563.50</ele>
        <time>2013-02-24T09:57:35Z</time>
      </trkpt>
      <trkpt lat="41.621743400" lon="2.473465700">
        <ele>561.50</ele>
        <time>2013-02-24T09:57:40Z</time>
      </trkpt>
      <trkpt lat="41.621557300" lon="2.473372900">
        <ele>559.10</ele>
        <time>2013-02-24T09:57:47Z</time>
      </trkpt>
      <trkpt lat="41.621473000" lon="2.473292800">
        <ele>558.70</ele>
        <time>2013-02-24T09:57:52Z</time>
      </trkpt>
      <trkpt lat="41.621301800" lon="2.473316500">
        <ele>558.70</ele>
        <time>2013-02-24T09:58:01Z</time>
      </trkpt>
      <trkpt lat="41.621160700" lon="2.473234800">
        <ele>558.20</ele>
        <time>2013-02-24T09:58:06Z</time>
      </trkpt>
      <trkpt lat="41.621132700" lon="2.473216500">
        <ele>558.20</ele>
        <time>2013-02-24T09:58:08Z</time>
      </trkpt>
      <trkpt lat="41.620888900" lon="2.473100400">
        <ele>556.30</ele>
        <time>2013-02-24T09:58:15Z</time>
      </trkpt>
      <trkpt lat="41.620868200" lon="2.473075800">
        <ele>555.80</ele>
        <time>2013-02-24T09:58:17Z</time>
      </trkpt>
      <trkpt lat="41.620830000" lon="2.472946100">
        <ele>554.80</ele>
        <time>2013-02-24T09:58:20Z</time>
      </trkpt>
      <trkpt lat="41.620667300" lon="2.472837800">
        <ele>556.30</ele>
        <time>2013-02-24T09:58:27Z</time>
      </trkpt>
      <trkpt lat="41.620632700" lon="2.472807000">
        <ele>557.70</ele>
        <time>2013-02-24T09:58:31Z</time>
      </trkpt>
      <trkpt lat="41.620624900" lon="2.472792100">
        <ele>558.20</ele>
        <time>2013-02-24T09:58:31Z</time>
      </trkpt>
      <trkpt lat="41.620536800" lon="2.472769300">
        <ele>558.70</ele>
        <time>2013-02-24T09:58:38Z</time>
      </trkpt>
      <trkpt lat="41.620524400" lon="2.472757400">
        <ele>558.70</ele>
        <time>2013-02-24T09:58:46Z</time>
      </trkpt>
      <trkpt lat="41.620507700" lon="2.472722300">
        <ele>558.20</ele>
        <time>2013-02-24T09:59:02Z</time>
      </trkpt>
      <trkpt lat="41.620508800" lon="2.472725200">
        <ele>558.20</ele>
        <time>2013-02-24T09:59:21Z</time>
      </trkpt>
      <trkpt lat="41.620508100" lon="2.472722900">
        <ele>557.70</ele>
        <time>2013-02-24T09:59:35Z</time>
      </trkpt>
      <trkpt lat="41.620509200" lon="2.472717600">
        <ele>558.20</ele>
        <time>2013-02-24T09:59:46Z</time>
      </trkpt>
      <trkpt lat="41.620514100" lon="2.472722600">
        <ele>557.70</ele>
        <time>2013-02-24T10:00:00Z</time>
      </trkpt>
      <trkpt lat="41.620498500" lon="2.472732700">
        <ele>557.70</ele>
        <time>2013-02-24T10:00:15Z</time>
      </trkpt>
      <trkpt lat="41.620502100" lon="2.472730000">
        <ele>557.70</ele>
        <time>2013-02-24T10:00:27Z</time>
      </trkpt>
      <trkpt lat="41.620510900" lon="2.472741300">
        <ele>557.70</ele>
        <time>2013-02-24T10:00:47Z</time>
      </trkpt>
      <trkpt lat="41.620519900" lon="2.472745700">
        <ele>557.70</ele>
        <time>2013-02-24T10:01:04Z</time>
      </trkpt>
      <trkpt lat="41.620520000" lon="2.472742100">
        <ele>557.20</ele>
        <time>2013-02-24T10:01:20Z</time>
      </trkpt>
      <trkpt lat="41.620512900" lon="2.472740600">
        <ele>557.20</ele>
        <time>2013-02-24T10:01:35Z</time>
      </trkpt>
      <trkpt lat="41.620503100" lon="2.472741000">
        <ele>556.70</ele>
        <time>2013-02-24T10:01:53Z</time>
      </trkpt>
      <trkpt lat="41.620500500" lon="2.472742500">
        <ele>556.70</ele>
        <time>2013-02-24T10:02:14Z</time>
      </trkpt>
      <trkpt lat="41.620509100" lon="2.472741600">
        <ele>556.70</ele>
        <time>2013-02-24T10:02:28Z</time>
      </trkpt>
      <trkpt lat="41.620518500" lon="2.472742200">
        <ele>556.30</ele>
        <time>2013-02-24T10:02:47Z</time>
      </trkpt>
      <trkpt lat="41.620508300" lon="2.472745600">
        <ele>556.30</ele>
        <time>2013-02-24T10:03:06Z</time>
      </trkpt>
      <trkpt lat="41.620508100" lon="2.472744700">
        <ele>555.80</ele>
        <time>2013-02-24T10:03:23Z</time>
      </trkpt>
      <trkpt lat="41.620512900" lon="2.472735100">
        <ele>555.80</ele>
        <time>2013-02-24T10:03:37Z</time>
      </trkpt>
      <trkpt lat="41.620497800" lon="2.472723800">
        <ele>555.30</ele>
        <time>2013-02-24T10:03:51Z</time>
      </trkpt>
      <trkpt lat="41.620499700" lon="2.472716900">
        <ele>555.30</ele>
        <time>2013-02-24T10:04:05Z</time>
      </trkpt>
      <trkpt lat="41.620485100" lon="2.472726500">
        <ele>555.30</ele>
        <time>2013-02-24T10:04:28Z</time>
      </trkpt>
      <trkpt lat="41.620505700" lon="2.472726700">
        <ele>555.30</ele>
        <time>2013-02-24T10:04:45Z</time>
      </trkpt>
      <trkpt lat="41.620509100" lon="2.472734700">
        <ele>554.80</ele>
        <time>2013-02-24T10:05:01Z</time>
      </trkpt>
      <trkpt lat="41.620505600" lon="2.472730100">
        <ele>554.80</ele>
        <time>2013-02-24T10:05:13Z</time>
      </trkpt>
      <trkpt lat="41.620511400" lon="2.472719000">
        <ele>554.80</ele>
        <time>2013-02-24T10:05:30Z</time>
      </trkpt>
      <trkpt lat="41.620504900" lon="2.472731400">
        <ele>554.30</ele>
        <time>2013-02-24T10:05:46Z</time>
      </trkpt>
      <trkpt lat="41.620508300" lon="2.472739100">
        <ele>554.30</ele>
        <time>2013-02-24T10:06:05Z</time>
      </trkpt>
      <trkpt lat="41.620507900" lon="2.472742000">
        <ele>554.30</ele>
        <time>2013-02-24T10:06:16Z</time>
      </trkpt>
      <trkpt lat="41.620537400" lon="2.472734500">
        <ele>554.30</ele>
        <time>2013-02-24T10:06:31Z</time>
      </trkpt>
      <trkpt lat="41.620556500" lon="2.472737800">
        <ele>554.30</ele>
        <time>2013-02-24T10:06:33Z</time>
      </trkpt>
      <trkpt lat="41.620631600" lon="2.472808200">
        <ele>552.40</ele>
        <time>2013-02-24T10:06:40Z</time>
      </trkpt>
      <trkpt lat="41.620739500" lon="2.472869100">
        <ele>550.50</ele>
        <time>2013-02-24T10:06:42Z</time>
      </trkpt>
      <trkpt lat="41.620799900" lon="2.472971900">
        <ele>550.50</ele>
        <time>2013-02-24T10:06:47Z</time>
      </trkpt>
      <trkpt lat="41.620808400" lon="2.472993700">
        <ele>550.50</ele>
        <time>2013-02-24T10:06:47Z</time>
      </trkpt>
      <trkpt lat="41.620905600" lon="2.473097600">
        <ele>551.90</ele>
        <time>2013-02-24T10:06:54Z</time>
      </trkpt>
      <trkpt lat="41.621056100" lon="2.473171500">
        <ele>553.40</ele>
        <time>2013-02-24T10:07:03Z</time>
      </trkpt>
      <trkpt lat="41.621185800" lon="2.473262100">
        <ele>554.30</ele>
        <time>2013-02-24T10:07:10Z</time>
      </trkpt>
      <trkpt lat="41.621291100" lon="2.473266300">
        <ele>554.30</ele>
        <time>2013-02-24T10:07:17Z</time>
      </trkpt>
      <trkpt lat="41.621406200" lon="2.473178600">
        <ele>553.90</ele>
        <time>2013-02-24T10:07:22Z</time>
      </trkpt>
      <trkpt lat="41.621484800" lon="2.472917100">
        <ele>552.40</ele>
        <time>2013-02-24T10:07:29Z</time>
      </trkpt>
      <trkpt lat="41.621507100" lon="2.472649100">
        <ele>551.00</ele>
        <time>2013-02-24T10:07:34Z</time>
      </trkpt>
      <trkpt lat="41.621547600" lon="2.472326300">
        <ele>549.50</ele>
        <time>2013-02-24T10:07:41Z</time>
      </trkpt>
      <trkpt lat="41.621602100" lon="2.472068600">
        <ele>548.10</ele>
        <time>2013-02-24T10:07:46Z</time>
      </trkpt>
      <trkpt lat="41.621607000" lon="2.471882300">
        <ele>547.60</ele>
        <time>2013-02-24T10:07:52Z</time>
      </trkpt>
      <trkpt lat="41.621589000" lon="2.471660000">
        <ele>547.60</ele>
        <time>2013-02-24T10:07:57Z</time>
      </trkpt>
      <trkpt lat="41.621586200" lon="2.471376300">
        <ele>547.10</ele>
        <time>2013-02-24T10:08:05Z</time>
      </trkpt>
      <trkpt lat="41.621613200" lon="2.471006700">
        <ele>545.70</ele>
        <time>2013-02-24T10:08:12Z</time>
      </trkpt>
      <trkpt lat="41.621626400" lon="2.470726600">
        <ele>544.20</ele>
        <time>2013-02-24T10:08:18Z</time>
      </trkpt>
      <trkpt lat="41.621593100" lon="2.470445600">
        <ele>541.80</ele>
        <time>2013-02-24T10:08:23Z</time>
      </trkpt>
      <trkpt lat="41.621549500" lon="2.470371600">
        <ele>540.40</ele>
        <time>2013-02-24T10:08:28Z</time>
      </trkpt>
      <trkpt lat="41.621543900" lon="2.470292100">
        <ele>539.00</ele>
        <time>2013-02-24T10:08:32Z</time>
      </trkpt>
      <trkpt lat="41.621492900" lon="2.470250000">
        <ele>538.50</ele>
        <time>2013-02-24T10:08:35Z</time>
      </trkpt>
      <trkpt lat="41.621463900" lon="2.470259400">
        <ele>538.00</ele>
        <time>2013-02-24T10:08:37Z</time>
      </trkpt>
      <trkpt lat="41.621410200" lon="2.470255900">
        <ele>538.00</ele>
        <time>2013-02-24T10:08:42Z</time>
      </trkpt>
      <trkpt lat="41.621314800" lon="2.470298100">
        <ele>536.50</ele>
        <time>2013-02-24T10:08:47Z</time>
      </trkpt>
      <trkpt lat="41.621096300" lon="2.470402000">
        <ele>533.20</ele>
        <time>2013-02-24T10:08:54Z</time>
      </trkpt>
      <trkpt lat="41.621068200" lon="2.470405400">
        <ele>533.20</ele>
        <time>2013-02-24T10:08:54Z</time>
      </trkpt>
      <trkpt lat="41.620930500" lon="2.470379600">
        <ele>531.80</ele>
        <time>2013-02-24T10:09:01Z</time>
      </trkpt>
      <trkpt lat="41.620787300" lon="2.470358800">
        <ele>531.30</ele>
        <time>2013-02-24T10:09:08Z</time>
      </trkpt>
      <trkpt lat="41.620636800" lon="2.470348200">
        <ele>530.30</ele>
        <time>2013-02-24T10:09:13Z</time>
      </trkpt>
      <trkpt lat="41.620527400" lon="2.470313700">
        <ele>528.40</ele>
        <time>2013-02-24T10:09:17Z</time>
      </trkpt>
      <trkpt lat="41.620517600" lon="2.470307700">
        <ele>527.90</ele>
        <time>2013-02-24T10:09:19Z</time>
      </trkpt>
      <trkpt lat="41.620514000" lon="2.470271000">
        <ele>528.40</ele>
        <time>2013-02-24T10:09:22Z</time>
      </trkpt>
      <trkpt lat="41.620435000" lon="2.470125700">
        <ele>526.90</ele>
        <time>2013-02-24T10:09:31Z</time>
      </trkpt>
      <trkpt lat="41.620332700" lon="2.470016300">
        <ele>525.00</ele>
        <time>2013-02-24T10:09:36Z</time>
      </trkpt>
      <trkpt lat="41.620209300" lon="2.469901200">
        <ele>521.70</ele>
        <time>2013-02-24T10:09:41Z</time>
      </trkpt>
      <trkpt lat="41.620112600" lon="2.469800000">
        <ele>518.80</ele>
        <time>2013-02-24T10:09:45Z</time>
      </trkpt>
      <trkpt lat="41.620069800" lon="2.469764500">
        <ele>517.80</ele>
        <time>2013-02-24T10:09:48Z</time>
      </trkpt>
      <trkpt lat="41.619999100" lon="2.469666000">
        <ele>516.40</ele>
        <time>2013-02-24T10:09:52Z</time>
      </trkpt>
      <trkpt lat="41.619981000" lon="2.469653700">
        <ele>515.90</ele>
        <time>2013-02-24T10:09:52Z</time>
      </trkpt>
      <trkpt lat="41.619925200" lon="2.469596700">
        <ele>514.40</ele>
        <time>2013-02-24T10:09:59Z</time>
      </trkpt>
      <trkpt lat="41.619918200" lon="2.469604700">
        <ele>514.40</ele>
        <time>2013-02-24T10:09:59Z</time>
      </trkpt>
      <trkpt lat="41.619878700" lon="2.469596200">
        <ele>513.50</ele>
        <time>2013-02-24T10:10:06Z</time>
      </trkpt>
      <trkpt lat="41.619862800" lon="2.469580700">
        <ele>513.50</ele>
        <time>2013-02-24T10:10:11Z</time>
      </trkpt>
      <trkpt lat="41.619815300" lon="2.469511200">
        <ele>513.00</ele>
        <time>2013-02-24T10:10:18Z</time>
      </trkpt>
      <trkpt lat="41.619699300" lon="2.469384100">
        <ele>511.10</ele>
        <time>2013-02-24T10:10:23Z</time>
      </trkpt>
      <trkpt lat="41.619678200" lon="2.469358700">
        <ele>510.60</ele>
        <time>2013-02-24T10:10:25Z</time>
      </trkpt>
      <trkpt lat="41.619549700" lon="2.469383000">
        <ele>507.20</ele>
        <time>2013-02-24T10:10:30Z</time>
      </trkpt>
      <trkpt lat="41.619508200" lon="2.469528200">
        <ele>505.30</ele>
        <time>2013-02-24T10:10:35Z</time>
      </trkpt>
      <trkpt lat="41.619491100" lon="2.469682300">
        <ele>503.90</ele>
        <time>2013-02-24T10:10:37Z</time>
      </trkpt>
      <trkpt lat="41.619452600" lon="2.470038600">
        <ele>502.90</ele>
        <time>2013-02-24T10:10:44Z</time>
      </trkpt>
      <trkpt lat="41.619443800" lon="2.470131600">
        <ele>502.00</ele>
        <time>2013-02-24T10:10:46Z</time>
      </trkpt>
      <trkpt lat="41.619361000" lon="2.470222400">
        <ele>500.00</ele>
        <time>2013-02-24T10:10:51Z</time>
      </trkpt>
      <trkpt lat="41.619203700" lon="2.470208500">
        <ele>498.10</ele>
        <time>2013-02-24T10:10:58Z</time>
      </trkpt>
      <trkpt lat="41.619144100" lon="2.470226200">
        <ele>497.10</ele>
        <time>2013-02-24T10:11:03Z</time>
      </trkpt>
      <trkpt lat="41.619166300" lon="2.470356200">
        <ele>497.10</ele>
        <time>2013-02-24T10:11:19Z</time>
      </trkpt>
      <trkpt lat="41.619276500" lon="2.470527500">
        <ele>495.70</ele>
        <time>2013-02-24T10:11:26Z</time>
      </trkpt>
      <trkpt lat="41.619392700" lon="2.470584300">
        <ele>494.30</ele>
        <time>2013-02-24T10:11:29Z</time>
      </trkpt>
      <trkpt lat="41.619418300" lon="2.470716100">
        <ele>493.80</ele>
        <time>2013-02-24T10:11:33Z</time>
      </trkpt>
      <trkpt lat="41.619375600" lon="2.471060400">
        <ele>493.30</ele>
        <time>2013-02-24T10:11:40Z</time>
      </trkpt>
      <trkpt lat="41.619335200" lon="2.471354000">
        <ele>495.20</ele>
        <time>2013-02-24T10:11:47Z</time>
      </trkpt>
      <trkpt lat="41.619223400" lon="2.471592600">
        <ele>495.70</ele>
        <time>2013-02-24T10:11:54Z</time>
      </trkpt>
      <trkpt lat="41.619079400" lon="2.471784400">
        <ele>497.10</ele>
        <time>2013-02-24T10:12:01Z</time>
      </trkpt>
      <trkpt lat="41.619043200" lon="2.471937000">
        <ele>498.60</ele>
        <time>2013-02-24T10:12:08Z</time>
      </trkpt>
      <trkpt lat="41.619105500" lon="2.472077900">
        <ele>499.10</ele>
        <time>2013-02-24T10:12:13Z</time>
      </trkpt>
      <trkpt lat="41.619187200" lon="2.472289000">
        <ele>498.60</ele>
        <time>2013-02-24T10:12:20Z</time>
      </trkpt>
      <trkpt lat="41.619284500" lon="2.472664300">
        <ele>498.10</ele>
        <time>2013-02-24T10:12:27Z</time>
      </trkpt>
      <trkpt lat="41.619294200" lon="2.472949500">
        <ele>498.60</ele>
        <time>2013-02-24T10:12:34Z</time>
      </trkpt>
      <trkpt lat="41.619378600" lon="2.473136600">
        <ele>500.00</ele>
        <time>2013-02-24T10:12:41Z</time>
      </trkpt>
      <trkpt lat="41.619496200" lon="2.473291600">
        <ele>498.10</ele>
        <time>2013-02-24T10:12:46Z</time>
      </trkpt>
      <trkpt lat="41.619620600" lon="2.473379400">
        <ele>497.60</ele>
        <time>2013-02-24T10:12:49Z</time>
      </trkpt>
      <trkpt lat="41.619788100" lon="2.473604700">
        <ele>497.10</ele>
        <time>2013-02-24T10:12:55Z</time>
      </trkpt>
      <trkpt lat="41.619827700" lon="2.473712200">
        <ele>497.10</ele>
        <time>2013-02-24T10:12:56Z</time>
      </trkpt>
      <trkpt lat="41.619973100" lon="2.473856700">
        <ele>498.10</ele>
        <time>2013-02-24T10:13:02Z</time>
      </trkpt>
      <trkpt lat="41.620172500" lon="2.473883700">
        <ele>500.50</ele>
        <time>2013-02-24T10:13:09Z</time>
      </trkpt>
      <trkpt lat="41.620307700" lon="2.473947600">
        <ele>501.00</ele>
        <time>2013-02-24T10:13:14Z</time>
      </trkpt>
      <trkpt lat="41.620293100" lon="2.474114200">
        <ele>500.50</ele>
        <time>2013-02-24T10:13:17Z</time>
      </trkpt>
      <trkpt lat="41.620105500" lon="2.474366200">
        <ele>499.50</ele>
        <time>2013-02-24T10:13:24Z</time>
      </trkpt>
      <trkpt lat="41.620062800" lon="2.474662500">
        <ele>499.50</ele>
        <time>2013-02-24T10:13:31Z</time>
      </trkpt>
      <trkpt lat="41.620012700" lon="2.474861200">
        <ele>500.50</ele>
        <time>2013-02-24T10:13:38Z</time>
      </trkpt>
      <trkpt lat="41.619936900" lon="2.475072300">
        <ele>502.40</ele>
        <time>2013-02-24T10:13:45Z</time>
      </trkpt>
      <trkpt lat="41.619961000" lon="2.475349100">
        <ele>503.40</ele>
        <time>2013-02-24T10:13:52Z</time>
      </trkpt>
      <trkpt lat="41.619916900" lon="2.475590600">
        <ele>503.90</ele>
        <time>2013-02-24T10:13:59Z</time>
      </trkpt>
      <trkpt lat="41.619871300" lon="2.475661600">
        <ele>503.40</ele>
        <time>2013-02-24T10:14:01Z</time>
      </trkpt>
      <trkpt lat="41.619642200" lon="2.475770500">
        <ele>501.00</ele>
        <time>2013-02-24T10:14:06Z</time>
      </trkpt>
      <trkpt lat="41.619511600" lon="2.475801600">
        <ele>498.60</ele>
        <time>2013-02-24T10:14:13Z</time>
      </trkpt>
      <trkpt lat="41.619605500" lon="2.475914100">
        <ele>498.10</ele>
        <time>2013-02-24T10:14:17Z</time>
      </trkpt>
      <trkpt lat="41.619830800" lon="2.476029300">
        <ele>495.20</ele>
        <time>2013-02-24T10:14:22Z</time>
      </trkpt>
      <trkpt lat="41.620019300" lon="2.476258700">
        <ele>493.30</ele>
        <time>2013-02-24T10:14:27Z</time>
      </trkpt>
      <trkpt lat="41.620054400" lon="2.476437000">
        <ele>492.30</ele>
        <time>2013-02-24T10:14:30Z</time>
      </trkpt>
      <trkpt lat="41.620006700" lon="2.476584800">
        <ele>491.40</ele>
        <time>2013-02-24T10:14:34Z</time>
      </trkpt>
      <trkpt lat="41.619976800" lon="2.476845900">
        <ele>490.40</ele>
        <time>2013-02-24T10:14:39Z</time>
      </trkpt>
      <trkpt lat="41.620099600" lon="2.477052200">
        <ele>491.40</ele>
        <time>2013-02-24T10:14:44Z</time>
      </trkpt>
      <trkpt lat="41.620267700" lon="2.477197900">
        <ele>490.90</ele>
        <time>2013-02-24T10:14:51Z</time>
      </trkpt>
      <trkpt lat="41.620367600" lon="2.477321000">
        <ele>489.90</ele>
        <time>2013-02-24T10:14:55Z</time>
      </trkpt>
      <trkpt lat="41.620379800" lon="2.477520900">
        <ele>489.90</ele>
        <time>2013-02-24T10:15:00Z</time>
      </trkpt>
      <trkpt lat="41.620281700" lon="2.477795200">
        <ele>488.50</ele>
        <time>2013-02-24T10:15:05Z</time>
      </trkpt>
      <trkpt lat="41.620236500" lon="2.478057300">
        <ele>487.50</ele>
        <time>2013-02-24T10:15:11Z</time>
      </trkpt>
      <trkpt lat="41.620230700" lon="2.478165900">
        <ele>487.50</ele>
        <time>2013-02-24T10:15:12Z</time>
      </trkpt>
      <trkpt lat="41.620135200" lon="2.478473400">
        <ele>488.50</ele>
        <time>2013-02-24T10:15:19Z</time>
      </trkpt>
      <trkpt lat="41.620127200" lon="2.478535600">
        <ele>488.50</ele>
        <time>2013-02-24T10:15:21Z</time>
      </trkpt>
      <trkpt lat="41.620259600" lon="2.478829600">
        <ele>488.00</ele>
        <time>2013-02-24T10:15:30Z</time>
      </trkpt>
      <trkpt lat="41.620344800" lon="2.478998100">
        <ele>487.00</ele>
        <time>2013-02-24T10:15:33Z</time>
      </trkpt>
      <trkpt lat="41.620327100" lon="2.479285700">
        <ele>488.00</ele>
        <time>2013-02-24T10:15:40Z</time>
      </trkpt>
      <trkpt lat="41.620227100" lon="2.479439800">
        <ele>489.00</ele>
        <time>2013-02-24T10:15:47Z</time>
      </trkpt>
      <trkpt lat="41.620212100" lon="2.479547800">
        <ele>490.40</ele>
        <time>2013-02-24T10:15:51Z</time>
      </trkpt>
      <trkpt lat="41.620339700" lon="2.479671800">
        <ele>492.80</ele>
        <time>2013-02-24T10:15:59Z</time>
      </trkpt>
      <trkpt lat="41.620479300" lon="2.479788600">
        <ele>494.30</ele>
        <time>2013-02-24T10:16:06Z</time>
      </trkpt>
      <trkpt lat="41.620587000" lon="2.479975000">
        <ele>495.20</ele>
        <time>2013-02-24T10:16:13Z</time>
      </trkpt>
      <trkpt lat="41.620676700" lon="2.480205800">
        <ele>494.30</ele>
        <time>2013-02-24T10:16:20Z</time>
      </trkpt>
      <trkpt lat="41.620892500" lon="2.480407300">
        <ele>494.30</ele>
        <time>2013-02-24T10:16:29Z</time>
      </trkpt>
      <trkpt lat="41.621055900" lon="2.480413700">
        <ele>494.30</ele>
        <time>2013-02-24T10:16:36Z</time>
      </trkpt>
      <trkpt lat="41.621216000" lon="2.480524400">
        <ele>492.80</ele>
        <time>2013-02-24T10:16:41Z</time>
      </trkpt>
      <trkpt lat="41.621250100" lon="2.480542500">
        <ele>492.30</ele>
        <time>2013-02-24T10:16:41Z</time>
      </trkpt>
      <trkpt lat="41.621336900" lon="2.480567300">
        <ele>491.40</ele>
        <time>2013-02-24T10:16:43Z</time>
      </trkpt>
      <trkpt lat="41.621427900" lon="2.480575400">
        <ele>490.40</ele>
        <time>2013-02-24T10:16:46Z</time>
      </trkpt>
      <trkpt lat="41.621478500" lon="2.480574500">
        <ele>489.90</ele>
        <time>2013-02-24T10:16:46Z</time>
      </trkpt>
      <trkpt lat="41.621648000" lon="2.480613000">
        <ele>489.00</ele>
        <time>2013-02-24T10:16:50Z</time>
      </trkpt>
      <trkpt lat="41.621846800" lon="2.480637000">
        <ele>487.50</ele>
        <time>2013-02-24T10:16:53Z</time>
      </trkpt>
      <trkpt lat="41.621935400" lon="2.480710300">
        <ele>486.60</ele>
        <time>2013-02-24T10:16:57Z</time>
      </trkpt>
      <trkpt lat="41.621910200" lon="2.480784600">
        <ele>486.10</ele>
        <time>2013-02-24T10:16:59Z</time>
      </trkpt>
      <trkpt lat="41.621889900" lon="2.480822000">
        <ele>486.10</ele>
        <time>2013-02-24T10:17:00Z</time>
      </trkpt>
      <trkpt lat="41.621881300" lon="2.480942600">
        <ele>486.10</ele>
        <time>2013-02-24T10:17:05Z</time>
      </trkpt>
      <trkpt lat="41.621926200" lon="2.481103800">
        <ele>486.60</ele>
        <time>2013-02-24T10:17:11Z</time>
      </trkpt>
      <trkpt lat="41.621901500" lon="2.481161700">
        <ele>486.60</ele>
        <time>2013-02-24T10:17:12Z</time>
      </trkpt>
      <trkpt lat="41.621751000" lon="2.481317100">
        <ele>489.00</ele>
        <time>2013-02-24T10:17:21Z</time>
      </trkpt>
      <trkpt lat="41.621702300" lon="2.481379800">
        <ele>489.50</ele>
        <time>2013-02-24T10:17:25Z</time>
      </trkpt>
      <trkpt lat="41.621716200" lon="2.481547100">
        <ele>490.40</ele>
        <time>2013-02-24T10:17:30Z</time>
      </trkpt>
      <trkpt lat="41.621830800" lon="2.481736900">
        <ele>491.90</ele>
        <time>2013-02-24T10:17:37Z</time>
      </trkpt>
      <trkpt lat="41.621964700" lon="2.481936100">
        <ele>492.80</ele>
        <time>2013-02-24T10:17:46Z</time>
      </trkpt>
      <trkpt lat="41.622085600" lon="2.482087000">
        <ele>492.80</ele>
        <time>2013-02-24T10:17:51Z</time>
      </trkpt>
      <trkpt lat="41.622074200" lon="2.482308700">
        <ele>492.30</ele>
        <time>2013-02-24T10:17:56Z</time>
      </trkpt>
      <trkpt lat="41.622073600" lon="2.482524500">
        <ele>491.40</ele>
        <time>2013-02-24T10:18:03Z</time>
      </trkpt>
      <trkpt lat="41.622191400" lon="2.482759000">
        <ele>490.90</ele>
        <time>2013-02-24T10:18:10Z</time>
      </trkpt>
      <trkpt lat="41.622288200" lon="2.483077100">
        <ele>492.30</ele>
        <time>2013-02-24T10:18:19Z</time>
      </trkpt>
      <trkpt lat="41.622383200" lon="2.483228000">
        <ele>493.80</ele>
        <time>2013-02-24T10:18:24Z</time>
      </trkpt>
      <trkpt lat="41.622543300" lon="2.483328400">
        <ele>495.70</ele>
        <time>2013-02-24T10:18:33Z</time>
      </trkpt>
      <trkpt lat="41.622715100" lon="2.483364300">
        <ele>495.70</ele>
        <time>2013-02-24T10:18:40Z</time>
      </trkpt>
      <trkpt lat="41.622904100" lon="2.483402000">
        <ele>495.20</ele>
        <time>2013-02-24T10:18:45Z</time>
      </trkpt>
      <trkpt lat="41.622944500" lon="2.483400000">
        <ele>495.20</ele>
        <time>2013-02-24T10:18:45Z</time>
      </trkpt>
      <trkpt lat="41.623074000" lon="2.483362200">
        <ele>494.30</ele>
        <time>2013-02-24T10:18:48Z</time>
      </trkpt>
      <trkpt lat="41.623285800" lon="2.483469600">
        <ele>493.80</ele>
        <time>2013-02-24T10:18:53Z</time>
      </trkpt>
      <trkpt lat="41.623269800" lon="2.483656900">
        <ele>492.30</ele>
        <time>2013-02-24T10:18:57Z</time>
      </trkpt>
      <trkpt lat="41.623172300" lon="2.484024800">
        <ele>490.40</ele>
        <time>2013-02-24T10:19:02Z</time>
      </trkpt>
      <trkpt lat="41.623203600" lon="2.484237000">
        <ele>489.50</ele>
        <time>2013-02-24T10:19:06Z</time>
      </trkpt>
      <trkpt lat="41.623350500" lon="2.484307100">
        <ele>489.90</ele>
        <time>2013-02-24T10:19:09Z</time>
      </trkpt>
      <trkpt lat="41.623641900" lon="2.484287500">
        <ele>490.90</ele>
        <time>2013-02-24T10:19:18Z</time>
      </trkpt>
      <trkpt lat="41.623858400" lon="2.484350600">
        <ele>491.40</ele>
        <time>2013-02-24T10:19:23Z</time>
      </trkpt>
      <trkpt lat="41.624071200" lon="2.484463000">
        <ele>492.30</ele>
        <time>2013-02-24T10:19:30Z</time>
      </trkpt>
      <trkpt lat="41.624089800" lon="2.484648900">
        <ele>493.30</ele>
        <time>2013-02-24T10:19:35Z</time>
      </trkpt>
      <trkpt lat="41.624032000" lon="2.484873500">
        <ele>494.30</ele>
        <time>2013-02-24T10:19:42Z</time>
      </trkpt>
      <trkpt lat="41.623891000" lon="2.484997100">
        <ele>495.20</ele>
        <time>2013-02-24T10:19:46Z</time>
      </trkpt>
      <trkpt lat="41.623870700" lon="2.485195400">
        <ele>496.20</ele>
        <time>2013-02-24T10:19:51Z</time>
      </trkpt>
      <trkpt lat="41.623961700" lon="2.485359900">
        <ele>497.10</ele>
        <time>2013-02-24T10:19:56Z</time>
      </trkpt>
      <trkpt lat="41.624080400" lon="2.485608700">
        <ele>499.50</ele>
        <time>2013-02-24T10:20:05Z</time>
      </trkpt>
      <trkpt lat="41.624187100" lon="2.485756000">
        <ele>502.00</ele>
        <time>2013-02-24T10:20:12Z</time>
      </trkpt>
      <trkpt lat="41.624249500" lon="2.485845500">
        <ele>502.90</ele>
        <time>2013-02-24T10:20:15Z</time>
      </trkpt>
      <trkpt lat="41.624263100" lon="2.485958000">
        <ele>503.90</ele>
        <time>2013-02-24T10:20:19Z</time>
      </trkpt>
      <trkpt lat="41.624159700" lon="2.486120600">
        <ele>505.80</ele>
        <time>2013-02-24T10:20:26Z</time>
      </trkpt>
      <trkpt lat="41.623975800" lon="2.486176900">
        <ele>507.20</ele>
        <time>2013-02-24T10:20:35Z</time>
      </trkpt>
      <trkpt lat="41.623798700" lon="2.486253300">
        <ele>509.20</ele>
        <time>2013-02-24T10:20:43Z</time>
      </trkpt>
      <trkpt lat="41.623625800" lon="2.486339700">
        <ele>511.10</ele>
        <time>2013-02-24T10:20:50Z</time>
      </trkpt>
      <trkpt lat="41.623526200" lon="2.486449200">
        <ele>512.00</ele>
        <time>2013-02-24T10:20:57Z</time>
      </trkpt>
      <trkpt lat="41.623399900" lon="2.486556800">
        <ele>513.50</ele>
        <time>2013-02-24T10:21:04Z</time>
      </trkpt>
      <trkpt lat="41.623238200" lon="2.486660900">
        <ele>515.40</ele>
        <time>2013-02-24T10:21:11Z</time>
      </trkpt>
      <trkpt lat="41.623053900" lon="2.486737200">
        <ele>517.30</ele>
        <time>2013-02-24T10:21:20Z</time>
      </trkpt>
      <trkpt lat="41.622938200" lon="2.486789000">
        <ele>518.80</ele>
        <time>2013-02-24T10:21:27Z</time>
      </trkpt>
      <trkpt lat="41.622880100" lon="2.486890600">
        <ele>520.20</ele>
        <time>2013-02-24T10:21:32Z</time>
      </trkpt>
      <trkpt lat="41.622825200" lon="2.487071900">
        <ele>519.20</ele>
        <time>2013-02-24T10:21:37Z</time>
      </trkpt>
      <trkpt lat="41.622804100" lon="2.487140300">
        <ele>518.30</ele>
        <time>2013-02-24T10:21:39Z</time>
      </trkpt>
      <trkpt lat="41.622620200" lon="2.487506200">
        <ele>514.90</ele>
        <time>2013-02-24T10:21:44Z</time>
      </trkpt>
      <trkpt lat="41.622506300" lon="2.487677800">
        <ele>512.50</ele>
        <time>2013-02-24T10:21:48Z</time>
      </trkpt>
      <trkpt lat="41.622296700" lon="2.487819900">
        <ele>512.00</ele>
        <time>2013-02-24T10:21:53Z</time>
      </trkpt>
      <trkpt lat="41.622272200" lon="2.487919000">
        <ele>512.00</ele>
        <time>2013-02-24T10:21:55Z</time>
      </trkpt>
      <trkpt lat="41.622288600" lon="2.487943100">
        <ele>512.00</ele>
        <time>2013-02-24T10:21:56Z</time>
      </trkpt>
      <trkpt lat="41.622398500" lon="2.488036800">
        <ele>513.00</ele>
        <time>2013-02-24T10:22:03Z</time>
      </trkpt>
      <trkpt lat="41.622449000" lon="2.488075600">
        <ele>514.40</ele>
        <time>2013-02-24T10:22:07Z</time>
      </trkpt>
      <trkpt lat="41.622594100" lon="2.488233000">
        <ele>516.80</ele>
        <time>2013-02-24T10:22:19Z</time>
      </trkpt>
      <trkpt lat="41.622664800" lon="2.488337800">
        <ele>518.80</ele>
        <time>2013-02-24T10:22:24Z</time>
      </trkpt>
      <trkpt lat="41.622733800" lon="2.488452900">
        <ele>520.70</ele>
        <time>2013-02-24T10:22:31Z</time>
      </trkpt>
      <trkpt lat="41.622857100" lon="2.488461000">
        <ele>523.60</ele>
        <time>2013-02-24T10:22:40Z</time>
      </trkpt>
      <trkpt lat="41.622974200" lon="2.488525000">
        <ele>525.50</ele>
        <time>2013-02-24T10:22:47Z</time>
      </trkpt>
      <trkpt lat="41.623078800" lon="2.488586700">
        <ele>527.40</ele>
        <time>2013-02-24T10:22:56Z</time>
      </trkpt>
      <trkpt lat="41.623160000" lon="2.488582800">
        <ele>528.90</ele>
        <time>2013-02-24T10:23:03Z</time>
      </trkpt>
      <trkpt lat="41.623193000" lon="2.488579100">
        <ele>528.40</ele>
        <time>2013-02-24T10:23:11Z</time>
      </trkpt>
      <trkpt lat="41.623310800" lon="2.488474700">
        <ele>526.00</ele>
        <time>2013-02-24T10:23:18Z</time>
      </trkpt>
      <trkpt lat="41.623405500" lon="2.488396300">
        <ele>525.00</ele>
        <time>2013-02-24T10:23:22Z</time>
      </trkpt>
      <trkpt lat="41.623526500" lon="2.488280100">
        <ele>522.10</ele>
        <time>2013-02-24T10:23:29Z</time>
      </trkpt>
      <trkpt lat="41.623567800" lon="2.488257800">
        <ele>520.70</ele>
        <time>2013-02-24T10:23:32Z</time>
      </trkpt>
      <trkpt lat="41.623718400" lon="2.488241100">
        <ele>519.70</ele>
        <time>2013-02-24T10:23:36Z</time>
      </trkpt>
      <trkpt lat="41.623849100" lon="2.488229200">
        <ele>517.80</ele>
        <time>2013-02-24T10:23:43Z</time>
      </trkpt>
      <trkpt lat="41.624005100" lon="2.488237200">
        <ele>516.40</ele>
        <time>2013-02-24T10:23:48Z</time>
      </trkpt>
      <trkpt lat="41.624175800" lon="2.488234700">
        <ele>515.40</ele>
        <time>2013-02-24T10:23:55Z</time>
      </trkpt>
      <trkpt lat="41.624283900" lon="2.488249200">
        <ele>514.40</ele>
        <time>2013-02-24T10:23:58Z</time>
      </trkpt>
      <trkpt lat="41.624519800" lon="2.488308700">
        <ele>513.50</ele>
        <time>2013-02-24T10:24:04Z</time>
      </trkpt>
      <trkpt lat="41.624555100" lon="2.488303800">
        <ele>513.50</ele>
        <time>2013-02-24T10:24:05Z</time>
      </trkpt>
      <trkpt lat="41.624705700" lon="2.488233200">
        <ele>513.50</ele>
        <time>2013-02-24T10:24:11Z</time>
      </trkpt>
      <trkpt lat="41.624880800" lon="2.488129000">
        <ele>513.50</ele>
        <time>2013-02-24T10:24:18Z</time>
      </trkpt>
      <trkpt lat="41.625025500" lon="2.488156700">
        <ele>513.00</ele>
        <time>2013-02-24T10:24:23Z</time>
      </trkpt>
      <trkpt lat="41.625150000" lon="2.488531600">
        <ele>511.60</ele>
        <time>2013-02-24T10:24:33Z</time>
      </trkpt>
      <trkpt lat="41.625118300" lon="2.488741200">
        <ele>511.10</ele>
        <time>2013-02-24T10:24:40Z</time>
      </trkpt>
      <trkpt lat="41.625140700" lon="2.488796200">
        <ele>511.60</ele>
        <time>2013-02-24T10:24:51Z</time>
      </trkpt>
      <trkpt lat="41.625145700" lon="2.488902100">
        <ele>511.10</ele>
        <time>2013-02-24T10:24:58Z</time>
      </trkpt>
      <trkpt lat="41.625144000" lon="2.488951800">
        <ele>511.10</ele>
        <time>2013-02-24T10:25:01Z</time>
      </trkpt>
      <trkpt lat="41.625130000" lon="2.489151100">
        <ele>511.10</ele>
        <time>2013-02-24T10:25:08Z</time>
      </trkpt>
      <trkpt lat="41.625093800" lon="2.489375700">
        <ele>511.10</ele>
        <time>2013-02-24T10:25:13Z</time>
      </trkpt>
      <trkpt lat="41.625051400" lon="2.489541200">
        <ele>510.10</ele>
        <time>2013-02-24T10:25:17Z</time>
      </trkpt>
      <trkpt lat="41.624987700" lon="2.489795500">
        <ele>510.60</ele>
        <time>2013-02-24T10:25:24Z</time>
      </trkpt>
      <trkpt lat="41.624969900" lon="2.489856700">
        <ele>511.10</ele>
        <time>2013-02-24T10:25:27Z</time>
      </trkpt>
      <trkpt lat="41.624840600" lon="2.490079500">
        <ele>511.10</ele>
        <time>2013-02-24T10:25:34Z</time>
      </trkpt>
      <trkpt lat="41.624704200" lon="2.490234400">
        <ele>511.60</ele>
        <time>2013-02-24T10:25:39Z</time>
      </trkpt>
      <trkpt lat="41.624591800" lon="2.490479800">
        <ele>511.60</ele>
        <time>2013-02-24T10:25:46Z</time>
      </trkpt>
      <trkpt lat="41.624457700" lon="2.490719100">
        <ele>512.00</ele>
        <time>2013-02-24T10:25:55Z</time>
      </trkpt>
      <trkpt lat="41.624385100" lon="2.490982300">
        <ele>511.10</ele>
        <time>2013-02-24T10:26:00Z</time>
      </trkpt>
      <trkpt lat="41.624334000" lon="2.491298700">
        <ele>509.20</ele>
        <time>2013-02-24T10:26:06Z</time>
      </trkpt>
      <trkpt lat="41.624322100" lon="2.491756300">
        <ele>508.70</ele>
        <time>2013-02-24T10:26:14Z</time>
      </trkpt>
      <trkpt lat="41.624276800" lon="2.492037400">
        <ele>508.70</ele>
        <time>2013-02-24T10:26:19Z</time>
      </trkpt>
      <trkpt lat="41.624207700" lon="2.492331400">
        <ele>507.70</ele>
        <time>2013-02-24T10:26:25Z</time>
      </trkpt>
      <trkpt lat="41.624058200" lon="2.492720900">
        <ele>507.20</ele>
        <time>2013-02-24T10:26:33Z</time>
      </trkpt>
      <trkpt lat="41.624068100" lon="2.493025700">
        <ele>507.70</ele>
        <time>2013-02-24T10:26:40Z</time>
      </trkpt>
      <trkpt lat="41.624103000" lon="2.493388500">
        <ele>508.20</ele>
        <time>2013-02-24T10:26:47Z</time>
      </trkpt>
      <trkpt lat="41.624174300" lon="2.493817200">
        <ele>507.70</ele>
        <time>2013-02-24T10:26:56Z</time>
      </trkpt>
      <trkpt lat="41.624233800" lon="2.494102000">
        <ele>507.70</ele>
        <time>2013-02-24T10:27:03Z</time>
      </trkpt>
      <trkpt lat="41.624324000" lon="2.494425500">
        <ele>507.70</ele>
        <time>2013-02-24T10:27:10Z</time>
      </trkpt>
      <trkpt lat="41.624259200" lon="2.494679900">
        <ele>508.20</ele>
        <time>2013-02-24T10:27:15Z</time>
      </trkpt>
      <trkpt lat="41.624237100" lon="2.494981700">
        <ele>508.20</ele>
        <time>2013-02-24T10:27:22Z</time>
      </trkpt>
      <trkpt lat="41.624284600" lon="2.495302500">
        <ele>509.20</ele>
        <time>2013-02-24T10:27:31Z</time>
      </trkpt>
      <trkpt lat="41.624283500" lon="2.495594000">
        <ele>510.10</ele>
        <time>2013-02-24T10:27:40Z</time>
      </trkpt>
      <trkpt lat="41.624245400" lon="2.495940500">
        <ele>510.60</ele>
        <time>2013-02-24T10:27:48Z</time>
      </trkpt>
      <trkpt lat="41.624138800" lon="2.496180300">
        <ele>511.60</ele>
        <time>2013-02-24T10:27:57Z</time>
      </trkpt>
      <trkpt lat="41.624130400" lon="2.496358200">
        <ele>513.00</ele>
        <time>2013-02-24T10:28:02Z</time>
      </trkpt>
      <trkpt lat="41.624093200" lon="2.496561700">
        <ele>514.00</ele>
        <time>2013-02-24T10:28:09Z</time>
      </trkpt>
      <trkpt lat="41.624052400" lon="2.496804600">
        <ele>514.90</ele>
        <time>2013-02-24T10:28:18Z</time>
      </trkpt>
      <trkpt lat="41.624008000" lon="2.497137300">
        <ele>516.80</ele>
        <time>2013-02-24T10:28:28Z</time>
      </trkpt>
      <trkpt lat="41.624061600" lon="2.497303900">
        <ele>517.30</ele>
        <time>2013-02-24T10:28:35Z</time>
      </trkpt>
      <trkpt lat="41.624146300" lon="2.497484400">
        <ele>519.70</ele>
        <time>2013-02-24T10:28:42Z</time>
      </trkpt>
      <trkpt lat="41.624194400" lon="2.497691000">
        <ele>521.70</ele>
        <time>2013-02-24T10:28:51Z</time>
      </trkpt>
      <trkpt lat="41.624257600" lon="2.497945500">
        <ele>522.60</ele>
        <time>2013-02-24T10:29:00Z</time>
      </trkpt>
      <trkpt lat="41.624342600" lon="2.498142500">
        <ele>525.00</ele>
        <time>2013-02-24T10:29:07Z</time>
      </trkpt>
      <trkpt lat="41.624346800" lon="2.498216800">
        <ele>525.50</ele>
        <time>2013-02-24T10:29:10Z</time>
      </trkpt>
      <trkpt lat="41.624231500" lon="2.498258700">
        <ele>526.00</ele>
        <time>2013-02-24T10:29:17Z</time>
      </trkpt>
      <trkpt lat="41.624153100" lon="2.498193800">
        <ele>526.90</ele>
        <time>2013-02-24T10:29:22Z</time>
      </trkpt>
      <trkpt lat="41.624013300" lon="2.498064400">
        <ele>527.90</ele>
        <time>2013-02-24T10:29:31Z</time>
      </trkpt>
      <trkpt lat="41.623963900" lon="2.498021500">
        <ele>528.40</ele>
        <time>2013-02-24T10:29:33Z</time>
      </trkpt>
      <trkpt lat="41.623866800" lon="2.497951800">
        <ele>530.30</ele>
        <time>2013-02-24T10:29:40Z</time>
      </trkpt>
      <trkpt lat="41.623759000" lon="2.497804200">
        <ele>530.80</ele>
        <time>2013-02-24T10:29:47Z</time>
      </trkpt>
      <trkpt lat="41.623656200" lon="2.497624300">
        <ele>530.80</ele>
        <time>2013-02-24T10:29:55Z</time>
      </trkpt>
      <trkpt lat="41.623539500" lon="2.497478600">
        <ele>530.80</ele>
        <time>2013-02-24T10:30:02Z</time>
      </trkpt>
      <trkpt lat="41.623510200" lon="2.497439600">
        <ele>530.30</ele>
        <time>2013-02-24T10:30:09Z</time>
      </trkpt>
      <trkpt lat="41.623498700" lon="2.497410400">
        <ele>530.30</ele>
        <time>2013-02-24T10:30:16Z</time>
      </trkpt>
      <trkpt lat="41.623470300" lon="2.497382900">
        <ele>530.30</ele>
        <time>2013-02-24T10:30:20Z</time>
      </trkpt>
      <trkpt lat="41.623359800" lon="2.497210600">
        <ele>530.30</ele>
        <time>2013-02-24T10:30:27Z</time>
      </trkpt>
      <trkpt lat="41.623172600" lon="2.497088300">
        <ele>530.30</ele>
        <time>2013-02-24T10:30:35Z</time>
      </trkpt>
      <trkpt lat="41.623137200" lon="2.497060700">
        <ele>529.80</ele>
        <time>2013-02-24T10:30:37Z</time>
      </trkpt>
      <trkpt lat="41.623016100" lon="2.497004200">
        <ele>529.30</ele>
        <time>2013-02-24T10:30:39Z</time>
      </trkpt>
      <trkpt lat="41.622726700" lon="2.496984000">
        <ele>526.90</ele>
        <time>2013-02-24T10:30:46Z</time>
      </trkpt>
      <trkpt lat="41.622653100" lon="2.497145700">
        <ele>525.50</ele>
        <time>2013-02-24T10:30:53Z</time>
      </trkpt>
      <trkpt lat="41.622563800" lon="2.497128300">
        <ele>525.00</ele>
        <time>2013-02-24T10:30:58Z</time>
      </trkpt>
      <trkpt lat="41.622510100" lon="2.497036500">
        <ele>524.50</ele>
        <time>2013-02-24T10:31:00Z</time>
      </trkpt>
      <trkpt lat="41.622398500" lon="2.496788800">
        <ele>522.60</ele>
        <time>2013-02-24T10:31:07Z</time>
      </trkpt>
      <trkpt lat="41.622269900" lon="2.496592700">
        <ele>521.20</ele>
        <time>2013-02-24T10:31:12Z</time>
      </trkpt>
      <trkpt lat="41.622148200" lon="2.496380900">
        <ele>520.20</ele>
        <time>2013-02-24T10:31:19Z</time>
      </trkpt>
      <trkpt lat="41.622027900" lon="2.496211000">
        <ele>520.20</ele>
        <time>2013-02-24T10:31:24Z</time>
      </trkpt>
      <trkpt lat="41.621905900" lon="2.496065900">
        <ele>520.20</ele>
        <time>2013-02-24T10:31:29Z</time>
      </trkpt>
      <trkpt lat="41.621716000" lon="2.496021600">
        <ele>520.20</ele>
        <time>2013-02-24T10:31:35Z</time>
      </trkpt>
      <trkpt lat="41.621563300" lon="2.495975100">
        <ele>519.70</ele>
        <time>2013-02-24T10:31:40Z</time>
      </trkpt>
      <trkpt lat="41.621422100" lon="2.495900300">
        <ele>520.70</ele>
        <time>2013-02-24T10:31:47Z</time>
      </trkpt>
      <trkpt lat="41.621387300" lon="2.495824900">
        <ele>521.20</ele>
        <time>2013-02-24T10:31:49Z</time>
      </trkpt>
      <trkpt lat="41.621360100" lon="2.495719900">
        <ele>520.70</ele>
        <time>2013-02-24T10:31:54Z</time>
      </trkpt>
      <trkpt lat="41.621292900" lon="2.495666100">
        <ele>519.70</ele>
        <time>2013-02-24T10:31:59Z</time>
      </trkpt>
      <trkpt lat="41.621071800" lon="2.495556700">
        <ele>516.80</ele>
        <time>2013-02-24T10:32:06Z</time>
      </trkpt>
      <trkpt lat="41.620948200" lon="2.495534200">
        <ele>515.40</ele>
        <time>2013-02-24T10:32:08Z</time>
      </trkpt>
      <trkpt lat="41.620827600" lon="2.495489900">
        <ele>514.00</ele>
        <time>2013-02-24T10:32:11Z</time>
      </trkpt>
      <trkpt lat="41.620699700" lon="2.495436900">
        <ele>512.00</ele>
        <time>2013-02-24T10:32:15Z</time>
      </trkpt>
      <trkpt lat="41.620507100" lon="2.495349000">
        <ele>508.70</ele>
        <time>2013-02-24T10:32:20Z</time>
      </trkpt>
      <trkpt lat="41.620473300" lon="2.495335700">
        <ele>508.20</ele>
        <time>2013-02-24T10:32:20Z</time>
      </trkpt>
      <trkpt lat="41.620441100" lon="2.495321500">
        <ele>508.20</ele>
        <time>2013-02-24T10:32:22Z</time>
      </trkpt>
      <trkpt lat="41.620285200" lon="2.495166600">
        <ele>504.40</ele>
        <time>2013-02-24T10:32:27Z</time>
      </trkpt>
      <trkpt lat="41.620198200" lon="2.495230000">
        <ele>502.90</ele>
        <time>2013-02-24T10:32:29Z</time>
      </trkpt>
      <trkpt lat="41.620179100" lon="2.495296500">
        <ele>501.50</ele>
        <time>2013-02-24T10:32:32Z</time>
      </trkpt>
      <trkpt lat="41.620156800" lon="2.495356100">
        <ele>500.50</ele>
        <time>2013-02-24T10:32:34Z</time>
      </trkpt>
      <trkpt lat="41.619967000" lon="2.495461800">
        <ele>498.10</ele>
        <time>2013-02-24T10:32:39Z</time>
      </trkpt>
      <trkpt lat="41.619866000" lon="2.495464500">
        <ele>496.20</ele>
        <time>2013-02-24T10:32:43Z</time>
      </trkpt>
      <trkpt lat="41.619856300" lon="2.495597800">
        <ele>496.20</ele>
        <time>2013-02-24T10:32:46Z</time>
      </trkpt>
      <trkpt lat="41.619863100" lon="2.495634600">
        <ele>496.20</ele>
        <time>2013-02-24T10:32:48Z</time>
      </trkpt>
      <trkpt lat="41.619942900" lon="2.495902400">
        <ele>494.70</ele>
        <time>2013-02-24T10:32:55Z</time>
      </trkpt>
      <trkpt lat="41.620002100" lon="2.496072700">
        <ele>494.70</ele>
        <time>2013-02-24T10:33:02Z</time>
      </trkpt>
      <trkpt lat="41.620096700" lon="2.496353400">
        <ele>492.30</ele>
        <time>2013-02-24T10:33:09Z</time>
      </trkpt>
      <trkpt lat="41.620146600" lon="2.496636300">
        <ele>490.40</ele>
        <time>2013-02-24T10:33:14Z</time>
      </trkpt>
      <trkpt lat="41.620243200" lon="2.496890600">
        <ele>489.00</ele>
        <time>2013-02-24T10:33:19Z</time>
      </trkpt>
      <trkpt lat="41.620313600" lon="2.497045100">
        <ele>487.50</ele>
        <time>2013-02-24T10:33:23Z</time>
      </trkpt>
      <trkpt lat="41.620360600" lon="2.497211200">
        <ele>486.60</ele>
        <time>2013-02-24T10:33:26Z</time>
      </trkpt>
      <trkpt lat="41.620376900" lon="2.497478500">
        <ele>482.70</ele>
        <time>2013-02-24T10:33:30Z</time>
      </trkpt>
      <trkpt lat="41.620406400" lon="2.497616500">
        <ele>481.80</ele>
        <time>2013-02-24T10:33:31Z</time>
      </trkpt>
      <trkpt lat="41.620451200" lon="2.497791900">
        <ele>478.40</ele>
        <time>2013-02-24T10:33:35Z</time>
      </trkpt>
      <trkpt lat="41.620482700" lon="2.498037500">
        <ele>475.00</ele>
        <time>2013-02-24T10:33:38Z</time>
      </trkpt>
      <trkpt lat="41.620472000" lon="2.498300800">
        <ele>471.20</ele>
        <time>2013-02-24T10:33:42Z</time>
      </trkpt>
      <trkpt lat="41.620470500" lon="2.498367100">
        <ele>469.70</ele>
        <time>2013-02-24T10:33:44Z</time>
      </trkpt>
      <trkpt lat="41.620563300" lon="2.498607200">
        <ele>467.80</ele>
        <time>2013-02-24T10:33:47Z</time>
      </trkpt>
      <trkpt lat="41.620650600" lon="2.498708900">
        <ele>465.90</ele>
        <time>2013-02-24T10:33:49Z</time>
      </trkpt>
      <trkpt lat="41.620788300" lon="2.498859100">
        <ele>463.00</ele>
        <time>2013-02-24T10:33:54Z</time>
      </trkpt>
      <trkpt lat="41.620728600" lon="2.499003700">
        <ele>460.60</ele>
        <time>2013-02-24T10:33:56Z</time>
      </trkpt>
      <trkpt lat="41.620653900" lon="2.499010300">
        <ele>460.10</ele>
        <time>2013-02-24T10:33:59Z</time>
      </trkpt>
      <trkpt lat="41.620328900" lon="2.498980500">
        <ele>456.30</ele>
        <time>2013-02-24T10:34:06Z</time>
      </trkpt>
      <trkpt lat="41.620119300" lon="2.498944200">
        <ele>452.00</ele>
        <time>2013-02-24T10:34:10Z</time>
      </trkpt>
      <trkpt lat="41.620077100" lon="2.498933700">
        <ele>451.00</ele>
        <time>2013-02-24T10:34:12Z</time>
      </trkpt>
      <trkpt lat="41.619840100" lon="2.498806700">
        <ele>447.10</ele>
        <time>2013-02-24T10:34:18Z</time>
      </trkpt>
      <trkpt lat="41.619780400" lon="2.498886500">
        <ele>446.20</ele>
        <time>2013-02-24T10:34:22Z</time>
      </trkpt>
      <trkpt lat="41.619878300" lon="2.499006900">
        <ele>444.30</ele>
        <time>2013-02-24T10:34:27Z</time>
      </trkpt>
      <trkpt lat="41.619956600" lon="2.499145000">
        <ele>443.30</ele>
        <time>2013-02-24T10:34:31Z</time>
      </trkpt>
      <trkpt lat="41.619925000" lon="2.499332000">
        <ele>440.40</ele>
        <time>2013-02-24T10:34:34Z</time>
      </trkpt>
      <trkpt lat="41.619967500" lon="2.499550600">
        <ele>438.50</ele>
        <time>2013-02-24T10:34:38Z</time>
      </trkpt>
      <trkpt lat="41.620059700" lon="2.499599600">
        <ele>437.10</ele>
        <time>2013-02-24T10:34:41Z</time>
      </trkpt>
      <trkpt lat="41.620239600" lon="2.499741500">
        <ele>433.20</ele>
        <time>2013-02-24T10:34:46Z</time>
      </trkpt>
      <trkpt lat="41.620283400" lon="2.499828900">
        <ele>432.20</ele>
        <time>2013-02-24T10:34:48Z</time>
      </trkpt>
      <trkpt lat="41.620347200" lon="2.500094900">
        <ele>429.90</ele>
        <time>2013-02-24T10:34:53Z</time>
      </trkpt>
      <trkpt lat="41.620359200" lon="2.500152300">
        <ele>429.40</ele>
        <time>2013-02-24T10:34:55Z</time>
      </trkpt>
      <trkpt lat="41.620497200" lon="2.500391900">
        <ele>427.00</ele>
        <time>2013-02-24T10:35:00Z</time>
      </trkpt>
      <trkpt lat="41.620535800" lon="2.500403600">
        <ele>427.00</ele>
        <time>2013-02-24T10:35:00Z</time>
      </trkpt>
      <trkpt lat="41.620731400" lon="2.500326200">
        <ele>427.00</ele>
        <time>2013-02-24T10:35:07Z</time>
      </trkpt>
      <trkpt lat="41.620864900" lon="2.500159500">
        <ele>425.50</ele>
        <time>2013-02-24T10:35:14Z</time>
      </trkpt>
      <trkpt lat="41.621003100" lon="2.500033900">
        <ele>424.60</ele>
        <time>2013-02-24T10:35:18Z</time>
      </trkpt>
      <trkpt lat="41.621153700" lon="2.500029500">
        <ele>423.10</ele>
        <time>2013-02-24T10:35:23Z</time>
      </trkpt>
      <trkpt lat="41.621192300" lon="2.500055700">
        <ele>423.60</ele>
        <time>2013-02-24T10:35:25Z</time>
      </trkpt>
      <trkpt lat="41.621218700" lon="2.500263700">
        <ele>421.20</ele>
        <time>2013-02-24T10:35:32Z</time>
      </trkpt>
      <trkpt lat="41.621257400" lon="2.500438200">
        <ele>419.80</ele>
        <time>2013-02-24T10:35:35Z</time>
      </trkpt>
      <trkpt lat="41.621307900" lon="2.500595200">
        <ele>416.90</ele>
        <time>2013-02-24T10:35:40Z</time>
      </trkpt>
      <trkpt lat="41.621342800" lon="2.500765400">
        <ele>415.90</ele>
        <time>2013-02-24T10:35:42Z</time>
      </trkpt>
      <trkpt lat="41.621414300" lon="2.501003000">
        <ele>413.50</ele>
        <time>2013-02-24T10:35:47Z</time>
      </trkpt>
      <trkpt lat="41.621488600" lon="2.501197800">
        <ele>409.70</ele>
        <time>2013-02-24T10:35:51Z</time>
      </trkpt>
      <trkpt lat="41.621469800" lon="2.501269900">
        <ele>409.20</ele>
        <time>2013-02-24T10:35:53Z</time>
      </trkpt>
      <trkpt lat="41.621397200" lon="2.501260100">
        <ele>407.70</ele>
        <time>2013-02-24T10:35:56Z</time>
      </trkpt>
      <trkpt lat="41.621326300" lon="2.501168800">
        <ele>406.30</ele>
        <time>2013-02-24T10:35:58Z</time>
      </trkpt>
      <trkpt lat="41.621283400" lon="2.501141300">
        <ele>405.30</ele>
        <time>2013-02-24T10:36:01Z</time>
      </trkpt>
      <trkpt lat="41.621199600" lon="2.501080200">
        <ele>404.90</ele>
        <time>2013-02-24T10:36:05Z</time>
      </trkpt>
      <trkpt lat="41.621160700" lon="2.500994500">
        <ele>404.40</ele>
        <time>2013-02-24T10:36:08Z</time>
      </trkpt>
      <trkpt lat="41.621145100" lon="2.500974000">
        <ele>403.90</ele>
        <time>2013-02-24T10:36:10Z</time>
      </trkpt>
      <trkpt lat="41.621003000" lon="2.500890800">
        <ele>401.50</ele>
        <time>2013-02-24T10:36:15Z</time>
      </trkpt>
      <trkpt lat="41.620867800" lon="2.500964200">
        <ele>399.10</ele>
        <time>2013-02-24T10:36:20Z</time>
      </trkpt>
      <trkpt lat="41.620838800" lon="2.500984900">
        <ele>398.60</ele>
        <time>2013-02-24T10:36:22Z</time>
      </trkpt>
      <trkpt lat="41.620688800" lon="2.501169700">
        <ele>396.20</ele>
        <time>2013-02-24T10:36:27Z</time>
      </trkpt>
      <trkpt lat="41.620644900" lon="2.501244000">
        <ele>395.70</ele>
        <time>2013-02-24T10:36:29Z</time>
      </trkpt>
      <trkpt lat="41.620409400" lon="2.501458500">
        <ele>394.30</ele>
        <time>2013-02-24T10:36:38Z</time>
      </trkpt>
      <trkpt lat="41.620340100" lon="2.501499100">
        <ele>394.30</ele>
        <time>2013-02-24T10:36:41Z</time>
      </trkpt>
      <trkpt lat="41.620149300" lon="2.501464500">
        <ele>392.40</ele>
        <time>2013-02-24T10:36:45Z</time>
      </trkpt>
      <trkpt lat="41.620090600" lon="2.501408100">
        <ele>390.90</ele>
        <time>2013-02-24T10:36:48Z</time>
      </trkpt>
      <trkpt lat="41.619945200" lon="2.501181300">
        <ele>389.00</ele>
        <time>2013-02-24T10:36:52Z</time>
      </trkpt>
      <trkpt lat="41.619786100" lon="2.501004400">
        <ele>386.10</ele>
        <time>2013-02-24T10:36:57Z</time>
      </trkpt>
      <trkpt lat="41.619749400" lon="2.500969500">
        <ele>386.10</ele>
        <time>2013-02-24T10:36:59Z</time>
      </trkpt>
      <trkpt lat="41.619630000" lon="2.500763700">
        <ele>382.70</ele>
        <time>2013-02-24T10:37:04Z</time>
      </trkpt>
      <trkpt lat="41.619583100" lon="2.500701200">
        <ele>381.30</ele>
        <time>2013-02-24T10:37:06Z</time>
      </trkpt>
      <trkpt lat="41.619419700" lon="2.500689000">
        <ele>377.90</ele>
        <time>2013-02-24T10:37:11Z</time>
      </trkpt>
      <trkpt lat="41.619373900" lon="2.500774600">
        <ele>376.50</ele>
        <time>2013-02-24T10:37:14Z</time>
      </trkpt>
      <trkpt lat="41.619446200" lon="2.500973500">
        <ele>373.10</ele>
        <time>2013-02-24T10:37:21Z</time>
      </trkpt>
      <trkpt lat="41.619460300" lon="2.501019100">
        <ele>373.10</ele>
        <time>2013-02-24T10:37:21Z</time>
      </trkpt>
      <trkpt lat="41.619511100" lon="2.501150000">
        <ele>369.80</ele>
        <time>2013-02-24T10:37:25Z</time>
      </trkpt>
      <trkpt lat="41.619602300" lon="2.501361700">
        <ele>365.40</ele>
        <time>2013-02-24T10:37:30Z</time>
      </trkpt>
      <trkpt lat="41.619582600" lon="2.501581400">
        <ele>362.10</ele>
        <time>2013-02-24T10:37:35Z</time>
      </trkpt>
      <trkpt lat="41.619543800" lon="2.501915500">
        <ele>356.30</ele>
        <time>2013-02-24T10:37:41Z</time>
      </trkpt>
      <trkpt lat="41.619573900" lon="2.502117700">
        <ele>352.90</ele>
        <time>2013-02-24T10:37:44Z</time>
      </trkpt>
      <trkpt lat="41.619584400" lon="2.502323500">
        <ele>348.10</ele>
        <time>2013-02-24T10:37:49Z</time>
      </trkpt>
      <trkpt lat="41.619601600" lon="2.502605400">
        <ele>344.80</ele>
        <time>2013-02-24T10:37:54Z</time>
      </trkpt>
      <trkpt lat="41.619586900" lon="2.502704200">
        <ele>342.90</ele>
        <time>2013-02-24T10:37:56Z</time>
      </trkpt>
      <trkpt lat="41.619563600" lon="2.502925700">
        <ele>338.50</ele>
        <time>2013-02-24T10:38:00Z</time>
      </trkpt>
      <trkpt lat="41.619550600" lon="2.503026600">
        <ele>337.60</ele>
        <time>2013-02-24T10:38:03Z</time>
      </trkpt>
      <trkpt lat="41.619537500" lon="2.503196700">
        <ele>335.20</ele>
        <time>2013-02-24T10:38:07Z</time>
      </trkpt>
      <trkpt lat="41.619481300" lon="2.503219100">
        <ele>334.70</ele>
        <time>2013-02-24T10:38:10Z</time>
      </trkpt>
      <trkpt lat="41.619463900" lon="2.503034200">
        <ele>333.20</ele>
        <time>2013-02-24T10:38:14Z</time>
      </trkpt>
      <trkpt lat="41.619454600" lon="2.502915700">
        <ele>332.30</ele>
        <time>2013-02-24T10:38:17Z</time>
      </trkpt>
      <trkpt lat="41.619447900" lon="2.502766200">
        <ele>331.30</ele>
        <time>2013-02-24T10:38:19Z</time>
      </trkpt>
      <trkpt lat="41.619364500" lon="2.502779900">
        <ele>328.90</ele>
        <time>2013-02-24T10:38:24Z</time>
      </trkpt>
      <trkpt lat="41.619346400" lon="2.502930600">
        <ele>326.50</ele>
        <time>2013-02-24T10:38:28Z</time>
      </trkpt>
      <trkpt lat="41.619330300" lon="2.503051300">
        <ele>325.50</ele>
        <time>2013-02-24T10:38:29Z</time>
      </trkpt>
      <trkpt lat="41.619248800" lon="2.503305900">
        <ele>322.70</ele>
        <time>2013-02-24T10:38:35Z</time>
      </trkpt>
      <trkpt lat="41.619113300" lon="2.503688200">
        <ele>318.80</ele>
        <time>2013-02-24T10:38:43Z</time>
      </trkpt>
      <trkpt lat="41.619034400" lon="2.503964600">
        <ele>315.00</ele>
        <time>2013-02-24T10:38:47Z</time>
      </trkpt>
      <trkpt lat="41.619020900" lon="2.504005600">
        <ele>314.50</ele>
        <time>2013-02-24T10:38:48Z</time>
      </trkpt>
      <trkpt lat="41.618994200" lon="2.504047400">
        <ele>313.50</ele>
        <time>2013-02-24T10:38:50Z</time>
      </trkpt>
      <trkpt lat="41.618921000" lon="2.504026400">
        <ele>312.60</ele>
        <time>2013-02-24T10:38:54Z</time>
      </trkpt>
      <trkpt lat="41.618910000" lon="2.503929200">
        <ele>310.60</ele>
        <time>2013-02-24T10:38:57Z</time>
      </trkpt>
      <trkpt lat="41.618889700" lon="2.503705000">
        <ele>308.70</ele>
        <time>2013-02-24T10:38:59Z</time>
      </trkpt>
      <trkpt lat="41.618905000" lon="2.503462000">
        <ele>305.40</ele>
        <time>2013-02-24T10:39:02Z</time>
      </trkpt>
      <trkpt lat="41.618947500" lon="2.503253400">
        <ele>303.40</ele>
        <time>2013-02-24T10:39:06Z</time>
      </trkpt>
      <trkpt lat="41.618953800" lon="2.503201400">
        <ele>302.50</ele>
        <time>2013-02-24T10:39:06Z</time>
      </trkpt>
      <trkpt lat="41.618870100" lon="2.503093700">
        <ele>300.10</ele>
        <time>2013-02-24T10:39:11Z</time>
      </trkpt>
      <trkpt lat="41.618786800" lon="2.503109200">
        <ele>298.10</ele>
        <time>2013-02-24T10:39:13Z</time>
      </trkpt>
      <trkpt lat="41.618571500" lon="2.503195800">
        <ele>294.80</ele>
        <time>2013-02-24T10:39:16Z</time>
      </trkpt>
      <trkpt lat="41.618470300" lon="2.503295000">
        <ele>292.90</ele>
        <time>2013-02-24T10:39:20Z</time>
      </trkpt>
      <trkpt lat="41.618404300" lon="2.503387700">
        <ele>292.40</ele>
        <time>2013-02-24T10:39:23Z</time>
      </trkpt>
      <trkpt lat="41.618305300" lon="2.503556300">
        <ele>290.90</ele>
        <time>2013-02-24T10:39:27Z</time>
      </trkpt>
      <trkpt lat="41.618195900" lon="2.503847800">
        <ele>287.60</ele>
        <time>2013-02-24T10:39:32Z</time>
      </trkpt>
      <trkpt lat="41.618151300" lon="2.504063700">
        <ele>283.20</ele>
        <time>2013-02-24T10:39:34Z</time>
      </trkpt>
      <trkpt lat="41.617977700" lon="2.504451900">
        <ele>278.40</ele>
        <time>2013-02-24T10:39:41Z</time>
      </trkpt>
      <trkpt lat="41.617898000" lon="2.504651300">
        <ele>277.00</ele>
        <time>2013-02-24T10:39:44Z</time>
      </trkpt>
      <trkpt lat="41.617820400" lon="2.504783300">
        <ele>275.60</ele>
        <time>2013-02-24T10:39:46Z</time>
      </trkpt>
      <trkpt lat="41.617679500" lon="2.505124400">
        <ele>271.20</ele>
        <time>2013-02-24T10:39:51Z</time>
      </trkpt>
      <trkpt lat="41.617658900" lon="2.505191700">
        <ele>271.20</ele>
        <time>2013-02-24T10:39:51Z</time>
      </trkpt>
      <trkpt lat="41.617620900" lon="2.505475000">
        <ele>265.90</ele>
        <time>2013-02-24T10:39:55Z</time>
      </trkpt>
      <trkpt lat="41.617599400" lon="2.505563600">
        <ele>264.00</ele>
        <time>2013-02-24T10:39:56Z</time>
      </trkpt>
      <trkpt lat="41.617547900" lon="2.505743200">
        <ele>261.10</ele>
        <time>2013-02-24T10:39:58Z</time>
      </trkpt>
      <trkpt lat="41.617524000" lon="2.506163600">
        <ele>255.90</ele>
        <time>2013-02-24T10:40:03Z</time>
      </trkpt>
      <trkpt lat="41.617552000" lon="2.506440600">
        <ele>253.00</ele>
        <time>2013-02-24T10:40:07Z</time>
      </trkpt>
      <trkpt lat="41.617512600" lon="2.506923900">
        <ele>246.70</ele>
        <time>2013-02-24T10:40:12Z</time>
      </trkpt>
      <trkpt lat="41.617518900" lon="2.507401600">
        <ele>243.80</ele>
        <time>2013-02-24T10:40:16Z</time>
      </trkpt>
      <trkpt lat="41.617465100" lon="2.507699400">
        <ele>240.50</ele>
        <time>2013-02-24T10:40:19Z</time>
      </trkpt>
      <trkpt lat="41.617432900" lon="2.508148600">
        <ele>235.70</ele>
        <time>2013-02-24T10:40:23Z</time>
      </trkpt>
      <trkpt lat="41.617402000" lon="2.508243700">
        <ele>234.20</ele>
        <time>2013-02-24T10:40:24Z</time>
      </trkpt>
      <trkpt lat="41.617332700" lon="2.508426700">
        <ele>233.30</ele>
        <time>2013-02-24T10:40:26Z</time>
      </trkpt>
      <trkpt lat="41.617193700" lon="2.508829000">
        <ele>230.40</ele>
        <time>2013-02-24T10:40:29Z</time>
      </trkpt>
      <trkpt lat="41.617070300" lon="2.509205300">
        <ele>227.00</ele>
        <time>2013-02-24T10:40:33Z</time>
      </trkpt>
      <trkpt lat="41.617014000" lon="2.509356300">
        <ele>225.60</ele>
        <time>2013-02-24T10:40:35Z</time>
      </trkpt>
      <trkpt lat="41.616900600" lon="2.509633600">
        <ele>224.60</ele>
        <time>2013-02-24T10:40:40Z</time>
      </trkpt>
      <trkpt lat="41.616796700" lon="2.509974600">
        <ele>222.70</ele>
        <time>2013-02-24T10:40:47Z</time>
      </trkpt>
      <trkpt lat="41.616799000" lon="2.510261800">
        <ele>219.80</ele>
        <time>2013-02-24T10:40:52Z</time>
      </trkpt>
      <trkpt lat="41.616716500" lon="2.510500300">
        <ele>216.90</ele>
        <time>2013-02-24T10:40:57Z</time>
      </trkpt>
      <trkpt lat="41.616626200" lon="2.510617800">
        <ele>215.50</ele>
        <time>2013-02-24T10:41:01Z</time>
      </trkpt>
      <trkpt lat="41.616531900" lon="2.510752100">
        <ele>214.00</ele>
        <time>2013-02-24T10:41:04Z</time>
      </trkpt>
      <trkpt lat="41.616450500" lon="2.510955300">
        <ele>212.10</ele>
        <time>2013-02-24T10:41:08Z</time>
      </trkpt>
      <trkpt lat="41.616394300" lon="2.511300300">
        <ele>210.20</ele>
        <time>2013-02-24T10:41:15Z</time>
      </trkpt>
      <trkpt lat="41.616388000" lon="2.511500700">
        <ele>209.70</ele>
        <time>2013-02-24T10:41:20Z</time>
      </trkpt>
      <trkpt lat="41.616459000" lon="2.511726000">
        <ele>209.20</ele>
        <time>2013-02-24T10:41:27Z</time>
      </trkpt>
      <trkpt lat="41.616615000" lon="2.512055300">
        <ele>207.80</ele>
        <time>2013-02-24T10:41:34Z</time>
      </trkpt>
      <trkpt lat="41.616788900" lon="2.512469000">
        <ele>206.30</ele>
        <time>2013-02-24T10:41:43Z</time>
      </trkpt>
      <trkpt lat="41.616802200" lon="2.512525800">
        <ele>206.30</ele>
        <time>2013-02-24T10:41:43Z</time>
      </trkpt>
      <trkpt lat="41.616869100" lon="2.512904200">
        <ele>205.40</ele>
        <time>2013-02-24T10:41:50Z</time>
      </trkpt>
      <trkpt lat="41.616875500" lon="2.512975900">
        <ele>205.40</ele>
        <time>2013-02-24T10:41:50Z</time>
      </trkpt>
      <trkpt lat="41.616888500" lon="2.513652900">
        <ele>203.50</ele>
        <time>2013-02-24T10:42:00Z</time>
      </trkpt>
      <trkpt lat="41.616877400" lon="2.514442100">
        <ele>200.60</ele>
        <time>2013-02-24T10:42:09Z</time>
      </trkpt>
      <trkpt lat="41.616865600" lon="2.514995000">
        <ele>199.60</ele>
        <time>2013-02-24T10:42:16Z</time>
      </trkpt>
      <trkpt lat="41.616856700" lon="2.515381200">
        <ele>198.20</ele>
        <time>2013-02-24T10:42:21Z</time>
      </trkpt>
      <trkpt lat="41.616844400" lon="2.516034300">
        <ele>195.80</ele>
        <time>2013-02-24T10:42:30Z</time>
      </trkpt>
      <trkpt lat="41.616801400" lon="2.516713800">
        <ele>193.80</ele>
        <time>2013-02-24T10:42:37Z</time>
      </trkpt>
      <trkpt lat="41.616750000" lon="2.517311000">
        <ele>191.90</ele>
        <time>2013-02-24T10:42:45Z</time>
      </trkpt>
      <trkpt lat="41.616724100" lon="2.517634400">
        <ele>190.50</ele>
        <time>2013-02-24T10:42:49Z</time>
      </trkpt>
      <trkpt lat="41.616719700" lon="2.518245600">
        <ele>188.10</ele>
        <time>2013-02-24T10:42:56Z</time>
      </trkpt>
      <trkpt lat="41.616713300" lon="2.518383700">
        <ele>187.60</ele>
        <time>2013-02-24T10:42:59Z</time>
      </trkpt>
      <trkpt lat="41.616621800" lon="2.518699400">
        <ele>187.10</ele>
        <time>2013-02-24T10:43:05Z</time>
      </trkpt>
      <trkpt lat="41.616555900" lon="2.518947700">
        <ele>187.10</ele>
        <time>2013-02-24T10:43:10Z</time>
      </trkpt>
      <trkpt lat="41.616521700" lon="2.519176400">
        <ele>186.10</ele>
        <time>2013-02-24T10:43:15Z</time>
      </trkpt>
      <trkpt lat="41.616458000" lon="2.519501900">
        <ele>185.70</ele>
        <time>2013-02-24T10:43:22Z</time>
      </trkpt>
      <trkpt lat="41.616413200" lon="2.519673400">
        <ele>184.70</ele>
        <time>2013-02-24T10:43:24Z</time>
      </trkpt>
      <trkpt lat="41.616292000" lon="2.520060200">
        <ele>183.80</ele>
        <time>2013-02-24T10:43:31Z</time>
      </trkpt>
      <trkpt lat="41.616130800" lon="2.520536000">
        <ele>182.30</ele>
        <time>2013-02-24T10:43:39Z</time>
      </trkpt>
      <trkpt lat="41.615992800" lon="2.521016900">
        <ele>181.40</ele>
        <time>2013-02-24T10:43:48Z</time>
      </trkpt>
      <trkpt lat="41.615946800" lon="2.521325200">
        <ele>180.90</ele>
        <time>2013-02-24T10:43:53Z</time>
      </trkpt>
      <trkpt lat="41.615912100" lon="2.521596000">
        <ele>180.40</ele>
        <time>2013-02-24T10:43:57Z</time>
      </trkpt>
      <trkpt lat="41.615854000" lon="2.521995500">
        <ele>179.40</ele>
        <time>2013-02-24T10:44:04Z</time>
      </trkpt>
      <trkpt lat="41.615816900" lon="2.522252400">
        <ele>178.50</ele>
        <time>2013-02-24T10:44:07Z</time>
      </trkpt>
      <trkpt lat="41.615778200" lon="2.522529400">
        <ele>177.50</ele>
        <time>2013-02-24T10:44:11Z</time>
      </trkpt>
      <trkpt lat="41.615692100" lon="2.523158600">
        <ele>175.60</ele>
        <time>2013-02-24T10:44:19Z</time>
      </trkpt>
      <trkpt lat="41.615622300" lon="2.523770700">
        <ele>173.70</ele>
        <time>2013-02-24T10:44:28Z</time>
      </trkpt>
      <trkpt lat="41.615599900" lon="2.524140000">
        <ele>172.20</ele>
        <time>2013-02-24T10:44:33Z</time>
      </trkpt>
      <trkpt lat="41.615547900" lon="2.524755400">
        <ele>169.80</ele>
        <time>2013-02-24T10:44:40Z</time>
      </trkpt>
      <trkpt lat="41.615510100" lon="2.525289700">
        <ele>167.40</ele>
        <time>2013-02-24T10:44:47Z</time>
      </trkpt>
      <trkpt lat="41.615505200" lon="2.525662900">
        <ele>166.00</ele>
        <time>2013-02-24T10:44:53Z</time>
      </trkpt>
      <trkpt lat="41.615517000" lon="2.525942900">
        <ele>165.50</ele>
        <time>2013-02-24T10:44:56Z</time>
      </trkpt>
      <trkpt lat="41.615584900" lon="2.526721300">
        <ele>163.60</ele>
        <time>2013-02-24T10:45:08Z</time>
      </trkpt>
      <trkpt lat="41.615556600" lon="2.527155300">
        <ele>161.20</ele>
        <time>2013-02-24T10:45:13Z</time>
      </trkpt>
      <trkpt lat="41.615467500" lon="2.527636500">
        <ele>158.80</ele>
        <time>2013-02-24T10:45:20Z</time>
      </trkpt>
      <trkpt lat="41.615390300" lon="2.528035800">
        <ele>157.80</ele>
        <time>2013-02-24T10:45:26Z</time>
      </trkpt>
      <trkpt lat="41.615246900" lon="2.528735900">
        <ele>155.90</ele>
        <time>2013-02-24T10:45:38Z</time>
      </trkpt>
      <trkpt lat="41.615238500" lon="2.528796600">
        <ele>155.90</ele>
        <time>2013-02-24T10:45:38Z</time>
      </trkpt>
      <trkpt lat="41.615212500" lon="2.528909300">
        <ele>155.40</ele>
        <time>2013-02-24T10:45:41Z</time>
      </trkpt>
      <trkpt lat="41.615172400" lon="2.529248900">
        <ele>154.40</ele>
        <time>2013-02-24T10:45:47Z</time>
      </trkpt>
      <trkpt lat="41.615180300" lon="2.529388800">
        <ele>153.90</ele>
        <time>2013-02-24T10:45:48Z</time>
      </trkpt>
      <trkpt lat="41.615183400" lon="2.529525100">
        <ele>153.50</ele>
        <time>2013-02-24T10:45:50Z</time>
      </trkpt>
      <trkpt lat="41.615171200" lon="2.529660400">
        <ele>153.00</ele>
        <time>2013-02-24T10:45:52Z</time>
      </trkpt>
      <trkpt lat="41.615159800" lon="2.530121000">
        <ele>151.50</ele>
        <time>2013-02-24T10:45:59Z</time>
      </trkpt>
      <trkpt lat="41.615156700" lon="2.530286000">
        <ele>151.50</ele>
        <time>2013-02-24T10:46:02Z</time>
      </trkpt>
      <trkpt lat="41.615147100" lon="2.530632100">
        <ele>150.10</ele>
        <time>2013-02-24T10:46:07Z</time>
      </trkpt>
      <trkpt lat="41.615111500" lon="2.531107300">
        <ele>148.70</ele>
        <time>2013-02-24T10:46:14Z</time>
      </trkpt>
      <trkpt lat="41.615138900" lon="2.531428700">
        <ele>147.20</ele>
        <time>2013-02-24T10:46:21Z</time>
      </trkpt>
      <trkpt lat="41.615225600" lon="2.531677400">
        <ele>145.30</ele>
        <time>2013-02-24T10:46:25Z</time>
      </trkpt>
      <trkpt lat="41.615213700" lon="2.531835000">
        <ele>145.30</ele>
        <time>2013-02-24T10:46:28Z</time>
      </trkpt>
      <trkpt lat="41.615209400" lon="2.532057800">
        <ele>144.80</ele>
        <time>2013-02-24T10:46:32Z</time>
      </trkpt>
      <trkpt lat="41.615182200" lon="2.532278300">
        <ele>143.90</ele>
        <time>2013-02-24T10:46:37Z</time>
      </trkpt>
      <trkpt lat="41.615051700" lon="2.532750300">
        <ele>142.90</ele>
        <time>2013-02-24T10:46:46Z</time>
      </trkpt>
      <trkpt lat="41.615023500" lon="2.532855100">
        <ele>142.90</ele>
        <time>2013-02-24T10:46:48Z</time>
      </trkpt>
      <trkpt lat="41.615002600" lon="2.532965800">
        <ele>142.40</ele>
        <time>2013-02-24T10:46:49Z</time>
      </trkpt>
      <trkpt lat="41.614944800" lon="2.533179200">
        <ele>141.90</ele>
        <time>2013-02-24T10:46:53Z</time>
      </trkpt>
      <trkpt lat="41.614778600" lon="2.533742900">
        <ele>140.00</ele>
        <time>2013-02-24T10:47:03Z</time>
      </trkpt>
      <trkpt lat="41.614646700" lon="2.534138700">
        <ele>139.10</ele>
        <time>2013-02-24T10:47:10Z</time>
      </trkpt>
      <trkpt lat="41.614504500" lon="2.534598200">
        <ele>137.60</ele>
        <time>2013-02-24T10:47:19Z</time>
      </trkpt>
      <trkpt lat="41.614337200" lon="2.535044500">
        <ele>135.70</ele>
        <time>2013-02-24T10:47:26Z</time>
      </trkpt>
      <trkpt lat="41.614194300" lon="2.535471100">
        <ele>133.80</ele>
        <time>2013-02-24T10:47:35Z</time>
      </trkpt>
      <trkpt lat="41.614157000" lon="2.535641300">
        <ele>133.80</ele>
        <time>2013-02-24T10:47:38Z</time>
      </trkpt>
      <trkpt lat="41.614014000" lon="2.536012200">
        <ele>132.80</ele>
        <time>2013-02-24T10:47:45Z</time>
      </trkpt>
      <trkpt lat="41.613786000" lon="2.536551000">
        <ele>130.40</ele>
        <time>2013-02-24T10:47:55Z</time>
      </trkpt>
      <trkpt lat="41.613727800" lon="2.536653500">
        <ele>129.40</ele>
        <time>2013-02-24T10:48:01Z</time>
      </trkpt>
      <trkpt lat="41.613643400" lon="2.536789600">
        <ele>129.40</ele>
        <time>2013-02-24T10:48:06Z</time>
      </trkpt>
      <trkpt lat="41.613500600" lon="2.537041000">
        <ele>128.50</ele>
        <time>2013-02-24T10:48:15Z</time>
      </trkpt>
      <trkpt lat="41.613311100" lon="2.537297500">
        <ele>128.00</ele>
        <time>2013-02-24T10:48:23Z</time>
      </trkpt>
      <trkpt lat="41.613057200" lon="2.537571700">
        <ele>127.00</ele>
        <time>2013-02-24T10:48:32Z</time>
      </trkpt>
      <trkpt lat="41.612876500" lon="2.537776100">
        <ele>126.10</ele>
        <time>2013-02-24T10:48:39Z</time>
      </trkpt>
      <trkpt lat="41.612705500" lon="2.537950600">
        <ele>125.10</ele>
        <time>2013-02-24T10:48:44Z</time>
      </trkpt>
      <trkpt lat="41.612648900" lon="2.538011200">
        <ele>125.10</ele>
        <time>2013-02-24T10:48:46Z</time>
      </trkpt>
      <trkpt lat="41.612316700" lon="2.538434400">
        <ele>123.20</ele>
        <time>2013-02-24T10:48:58Z</time>
      </trkpt>
      <trkpt lat="41.612173700" lon="2.538719700">
        <ele>122.20</ele>
        <time>2013-02-24T10:49:05Z</time>
      </trkpt>
      <trkpt lat="41.612050800" lon="2.538917000">
        <ele>121.30</ele>
        <time>2013-02-24T10:49:12Z</time>
      </trkpt>
      <trkpt lat="41.611970100" lon="2.539025500">
        <ele>121.30</ele>
        <time>2013-02-24T10:49:17Z</time>
      </trkpt>
      <trkpt lat="41.611885000" lon="2.539023300">
        <ele>120.30</ele>
        <time>2013-02-24T10:49:21Z</time>
      </trkpt>
      <trkpt lat="41.611818200" lon="2.538862300">
        <ele>121.30</ele>
        <time>2013-02-24T10:49:28Z</time>
      </trkpt>
      <trkpt lat="41.611776800" lon="2.538756100">
        <ele>122.70</ele>
        <time>2013-02-24T10:49:33Z</time>
      </trkpt>
      <trkpt lat="41.611660600" lon="2.538754100">
        <ele>123.20</ele>
        <time>2013-02-24T10:49:40Z</time>
      </trkpt>
      <trkpt lat="41.611391300" lon="2.538754600">
        <ele>121.70</ele>
        <time>2013-02-24T10:49:47Z</time>
      </trkpt>
      <trkpt lat="41.611146400" lon="2.538769100">
        <ele>120.80</ele>
        <time>2013-02-24T10:49:54Z</time>
      </trkpt>
      <trkpt lat="41.610915000" lon="2.538862400">
        <ele>119.30</ele>
        <time>2013-02-24T10:49:59Z</time>
      </trkpt>
      <trkpt lat="41.610647000" lon="2.539013100">
        <ele>117.40</ele>
        <time>2013-02-24T10:50:08Z</time>
      </trkpt>
      <trkpt lat="41.610442800" lon="2.539113600">
        <ele>116.50</ele>
        <time>2013-02-24T10:50:13Z</time>
      </trkpt>
      <trkpt lat="41.610246500" lon="2.539231700">
        <ele>115.50</ele>
        <time>2013-02-24T10:50:20Z</time>
      </trkpt>
      <trkpt lat="41.609949100" lon="2.539416100">
        <ele>114.10</ele>
        <time>2013-02-24T10:50:27Z</time>
      </trkpt>
      <trkpt lat="41.609810600" lon="2.539509500">
        <ele>114.10</ele>
        <time>2013-02-24T10:50:30Z</time>
      </trkpt>
      <trkpt lat="41.609553500" lon="2.539673900">
        <ele>112.60</ele>
        <time>2013-02-24T10:50:37Z</time>
      </trkpt>
      <trkpt lat="41.609276500" lon="2.539862100">
        <ele>111.20</ele>
        <time>2013-02-24T10:50:46Z</time>
      </trkpt>
      <trkpt lat="41.609162700" lon="2.540052900">
        <ele>110.20</ele>
        <time>2013-02-24T10:50:51Z</time>
      </trkpt>
      <trkpt lat="41.609137900" lon="2.540155800">
        <ele>109.20</ele>
        <time>2013-02-24T10:50:55Z</time>
      </trkpt>
      <trkpt lat="41.608980700" lon="2.540317900">
        <ele>109.20</ele>
        <time>2013-02-24T10:51:02Z</time>
      </trkpt>
      <trkpt lat="41.608875500" lon="2.540447000">
        <ele>109.20</ele>
        <time>2013-02-24T10:51:07Z</time>
      </trkpt>
      <trkpt lat="41.608818900" lon="2.540413800">
        <ele>108.80</ele>
        <time>2013-02-24T10:51:12Z</time>
      </trkpt>
      <trkpt lat="41.608810100" lon="2.540330500">
        <ele>108.30</ele>
        <time>2013-02-24T10:51:14Z</time>
      </trkpt>
      <trkpt lat="41.608692000" lon="2.540288500">
        <ele>107.80</ele>
        <time>2013-02-24T10:51:19Z</time>
      </trkpt>
      <trkpt lat="41.608381100" lon="2.540341900">
        <ele>106.80</ele>
        <time>2013-02-24T10:51:28Z</time>
      </trkpt>
      <trkpt lat="41.608135400" lon="2.540395000">
        <ele>106.40</ele>
        <time>2013-02-24T10:51:35Z</time>
      </trkpt>
      <trkpt lat="41.607866000" lon="2.540422200">
        <ele>105.40</ele>
        <time>2013-02-24T10:51:44Z</time>
      </trkpt>
      <trkpt lat="41.607695100" lon="2.540446000">
        <ele>105.40</ele>
        <time>2013-02-24T10:51:49Z</time>
      </trkpt>
      <trkpt lat="41.607632100" lon="2.540560000">
        <ele>104.90</ele>
        <time>2013-02-24T10:51:54Z</time>
      </trkpt>
      <trkpt lat="41.607511300" lon="2.540740100">
        <ele>104.90</ele>
        <time>2013-02-24T10:52:01Z</time>
      </trkpt>
      <trkpt lat="41.607501900" lon="2.540768500">
        <ele>104.90</ele>
        <time>2013-02-24T10:52:01Z</time>
      </trkpt>
      <trkpt lat="41.607392600" lon="2.540815500">
        <ele>104.40</ele>
        <time>2013-02-24T10:52:06Z</time>
      </trkpt>
      <trkpt lat="41.607112200" lon="2.540774900">
        <ele>104.00</ele>
        <time>2013-02-24T10:52:15Z</time>
      </trkpt>
      <trkpt lat="41.606877100" lon="2.540695600">
        <ele>103.00</ele>
        <time>2013-02-24T10:52:22Z</time>
      </trkpt>
      <trkpt lat="41.606625100" lon="2.540576200">
        <ele>102.50</ele>
        <time>2013-02-24T10:52:31Z</time>
      </trkpt>
      <trkpt lat="41.606383300" lon="2.540445300">
        <ele>101.60</ele>
        <time>2013-02-24T10:52:38Z</time>
      </trkpt>
      <trkpt lat="41.606131700" lon="2.540331600">
        <ele>100.60</ele>
        <time>2013-02-24T10:52:46Z</time>
      </trkpt>
      <trkpt lat="41.606083500" lon="2.540294500">
        <ele>100.10</ele>
        <time>2013-02-24T10:52:52Z</time>
      </trkpt>
      <trkpt lat="41.606071000" lon="2.540298600">
        <ele>100.10</ele>
        <time>2013-02-24T10:53:02Z</time>
      </trkpt>
      <trkpt lat="41.606059500" lon="2.540292600">
        <ele>100.10</ele>
        <time>2013-02-24T10:53:05Z</time>
      </trkpt>
      <trkpt lat="41.605931800" lon="2.540277400">
        <ele>100.60</ele>
        <time>2013-02-24T10:53:12Z</time>
      </trkpt>
      <trkpt lat="41.605727900" lon="2.540185300">
        <ele>99.20</ele>
        <time>2013-02-24T10:53:19Z</time>
      </trkpt>
      <trkpt lat="41.605435000" lon="2.540116400">
        <ele>98.70</ele>
        <time>2013-02-24T10:53:28Z</time>
      </trkpt>
      <trkpt lat="41.605109400" lon="2.540069500">
        <ele>98.20</ele>
        <time>2013-02-24T10:53:37Z</time>
      </trkpt>
      <trkpt lat="41.604816100" lon="2.540014900">
        <ele>97.20</ele>
        <time>2013-02-24T10:53:47Z</time>
      </trkpt>
      <trkpt lat="41.604619500" lon="2.539976100">
        <ele>96.30</ele>
        <time>2013-02-24T10:53:54Z</time>
      </trkpt>
      <trkpt lat="41.604471200" lon="2.539916000">
        <ele>96.30</ele>
        <time>2013-02-24T10:53:59Z</time>
      </trkpt>
      <trkpt lat="41.604349300" lon="2.539959700">
        <ele>97.20</ele>
        <time>2013-02-24T10:54:05Z</time>
      </trkpt>
      <trkpt lat="41.604136100" lon="2.540067200">
        <ele>96.30</ele>
        <time>2013-02-24T10:54:13Z</time>
      </trkpt>
      <trkpt lat="41.603934500" lon="2.540148700">
        <ele>96.80</ele>
        <time>2013-02-24T10:54:22Z</time>
      </trkpt>
      <trkpt lat="41.603679300" lon="2.540337600">
        <ele>95.80</ele>
        <time>2013-02-24T10:54:31Z</time>
      </trkpt>
      <trkpt lat="41.603413500" lon="2.540530300">
        <ele>94.30</ele>
        <time>2013-02-24T10:54:38Z</time>
      </trkpt>
      <trkpt lat="41.603059100" lon="2.540724500">
        <ele>92.90</ele>
        <time>2013-02-24T10:54:48Z</time>
      </trkpt>
      <trkpt lat="41.602951700" lon="2.540792500">
        <ele>92.40</ele>
        <time>2013-02-24T10:54:52Z</time>
      </trkpt>
      <trkpt lat="41.602871900" lon="2.540816600">
        <ele>91.90</ele>
        <time>2013-02-24T10:54:54Z</time>
      </trkpt>
      <trkpt lat="41.602527900" lon="2.540960800">
        <ele>90.00</ele>
        <time>2013-02-24T10:55:02Z</time>
      </trkpt>
      <trkpt lat="41.602264500" lon="2.541030200">
        <ele>88.10</ele>
        <time>2013-02-24T10:55:09Z</time>
      </trkpt>
      <trkpt lat="41.601901400" lon="2.541158700">
        <ele>86.70</ele>
        <time>2013-02-24T10:55:18Z</time>
      </trkpt>
      <trkpt lat="41.601633300" lon="2.541228100">
        <ele>85.70</ele>
        <time>2013-02-24T10:55:27Z</time>
      </trkpt>
      <trkpt lat="41.601563200" lon="2.541242100">
        <ele>84.20</ele>
        <time>2013-02-24T10:55:30Z</time>
      </trkpt>
      <trkpt lat="41.601436700" lon="2.541334500">
        <ele>83.80</ele>
        <time>2013-02-24T10:55:35Z</time>
      </trkpt>
      <trkpt lat="41.601208500" lon="2.541342700">
        <ele>84.20</ele>
        <time>2013-02-24T10:55:42Z</time>
      </trkpt>
      <trkpt lat="41.600937100" lon="2.541402900">
        <ele>84.70</ele>
        <time>2013-02-24T10:55:51Z</time>
      </trkpt>
      <trkpt lat="41.600678900" lon="2.541453600">
        <ele>84.20</ele>
        <time>2013-02-24T10:55:58Z</time>
      </trkpt>
      <trkpt lat="41.600486800" lon="2.541513500">
        <ele>83.80</ele>
        <time>2013-02-24T10:56:05Z</time>
      </trkpt>
      <trkpt lat="41.600206000" lon="2.541627400">
        <ele>81.40</ele>
        <time>2013-02-24T10:56:12Z</time>
      </trkpt>
      <trkpt lat="41.599798000" lon="2.541756900">
        <ele>78.50</ele>
        <time>2013-02-24T10:56:19Z</time>
      </trkpt>
      <trkpt lat="41.599364200" lon="2.541869600">
        <ele>76.10</ele>
        <time>2013-02-24T10:56:26Z</time>
      </trkpt>
      <trkpt lat="41.599209600" lon="2.541887900">
        <ele>76.10</ele>
        <time>2013-02-24T10:56:29Z</time>
      </trkpt>
      <trkpt lat="41.599091800" lon="2.541946700">
        <ele>74.60</ele>
        <time>2013-02-24T10:56:33Z</time>
      </trkpt>
      <trkpt lat="41.598930100" lon="2.541945500">
        <ele>74.60</ele>
        <time>2013-02-24T10:56:36Z</time>
      </trkpt>
      <trkpt lat="41.598531200" lon="2.541983400">
        <ele>73.20</ele>
        <time>2013-02-24T10:56:45Z</time>
      </trkpt>
      <trkpt lat="41.598061300" lon="2.542027900">
        <ele>72.20</ele>
        <time>2013-02-24T10:56:57Z</time>
      </trkpt>
      <trkpt lat="41.597656200" lon="2.542086300">
        <ele>70.80</ele>
        <time>2013-02-24T10:57:06Z</time>
      </trkpt>
      <trkpt lat="41.597428500" lon="2.542142600">
        <ele>69.80</ele>
        <time>2013-02-24T10:57:13Z</time>
      </trkpt>
      <trkpt lat="41.597086700" lon="2.542194900">
        <ele>68.40</ele>
        <time>2013-02-24T10:57:20Z</time>
      </trkpt>
      <trkpt lat="41.596605300" lon="2.542251100">
        <ele>66.90</ele>
        <time>2013-02-24T10:57:29Z</time>
      </trkpt>
      <trkpt lat="41.595933900" lon="2.542327200">
        <ele>64.10</ele>
        <time>2013-02-24T10:57:41Z</time>
      </trkpt>
      <trkpt lat="41.595544300" lon="2.542368500">
        <ele>63.10</ele>
        <time>2013-02-24T10:57:49Z</time>
      </trkpt>
      <trkpt lat="41.595143900" lon="2.542396900">
        <ele>61.20</ele>
        <time>2013-02-24T10:57:56Z</time>
      </trkpt>
      <trkpt lat="41.594721200" lon="2.542435500">
        <ele>59.70</ele>
        <time>2013-02-24T10:58:03Z</time>
      </trkpt>
      <trkpt lat="41.594197300" lon="2.542447200">
        <ele>57.30</ele>
        <time>2013-02-24T10:58:12Z</time>
      </trkpt>
      <trkpt lat="41.593777700" lon="2.542456100">
        <ele>55.90</ele>
        <time>2013-02-24T10:58:21Z</time>
      </trkpt>
      <trkpt lat="41.593379300" lon="2.542436400">
        <ele>54.50</ele>
        <time>2013-02-24T10:58:28Z</time>
      </trkpt>
      <trkpt lat="41.593335600" lon="2.542432300">
        <ele>54.00</ele>
        <time>2013-02-24T10:58:30Z</time>
      </trkpt>
      <trkpt lat="41.593129700" lon="2.542356900">
        <ele>52.50</ele>
        <time>2013-02-24T10:58:35Z</time>
      </trkpt>
      <trkpt lat="41.593102700" lon="2.542344100">
        <ele>52.50</ele>
        <time>2013-02-24T10:58:36Z</time>
      </trkpt>
      <trkpt lat="41.593070900" lon="2.542339800">
        <ele>52.00</ele>
        <time>2013-02-24T10:58:38Z</time>
      </trkpt>
      <trkpt lat="41.592952200" lon="2.542371900">
        <ele>52.50</ele>
        <time>2013-02-24T10:58:40Z</time>
      </trkpt>
      <trkpt lat="41.592692200" lon="2.542482200">
        <ele>51.60</ele>
        <time>2013-02-24T10:58:47Z</time>
      </trkpt>
      <trkpt lat="41.592392300" lon="2.542459300">
        <ele>50.10</ele>
        <time>2013-02-24T10:58:54Z</time>
      </trkpt>
      <trkpt lat="41.592355500" lon="2.542432100">
        <ele>49.70</ele>
        <time>2013-02-24T10:58:59Z</time>
      </trkpt>
      <trkpt lat="41.592352900" lon="2.542420800">
        <ele>49.70</ele>
        <time>2013-02-24T10:59:08Z</time>
      </trkpt>
      <trkpt lat="41.592339800" lon="2.542418600">
        <ele>49.70</ele>
        <time>2013-02-24T10:59:27Z</time>
      </trkpt>
      <trkpt lat="41.592335200" lon="2.542415100">
        <ele>50.10</ele>
        <time>2013-02-24T10:59:39Z</time>
      </trkpt>
      <trkpt lat="41.592336300" lon="2.542411900">
        <ele>50.10</ele>
        <time>2013-02-24T10:59:41Z</time>
      </trkpt>
      <trkpt lat="41.592246000" lon="2.542367700">
        <ele>49.70</ele>
        <time>2013-02-24T10:59:46Z</time>
      </trkpt>
      <trkpt lat="41.592055000" lon="2.542362300">
        <ele>49.70</ele>
        <time>2013-02-24T10:59:53Z</time>
      </trkpt>
      <trkpt lat="41.591810500" lon="2.542321600">
        <ele>49.70</ele>
        <time>2013-02-24T11:00:00Z</time>
      </trkpt>
      <trkpt lat="41.591449500" lon="2.542113800">
        <ele>48.70</ele>
        <time>2013-02-24T11:00:09Z</time>
      </trkpt>
      <trkpt lat="41.591291800" lon="2.541865200">
        <ele>49.70</ele>
        <time>2013-02-24T11:00:16Z</time>
      </trkpt>
      <trkpt lat="41.591153500" lon="2.541647800">
        <ele>50.10</ele>
        <time>2013-02-24T11:00:23Z</time>
      </trkpt>
      <trkpt lat="41.590958600" lon="2.541330900">
        <ele>50.60</ele>
        <time>2013-02-24T11:00:31Z</time>
      </trkpt>
      <trkpt lat="41.590796800" lon="2.541115600">
        <ele>52.50</ele>
        <time>2013-02-24T11:00:40Z</time>
      </trkpt>
      <trkpt lat="41.590705800" lon="2.540991600">
        <ele>54.00</ele>
        <time>2013-02-24T11:00:45Z</time>
      </trkpt>
      <trkpt lat="41.590599400" lon="2.540865000">
        <ele>55.90</ele>
        <time>2013-02-24T11:00:52Z</time>
      </trkpt>
      <trkpt lat="41.590492300" lon="2.540717100">
        <ele>56.90</ele>
        <time>2013-02-24T11:00:58Z</time>
      </trkpt>
      <trkpt lat="41.590345900" lon="2.540489900">
        <ele>57.30</ele>
        <time>2013-02-24T11:01:06Z</time>
      </trkpt>
      <trkpt lat="41.590181400" lon="2.540229000">
        <ele>57.30</ele>
        <time>2013-02-24T11:01:15Z</time>
      </trkpt>
      <trkpt lat="41.589994900" lon="2.539942300">
        <ele>58.30</ele>
        <time>2013-02-24T11:01:24Z</time>
      </trkpt>
      <trkpt lat="41.589960200" lon="2.539737900">
        <ele>58.80</ele>
        <time>2013-02-24T11:01:31Z</time>
      </trkpt>
      <trkpt lat="41.589908100" lon="2.539558200">
        <ele>60.20</ele>
        <time>2013-02-24T11:01:36Z</time>
      </trkpt>
      <trkpt lat="41.589821900" lon="2.539441100">
        <ele>61.20</ele>
        <time>2013-02-24T11:01:43Z</time>
      </trkpt>
      <trkpt lat="41.589745500" lon="2.539360100">
        <ele>62.10</ele>
        <time>2013-02-24T11:01:48Z</time>
      </trkpt>
      <trkpt lat="41.589696800" lon="2.539295400">
        <ele>63.10</ele>
        <time>2013-02-24T11:01:53Z</time>
      </trkpt>
      <trkpt lat="41.589609400" lon="2.539138600">
        <ele>65.00</ele>
        <time>2013-02-24T11:02:02Z</time>
      </trkpt>
      <trkpt lat="41.589532000" lon="2.538940500">
        <ele>67.40</ele>
        <time>2013-02-24T11:02:12Z</time>
      </trkpt>
      <trkpt lat="41.589462900" lon="2.538783600">
        <ele>69.30</ele>
        <time>2013-02-24T11:02:21Z</time>
      </trkpt>
      <trkpt lat="41.589396100" lon="2.538652300">
        <ele>71.30</ele>
        <time>2013-02-24T11:02:30Z</time>
      </trkpt>
      <trkpt lat="41.589312700" lon="2.538500800">
        <ele>73.70</ele>
        <time>2013-02-24T11:02:39Z</time>
      </trkpt>
      <trkpt lat="41.589233200" lon="2.538343200">
        <ele>76.10</ele>
        <time>2013-02-24T11:02:49Z</time>
      </trkpt>
      <trkpt lat="41.589165300" lon="2.538222500">
        <ele>78.50</ele>
        <time>2013-02-24T11:02:56Z</time>
      </trkpt>
      <trkpt lat="41.589097100" lon="2.538107000">
        <ele>80.90</ele>
        <time>2013-02-24T11:03:05Z</time>
      </trkpt>
      <trkpt lat="41.589009300" lon="2.537969700">
        <ele>83.80</ele>
        <time>2013-02-24T11:03:15Z</time>
      </trkpt>
      <trkpt lat="41.588983300" lon="2.537924700">
        <ele>85.20</ele>
        <time>2013-02-24T11:03:17Z</time>
      </trkpt>
      <trkpt lat="41.588916200" lon="2.537822300">
        <ele>87.10</ele>
        <time>2013-02-24T11:03:26Z</time>
      </trkpt>
      <trkpt lat="41.588813700" lon="2.537721500">
        <ele>89.50</ele>
        <time>2013-02-24T11:03:36Z</time>
      </trkpt>
      <trkpt lat="41.588684400" lon="2.537625300">
        <ele>90.00</ele>
        <time>2013-02-24T11:03:47Z</time>
      </trkpt>
      <trkpt lat="41.588541600" lon="2.537530500">
        <ele>88.10</ele>
        <time>2013-02-24T11:03:53Z</time>
      </trkpt>
      <trkpt lat="41.588438800" lon="2.537411900">
        <ele>86.20</ele>
        <time>2013-02-24T11:03:57Z</time>
      </trkpt>
      <trkpt lat="41.588361200" lon="2.537187700">
        <ele>84.20</ele>
        <time>2013-02-24T11:04:04Z</time>
      </trkpt>
      <trkpt lat="41.588343600" lon="2.537019500">
        <ele>84.70</ele>
        <time>2013-02-24T11:04:09Z</time>
      </trkpt>
      <trkpt lat="41.588340200" lon="2.536828000">
        <ele>85.70</ele>
        <time>2013-02-24T11:04:16Z</time>
      </trkpt>
      <trkpt lat="41.588340400" lon="2.536773200">
        <ele>86.20</ele>
        <time>2013-02-24T11:04:20Z</time>
      </trkpt>
      <trkpt lat="41.588329800" lon="2.536659200">
        <ele>88.10</ele>
        <time>2013-02-24T11:04:25Z</time>
      </trkpt>
      <trkpt lat="41.588416600" lon="2.536584100">
        <ele>89.50</ele>
        <time>2013-02-24T11:04:35Z</time>
      </trkpt>
      <trkpt lat="41.588514600" lon="2.536588900">
        <ele>90.50</ele>
        <time>2013-02-24T11:04:42Z</time>
      </trkpt>
      <trkpt lat="41.588643800" lon="2.536613700">
        <ele>92.40</ele>
        <time>2013-02-24T11:04:51Z</time>
      </trkpt>
      <trkpt lat="41.588747200" lon="2.536630800">
        <ele>93.40</ele>
        <time>2013-02-24T11:04:58Z</time>
      </trkpt>
      <trkpt lat="41.588853100" lon="2.536650800">
        <ele>94.30</ele>
        <time>2013-02-24T11:05:05Z</time>
      </trkpt>
      <trkpt lat="41.588964700" lon="2.536681900">
        <ele>95.80</ele>
        <time>2013-02-24T11:05:14Z</time>
      </trkpt>
      <trkpt lat="41.589084800" lon="2.536656900">
        <ele>97.20</ele>
        <time>2013-02-24T11:05:22Z</time>
      </trkpt>
      <trkpt lat="41.589187900" lon="2.536474500">
        <ele>99.20</ele>
        <time>2013-02-24T11:05:35Z</time>
      </trkpt>
      <trkpt lat="41.589232300" lon="2.536340500">
        <ele>100.60</ele>
        <time>2013-02-24T11:05:43Z</time>
      </trkpt>
      <trkpt lat="41.589257300" lon="2.536182000">
        <ele>101.60</ele>
        <time>2013-02-24T11:05:50Z</time>
      </trkpt>
      <trkpt lat="41.589290800" lon="2.535997200">
        <ele>103.00</ele>
        <time>2013-02-24T11:05:59Z</time>
      </trkpt>
      <trkpt lat="41.589296200" lon="2.535891600">
        <ele>104.40</ele>
        <time>2013-02-24T11:06:06Z</time>
      </trkpt>
      <trkpt lat="41.589299800" lon="2.535860000">
        <ele>104.90</ele>
        <time>2013-02-24T11:06:09Z</time>
      </trkpt>
      <trkpt lat="41.589314300" lon="2.535764600">
        <ele>105.40</ele>
        <time>2013-02-24T11:06:13Z</time>
      </trkpt>
      <trkpt lat="41.589377300" lon="2.535549100">
        <ele>106.80</ele>
        <time>2013-02-24T11:06:22Z</time>
      </trkpt>
      <trkpt lat="41.589431000" lon="2.535376800">
        <ele>108.30</ele>
        <time>2013-02-24T11:06:30Z</time>
      </trkpt>
      <trkpt lat="41.589471500" lon="2.535206000">
        <ele>109.70</ele>
        <time>2013-02-24T11:06:39Z</time>
      </trkpt>
      <trkpt lat="41.589532100" lon="2.535038900">
        <ele>111.70</ele>
        <time>2013-02-24T11:06:49Z</time>
      </trkpt>
      <trkpt lat="41.589569100" lon="2.534903100">
        <ele>112.60</ele>
        <time>2013-02-24T11:06:58Z</time>
      </trkpt>
      <trkpt lat="41.589616600" lon="2.534736100">
        <ele>114.50</ele>
        <time>2013-02-24T11:07:07Z</time>
      </trkpt>
      <trkpt lat="41.589673500" lon="2.534574600">
        <ele>116.00</ele>
        <time>2013-02-24T11:07:16Z</time>
      </trkpt>
      <trkpt lat="41.589716800" lon="2.534445500">
        <ele>117.40</ele>
        <time>2013-02-24T11:07:24Z</time>
      </trkpt>
      <trkpt lat="41.589756200" lon="2.534329600">
        <ele>118.40</ele>
        <time>2013-02-24T11:07:31Z</time>
      </trkpt>
      <trkpt lat="41.589789600" lon="2.534222600">
        <ele>119.30</ele>
        <time>2013-02-24T11:07:38Z</time>
      </trkpt>
      <trkpt lat="41.589863600" lon="2.534020900">
        <ele>120.80</ele>
        <time>2013-02-24T11:07:47Z</time>
      </trkpt>
      <trkpt lat="41.589926000" lon="2.533813800">
        <ele>123.20</ele>
        <time>2013-02-24T11:07:57Z</time>
      </trkpt>
      <trkpt lat="41.589929700" lon="2.533792300">
        <ele>123.20</ele>
        <time>2013-02-24T11:07:59Z</time>
      </trkpt>
      <trkpt lat="41.589995500" lon="2.533594200">
        <ele>125.10</ele>
        <time>2013-02-24T11:08:10Z</time>
      </trkpt>
      <trkpt lat="41.590045200" lon="2.533403900">
        <ele>126.60</ele>
        <time>2013-02-24T11:08:20Z</time>
      </trkpt>
      <trkpt lat="41.590079700" lon="2.533254000">
        <ele>128.00</ele>
        <time>2013-02-24T11:08:27Z</time>
      </trkpt>
      <trkpt lat="41.590116000" lon="2.533108000">
        <ele>129.40</ele>
        <time>2013-02-24T11:08:36Z</time>
      </trkpt>
      <trkpt lat="41.590129100" lon="2.533075800">
        <ele>129.90</ele>
        <time>2013-02-24T11:08:39Z</time>
      </trkpt>
      <trkpt lat="41.590194500" lon="2.532857300">
        <ele>131.80</ele>
        <time>2013-02-24T11:08:50Z</time>
      </trkpt>
      <trkpt lat="41.590246900" lon="2.532674600">
        <ele>133.30</ele>
        <time>2013-02-24T11:08:58Z</time>
      </trkpt>
      <trkpt lat="41.590320000" lon="2.532477000">
        <ele>135.20</ele>
        <time>2013-02-24T11:09:09Z</time>
      </trkpt>
      <trkpt lat="41.590378700" lon="2.532341200">
        <ele>136.60</ele>
        <time>2013-02-24T11:09:18Z</time>
      </trkpt>
      <trkpt lat="41.590385600" lon="2.532323500">
        <ele>136.60</ele>
        <time>2013-02-24T11:09:19Z</time>
      </trkpt>
      <trkpt lat="41.590461700" lon="2.532206600">
        <ele>138.60</ele>
        <time>2013-02-24T11:09:26Z</time>
      </trkpt>
      <trkpt lat="41.590561600" lon="2.532027300">
        <ele>140.00</ele>
        <time>2013-02-24T11:09:37Z</time>
      </trkpt>
      <trkpt lat="41.590622000" lon="2.531883500">
        <ele>141.90</ele>
        <time>2013-02-24T11:09:47Z</time>
      </trkpt>
      <trkpt lat="41.590679700" lon="2.531743800">
        <ele>143.40</ele>
        <time>2013-02-24T11:09:54Z</time>
      </trkpt>
      <trkpt lat="41.590741100" lon="2.531618200">
        <ele>144.80</ele>
        <time>2013-02-24T11:10:03Z</time>
      </trkpt>
      <trkpt lat="41.590823200" lon="2.531483700">
        <ele>146.30</ele>
        <time>2013-02-24T11:10:12Z</time>
      </trkpt>
      <trkpt lat="41.590912800" lon="2.531345000">
        <ele>148.20</ele>
        <time>2013-02-24T11:10:20Z</time>
      </trkpt>
      <trkpt lat="41.590984400" lon="2.531202600">
        <ele>150.60</ele>
        <time>2013-02-24T11:10:29Z</time>
      </trkpt>
      <trkpt lat="41.591004400" lon="2.531155600">
        <ele>151.10</ele>
        <time>2013-02-24T11:10:32Z</time>
      </trkpt>
      <trkpt lat="41.591073500" lon="2.531049400">
        <ele>153.50</ele>
        <time>2013-02-24T11:10:41Z</time>
      </trkpt>
      <trkpt lat="41.591155400" lon="2.530915600">
        <ele>155.90</ele>
        <time>2013-02-24T11:10:50Z</time>
      </trkpt>
      <trkpt lat="41.591196700" lon="2.530868900">
        <ele>156.80</ele>
        <time>2013-02-24T11:10:55Z</time>
      </trkpt>
      <trkpt lat="41.591225200" lon="2.530822300">
        <ele>157.80</ele>
        <time>2013-02-24T11:10:59Z</time>
      </trkpt>
      <trkpt lat="41.591336600" lon="2.530749800">
        <ele>160.20</ele>
        <time>2013-02-24T11:11:09Z</time>
      </trkpt>
      <trkpt lat="41.591457800" lon="2.530677800">
        <ele>161.60</ele>
        <time>2013-02-24T11:11:18Z</time>
      </trkpt>
      <trkpt lat="41.591552400" lon="2.530611500">
        <ele>163.10</ele>
        <time>2013-02-24T11:11:26Z</time>
      </trkpt>
      <trkpt lat="41.591648600" lon="2.530504800">
        <ele>165.00</ele>
        <time>2013-02-24T11:11:35Z</time>
      </trkpt>
      <trkpt lat="41.591714200" lon="2.530369800">
        <ele>166.40</ele>
        <time>2013-02-24T11:11:46Z</time>
      </trkpt>
      <trkpt lat="41.591768800" lon="2.530240900">
        <ele>167.90</ele>
        <time>2013-02-24T11:11:54Z</time>
      </trkpt>
      <trkpt lat="41.591816100" lon="2.530083100">
        <ele>169.80</ele>
        <time>2013-02-24T11:12:03Z</time>
      </trkpt>
      <trkpt lat="41.591862100" lon="2.529998200">
        <ele>170.30</ele>
        <time>2013-02-24T11:12:08Z</time>
      </trkpt>
      <trkpt lat="41.591948700" lon="2.529892000">
        <ele>170.80</ele>
        <time>2013-02-24T11:12:15Z</time>
      </trkpt>
      <trkpt lat="41.592028600" lon="2.529795600">
        <ele>172.20</ele>
        <time>2013-02-24T11:12:24Z</time>
      </trkpt>
      <trkpt lat="41.592084200" lon="2.529713100">
        <ele>174.10</ele>
        <time>2013-02-24T11:12:31Z</time>
      </trkpt>
      <trkpt lat="41.592106400" lon="2.529696200">
        <ele>174.60</ele>
        <time>2013-02-24T11:12:33Z</time>
      </trkpt>
      <trkpt lat="41.592164600" lon="2.529692300">
        <ele>175.10</ele>
        <time>2013-02-24T11:12:36Z</time>
      </trkpt>
      <trkpt lat="41.592311500" lon="2.529756800">
        <ele>176.10</ele>
        <time>2013-02-24T11:12:47Z</time>
      </trkpt>
      <trkpt lat="41.592419700" lon="2.529820000">
        <ele>177.00</ele>
        <time>2013-02-24T11:12:55Z</time>
      </trkpt>
      <trkpt lat="41.592522700" lon="2.529864000">
        <ele>178.00</ele>
        <time>2013-02-24T11:13:02Z</time>
      </trkpt>
      <trkpt lat="41.592643000" lon="2.529916000">
        <ele>178.90</ele>
        <time>2013-02-24T11:13:09Z</time>
      </trkpt>
      <trkpt lat="41.592740800" lon="2.529956600">
        <ele>179.90</ele>
        <time>2013-02-24T11:13:16Z</time>
      </trkpt>
      <trkpt lat="41.592902300" lon="2.529996500">
        <ele>181.80</ele>
        <time>2013-02-24T11:13:28Z</time>
      </trkpt>
      <trkpt lat="41.593002200" lon="2.530026600">
        <ele>182.80</ele>
        <time>2013-02-24T11:13:35Z</time>
      </trkpt>
      <trkpt lat="41.593145700" lon="2.530051400">
        <ele>184.20</ele>
        <time>2013-02-24T11:13:44Z</time>
      </trkpt>
      <trkpt lat="41.593294000" lon="2.530093900">
        <ele>186.10</ele>
        <time>2013-02-24T11:13:53Z</time>
      </trkpt>
      <trkpt lat="41.593420700" lon="2.530125000">
        <ele>188.10</ele>
        <time>2013-02-24T11:14:03Z</time>
      </trkpt>
      <trkpt lat="41.593534800" lon="2.530159800">
        <ele>190.00</ele>
        <time>2013-02-24T11:14:10Z</time>
      </trkpt>
      <trkpt lat="41.593681400" lon="2.530210400">
        <ele>192.90</ele>
        <time>2013-02-24T11:14:22Z</time>
      </trkpt>
      <trkpt lat="41.593781100" lon="2.530242100">
        <ele>195.30</ele>
        <time>2013-02-24T11:14:29Z</time>
      </trkpt>
      <trkpt lat="41.593796600" lon="2.530245200">
        <ele>195.30</ele>
        <time>2013-02-24T11:14:29Z</time>
      </trkpt>
      <trkpt lat="41.593930200" lon="2.530264400">
        <ele>196.20</ele>
        <time>2013-02-24T11:14:38Z</time>
      </trkpt>
      <trkpt lat="41.594051900" lon="2.530334200">
        <ele>196.20</ele>
        <time>2013-02-24T11:14:45Z</time>
      </trkpt>
      <trkpt lat="41.594172700" lon="2.530370000">
        <ele>196.20</ele>
        <time>2013-02-24T11:14:52Z</time>
      </trkpt>
      <trkpt lat="41.594350800" lon="2.530404500">
        <ele>197.20</ele>
        <time>2013-02-24T11:15:02Z</time>
      </trkpt>
      <trkpt lat="41.594495900" lon="2.530389800">
        <ele>198.20</ele>
        <time>2013-02-24T11:15:11Z</time>
      </trkpt>
      <trkpt lat="41.594578300" lon="2.530357600">
        <ele>199.60</ele>
        <time>2013-02-24T11:15:18Z</time>
      </trkpt>
      <trkpt lat="41.594677500" lon="2.530341600">
        <ele>201.10</ele>
        <time>2013-02-24T11:15:25Z</time>
      </trkpt>
      <trkpt lat="41.594717500" lon="2.530367300">
        <ele>201.10</ele>
        <time>2013-02-24T11:15:29Z</time>
      </trkpt>
      <trkpt lat="41.594764400" lon="2.530537900">
        <ele>202.00</ele>
        <time>2013-02-24T11:15:37Z</time>
      </trkpt>
      <trkpt lat="41.594809000" lon="2.530760500">
        <ele>203.50</ele>
        <time>2013-02-24T11:15:48Z</time>
      </trkpt>
      <trkpt lat="41.594889200" lon="2.530900100">
        <ele>204.40</ele>
        <time>2013-02-24T11:15:55Z</time>
      </trkpt>
      <trkpt lat="41.595032700" lon="2.531044900">
        <ele>203.90</ele>
        <time>2013-02-24T11:16:03Z</time>
      </trkpt>
      <trkpt lat="41.595186600" lon="2.531090100">
        <ele>203.90</ele>
        <time>2013-02-24T11:16:10Z</time>
      </trkpt>
      <trkpt lat="41.595299100" lon="2.531005100">
        <ele>203.50</ele>
        <time>2013-02-24T11:16:17Z</time>
      </trkpt>
      <trkpt lat="41.595421100" lon="2.530927900">
        <ele>204.40</ele>
        <time>2013-02-24T11:16:24Z</time>
      </trkpt>
      <trkpt lat="41.595485400" lon="2.530924100">
        <ele>204.40</ele>
        <time>2013-02-24T11:16:31Z</time>
      </trkpt>
      <trkpt lat="41.595469800" lon="2.530918300">
        <ele>204.40</ele>
        <time>2013-02-24T11:16:38Z</time>
      </trkpt>
      <trkpt lat="41.595480500" lon="2.530939100">
        <ele>204.40</ele>
        <time>2013-02-24T11:16:54Z</time>
      </trkpt>
      <trkpt lat="41.595493900" lon="2.530936500">
        <ele>204.40</ele>
        <time>2013-02-24T11:17:25Z</time>
      </trkpt>
      <trkpt lat="41.595544000" lon="2.530935200">
        <ele>204.40</ele>
        <time>2013-02-24T11:17:32Z</time>
      </trkpt>
      <trkpt lat="41.595645400" lon="2.530979400">
        <ele>205.40</ele>
        <time>2013-02-24T11:17:39Z</time>
      </trkpt>
      <trkpt lat="41.595758500" lon="2.531037800">
        <ele>205.40</ele>
        <time>2013-02-24T11:17:46Z</time>
      </trkpt>
      <trkpt lat="41.595813000" lon="2.531065200">
        <ele>205.90</ele>
        <time>2013-02-24T11:17:50Z</time>
      </trkpt>
      <trkpt lat="41.595959800" lon="2.531126400">
        <ele>206.80</ele>
        <time>2013-02-24T11:18:00Z</time>
      </trkpt>
      <trkpt lat="41.596133700" lon="2.531165700">
        <ele>208.30</ele>
        <time>2013-02-24T11:18:12Z</time>
      </trkpt>
      <trkpt lat="41.596293700" lon="2.531189600">
        <ele>208.30</ele>
        <time>2013-02-24T11:18:19Z</time>
      </trkpt>
      <trkpt lat="41.596417700" lon="2.531197200">
        <ele>208.30</ele>
        <time>2013-02-24T11:18:26Z</time>
      </trkpt>
      <trkpt lat="41.596587800" lon="2.531176400">
        <ele>208.70</ele>
        <time>2013-02-24T11:18:35Z</time>
      </trkpt>
      <trkpt lat="41.596625600" lon="2.531162800">
        <ele>208.70</ele>
        <time>2013-02-24T11:18:37Z</time>
      </trkpt>
      <trkpt lat="41.596691600" lon="2.531116800">
        <ele>209.70</ele>
        <time>2013-02-24T11:18:42Z</time>
      </trkpt>
      <trkpt lat="41.596825300" lon="2.530995500">
        <ele>210.20</ele>
        <time>2013-02-24T11:18:51Z</time>
      </trkpt>
      <trkpt lat="41.596849200" lon="2.530959000">
        <ele>210.70</ele>
        <time>2013-02-24T11:18:52Z</time>
      </trkpt>
      <trkpt lat="41.596929500" lon="2.530915500">
        <ele>209.70</ele>
        <time>2013-02-24T11:18:56Z</time>
      </trkpt>
      <trkpt lat="41.597099400" lon="2.530899600">
        <ele>207.30</ele>
        <time>2013-02-24T11:19:03Z</time>
      </trkpt>
      <trkpt lat="41.597253800" lon="2.530759100">
        <ele>205.90</ele>
        <time>2013-02-24T11:19:08Z</time>
      </trkpt>
      <trkpt lat="41.597439000" lon="2.530637400">
        <ele>204.90</ele>
        <time>2013-02-24T11:19:15Z</time>
      </trkpt>
      <trkpt lat="41.597654100" lon="2.530628300">
        <ele>204.40</ele>
        <time>2013-02-24T11:19:22Z</time>
      </trkpt>
      <trkpt lat="41.597792200" lon="2.530702900">
        <ele>205.90</ele>
        <time>2013-02-24T11:19:29Z</time>
      </trkpt>
      <trkpt lat="41.597902500" lon="2.530833200">
        <ele>207.30</ele>
        <time>2013-02-24T11:19:38Z</time>
      </trkpt>
      <trkpt lat="41.598011700" lon="2.530899500">
        <ele>208.70</ele>
        <time>2013-02-24T11:19:46Z</time>
      </trkpt>
      <trkpt lat="41.598123000" lon="2.530978700">
        <ele>211.10</ele>
        <time>2013-02-24T11:19:55Z</time>
      </trkpt>
      <trkpt lat="41.598230100" lon="2.531051100">
        <ele>213.60</ele>
        <time>2013-02-24T11:20:02Z</time>
      </trkpt>
      <trkpt lat="41.598307000" lon="2.531189700">
        <ele>215.50</ele>
        <time>2013-02-24T11:20:11Z</time>
      </trkpt>
      <trkpt lat="41.598338900" lon="2.531275800">
        <ele>216.90</ele>
        <time>2013-02-24T11:20:16Z</time>
      </trkpt>
      <trkpt lat="41.598387600" lon="2.531456100">
        <ele>219.80</ele>
        <time>2013-02-24T11:20:25Z</time>
      </trkpt>
      <trkpt lat="41.598473900" lon="2.531620000">
        <ele>222.20</ele>
        <time>2013-02-24T11:20:35Z</time>
      </trkpt>
      <trkpt lat="41.598506300" lon="2.531682500">
        <ele>222.70</ele>
        <time>2013-02-24T11:20:40Z</time>
      </trkpt>
      <trkpt lat="41.598584700" lon="2.531858500">
        <ele>222.20</ele>
        <time>2013-02-24T11:20:49Z</time>
      </trkpt>
      <trkpt lat="41.598576300" lon="2.532086200">
        <ele>222.70</ele>
        <time>2013-02-24T11:20:56Z</time>
      </trkpt>
      <trkpt lat="41.598548100" lon="2.532328200">
        <ele>221.70</ele>
        <time>2013-02-24T11:21:01Z</time>
      </trkpt>
      <trkpt lat="41.598631400" lon="2.532563200">
        <ele>219.30</ele>
        <time>2013-02-24T11:21:06Z</time>
      </trkpt>
      <trkpt lat="41.598779700" lon="2.532648800">
        <ele>216.90</ele>
        <time>2013-02-24T11:21:12Z</time>
      </trkpt>
      <trkpt lat="41.598843100" lon="2.532663800">
        <ele>216.40</ele>
        <time>2013-02-24T11:21:15Z</time>
      </trkpt>
      <trkpt lat="41.598900200" lon="2.532797500">
        <ele>214.50</ele>
        <time>2013-02-24T11:21:19Z</time>
      </trkpt>
      <trkpt lat="41.598900800" lon="2.532926700">
        <ele>213.10</ele>
        <time>2013-02-24T11:21:22Z</time>
      </trkpt>
      <trkpt lat="41.598899300" lon="2.533084200">
        <ele>212.60</ele>
        <time>2013-02-24T11:21:26Z</time>
      </trkpt>
      <trkpt lat="41.598905500" lon="2.533108600">
        <ele>212.60</ele>
        <time>2013-02-24T11:21:26Z</time>
      </trkpt>
      <trkpt lat="41.598908900" lon="2.533176600">
        <ele>211.60</ele>
        <time>2013-02-24T11:21:29Z</time>
      </trkpt>
      <trkpt lat="41.598967100" lon="2.533381200">
        <ele>208.30</ele>
        <time>2013-02-24T11:21:33Z</time>
      </trkpt>
      <trkpt lat="41.599011000" lon="2.533603700">
        <ele>204.40</ele>
        <time>2013-02-24T11:21:36Z</time>
      </trkpt>
      <trkpt lat="41.599061100" lon="2.533869200">
        <ele>200.60</ele>
        <time>2013-02-24T11:21:41Z</time>
      </trkpt>
      <trkpt lat="41.599116600" lon="2.534067600">
        <ele>197.20</ele>
        <time>2013-02-24T11:21:43Z</time>
      </trkpt>
      <trkpt lat="41.599180800" lon="2.534288800">
        <ele>192.40</ele>
        <time>2013-02-24T11:21:48Z</time>
      </trkpt>
      <trkpt lat="41.599357000" lon="2.534329500">
        <ele>190.50</ele>
        <time>2013-02-24T11:21:52Z</time>
      </trkpt>
      <trkpt lat="41.599570100" lon="2.534301000">
        <ele>188.10</ele>
        <time>2013-02-24T11:21:57Z</time>
      </trkpt>
      <trkpt lat="41.599691000" lon="2.534334000">
        <ele>185.20</ele>
        <time>2013-02-24T11:22:02Z</time>
      </trkpt>
      <trkpt lat="41.599698300" lon="2.534378400">
        <ele>185.20</ele>
        <time>2013-02-24T11:22:02Z</time>
      </trkpt>
      <trkpt lat="41.599675900" lon="2.534480500">
        <ele>184.20</ele>
        <time>2013-02-24T11:22:04Z</time>
      </trkpt>
      <trkpt lat="41.599446400" lon="2.534806100">
        <ele>182.30</ele>
        <time>2013-02-24T11:22:11Z</time>
      </trkpt>
      <trkpt lat="41.599369400" lon="2.534928700">
        <ele>180.90</ele>
        <time>2013-02-24T11:22:14Z</time>
      </trkpt>
      <trkpt lat="41.599242000" lon="2.535140000">
        <ele>177.00</ele>
        <time>2013-02-24T11:22:20Z</time>
      </trkpt>
      <trkpt lat="41.599185100" lon="2.535421800">
        <ele>172.70</ele>
        <time>2013-02-24T11:22:25Z</time>
      </trkpt>
      <trkpt lat="41.599263200" lon="2.535500600">
        <ele>170.80</ele>
        <time>2013-02-24T11:22:28Z</time>
      </trkpt>
      <trkpt lat="41.599338800" lon="2.535499600">
        <ele>170.30</ele>
        <time>2013-02-24T11:22:30Z</time>
      </trkpt>
      <trkpt lat="41.599560500" lon="2.535469300">
        <ele>168.90</ele>
        <time>2013-02-24T11:22:35Z</time>
      </trkpt>
      <trkpt lat="41.599795400" lon="2.535337100">
        <ele>166.90</ele>
        <time>2013-02-24T11:22:41Z</time>
      </trkpt>
      <trkpt lat="41.600111500" lon="2.535216600">
        <ele>163.60</ele>
        <time>2013-02-24T11:22:48Z</time>
      </trkpt>
      <trkpt lat="41.600265300" lon="2.535096800">
        <ele>161.20</ele>
        <time>2013-02-24T11:22:51Z</time>
      </trkpt>
      <trkpt lat="41.600331000" lon="2.535124500">
        <ele>160.20</ele>
        <time>2013-02-24T11:22:56Z</time>
      </trkpt>
      <trkpt lat="41.600291600" lon="2.535160700">
        <ele>159.20</ele>
        <time>2013-02-24T11:22:58Z</time>
      </trkpt>
      <trkpt lat="41.600090000" lon="2.535437300">
        <ele>158.30</ele>
        <time>2013-02-24T11:23:05Z</time>
      </trkpt>
      <trkpt lat="41.599913200" lon="2.535612400">
        <ele>157.30</ele>
        <time>2013-02-24T11:23:12Z</time>
      </trkpt>
      <trkpt lat="41.599854900" lon="2.535700900">
        <ele>156.40</ele>
        <time>2013-02-24T11:23:14Z</time>
      </trkpt>
      <trkpt lat="41.599778000" lon="2.535804200">
        <ele>155.90</ele>
        <time>2013-02-24T11:23:15Z</time>
      </trkpt>
      <trkpt lat="41.599644500" lon="2.535958900">
        <ele>153.90</ele>
        <time>2013-02-24T11:23:19Z</time>
      </trkpt>
      <trkpt lat="41.599582200" lon="2.536076300">
        <ele>153.00</ele>
        <time>2013-02-24T11:23:21Z</time>
      </trkpt>
      <trkpt lat="41.599524700" lon="2.536191300">
        <ele>151.50</ele>
        <time>2013-02-24T11:23:22Z</time>
      </trkpt>
      <trkpt lat="41.599344500" lon="2.536319900">
        <ele>151.10</ele>
        <time>2013-02-24T11:23:29Z</time>
      </trkpt>
      <trkpt lat="41.599251400" lon="2.536383000">
        <ele>152.00</ele>
        <time>2013-02-24T11:23:33Z</time>
      </trkpt>
      <trkpt lat="41.599170900" lon="2.536448800">
        <ele>153.50</ele>
        <time>2013-02-24T11:23:38Z</time>
      </trkpt>
      <trkpt lat="41.599144200" lon="2.536478000">
        <ele>153.90</ele>
        <time>2013-02-24T11:23:40Z</time>
      </trkpt>
      <trkpt lat="41.598992800" lon="2.536596400">
        <ele>151.50</ele>
        <time>2013-02-24T11:23:47Z</time>
      </trkpt>
      <trkpt lat="41.598961300" lon="2.536662700">
        <ele>150.10</ele>
        <time>2013-02-24T11:23:50Z</time>
      </trkpt>
      <trkpt lat="41.599012600" lon="2.536661900">
        <ele>149.10</ele>
        <time>2013-02-24T11:23:54Z</time>
      </trkpt>
      <trkpt lat="41.599051300" lon="2.536654300">
        <ele>148.20</ele>
        <time>2013-02-24T11:23:55Z</time>
      </trkpt>
      <trkpt lat="41.599078000" lon="2.536684100">
        <ele>147.70</ele>
        <time>2013-02-24T11:23:59Z</time>
      </trkpt>
      <trkpt lat="41.599030600" lon="2.536721900">
        <ele>146.30</ele>
        <time>2013-02-24T11:24:01Z</time>
      </trkpt>
      <trkpt lat="41.598943000" lon="2.536797000">
        <ele>144.30</ele>
        <time>2013-02-24T11:24:04Z</time>
      </trkpt>
      <trkpt lat="41.598924800" lon="2.536834700">
        <ele>143.40</ele>
        <time>2013-02-24T11:24:06Z</time>
      </trkpt>
      <trkpt lat="41.598928000" lon="2.536849100">
        <ele>142.90</ele>
        <time>2013-02-24T11:24:08Z</time>
      </trkpt>
      <trkpt lat="41.599083500" lon="2.536824700">
        <ele>141.90</ele>
        <time>2013-02-24T11:24:13Z</time>
      </trkpt>
      <trkpt lat="41.599167800" lon="2.536820600">
        <ele>140.50</ele>
        <time>2013-02-24T11:24:18Z</time>
      </trkpt>
      <trkpt lat="41.599156600" lon="2.536851400">
        <ele>139.50</ele>
        <time>2013-02-24T11:24:20Z</time>
      </trkpt>
      <trkpt lat="41.599013500" lon="2.536973500">
        <ele>136.60</ele>
        <time>2013-02-24T11:24:25Z</time>
      </trkpt>
      <trkpt lat="41.598933500" lon="2.537098800">
        <ele>134.70</ele>
        <time>2013-02-24T11:24:30Z</time>
      </trkpt>
      <trkpt lat="41.598939000" lon="2.537145700">
        <ele>133.80</ele>
        <time>2013-02-24T11:24:34Z</time>
      </trkpt>
      <trkpt lat="41.598981700" lon="2.537117700">
        <ele>133.30</ele>
        <time>2013-02-24T11:24:37Z</time>
      </trkpt>
      <trkpt lat="41.598984200" lon="2.537180500">
        <ele>131.80</ele>
        <time>2013-02-24T11:24:41Z</time>
      </trkpt>
      <trkpt lat="41.598886800" lon="2.537404600">
        <ele>128.90</ele>
        <time>2013-02-24T11:24:46Z</time>
      </trkpt>
      <trkpt lat="41.598845600" lon="2.537491200">
        <ele>128.50</ele>
        <time>2013-02-24T11:24:48Z</time>
      </trkpt>
      <trkpt lat="41.598821900" lon="2.537533900">
        <ele>128.00</ele>
        <time>2013-02-24T11:24:49Z</time>
      </trkpt>
      <trkpt lat="41.598571800" lon="2.537750900">
        <ele>125.10</ele>
        <time>2013-02-24T11:24:58Z</time>
      </trkpt>
      <trkpt lat="41.598491300" lon="2.537834700">
        <ele>123.20</ele>
        <time>2013-02-24T11:25:02Z</time>
      </trkpt>
      <trkpt lat="41.598569600" lon="2.537944400">
        <ele>121.70</ele>
        <time>2013-02-24T11:25:07Z</time>
      </trkpt>
      <trkpt lat="41.598547000" lon="2.538024400">
        <ele>120.80</ele>
        <time>2013-02-24T11:25:12Z</time>
      </trkpt>
      <trkpt lat="41.598487000" lon="2.538049200">
        <ele>119.80</ele>
        <time>2013-02-24T11:25:14Z</time>
      </trkpt>
      <trkpt lat="41.598432800" lon="2.538061000">
        <ele>118.90</ele>
        <time>2013-02-24T11:25:16Z</time>
      </trkpt>
      <trkpt lat="41.598396100" lon="2.538165400">
        <ele>116.50</ele>
        <time>2013-02-24T11:25:21Z</time>
      </trkpt>
      <trkpt lat="41.598434200" lon="2.538247600">
        <ele>116.00</ele>
        <time>2013-02-24T11:25:24Z</time>
      </trkpt>
      <trkpt lat="41.598597800" lon="2.538272100">
        <ele>113.60</ele>
        <time>2013-02-24T11:25:33Z</time>
      </trkpt>
      <trkpt lat="41.598606400" lon="2.538383300">
        <ele>111.70</ele>
        <time>2013-02-24T11:25:36Z</time>
      </trkpt>
      <trkpt lat="41.598553000" lon="2.538604400">
        <ele>108.80</ele>
        <time>2013-02-24T11:25:42Z</time>
      </trkpt>
      <trkpt lat="41.598391700" lon="2.538748800">
        <ele>106.40</ele>
        <time>2013-02-24T11:25:47Z</time>
      </trkpt>
      <trkpt lat="41.598320400" lon="2.538768200">
        <ele>105.40</ele>
        <time>2013-02-24T11:25:49Z</time>
      </trkpt>
      <trkpt lat="41.598252700" lon="2.538830100">
        <ele>104.00</ele>
        <time>2013-02-24T11:25:54Z</time>
      </trkpt>
      <trkpt lat="41.598272200" lon="2.538878100">
        <ele>103.50</ele>
        <time>2013-02-24T11:25:56Z</time>
      </trkpt>
      <trkpt lat="41.598396800" lon="2.539030700">
        <ele>100.60</ele>
        <time>2013-02-24T11:26:01Z</time>
      </trkpt>
      <trkpt lat="41.598602700" lon="2.538946400">
        <ele>99.20</ele>
        <time>2013-02-24T11:26:06Z</time>
      </trkpt>
      <trkpt lat="41.598744600" lon="2.538844200">
        <ele>98.20</ele>
        <time>2013-02-24T11:26:11Z</time>
      </trkpt>
      <trkpt lat="41.598783300" lon="2.538813800">
        <ele>98.20</ele>
        <time>2013-02-24T11:26:13Z</time>
      </trkpt>
      <trkpt lat="41.598823000" lon="2.538869100">
        <ele>97.20</ele>
        <time>2013-02-24T11:26:18Z</time>
      </trkpt>
      <trkpt lat="41.598693800" lon="2.538999800">
        <ele>95.80</ele>
        <time>2013-02-24T11:26:23Z</time>
      </trkpt>
      <trkpt lat="41.598597500" lon="2.539131900">
        <ele>94.30</ele>
        <time>2013-02-24T11:26:27Z</time>
      </trkpt>
      <trkpt lat="41.598459600" lon="2.539329500">
        <ele>92.90</ele>
        <time>2013-02-24T11:26:32Z</time>
      </trkpt>
      <trkpt lat="41.598226100" lon="2.539696900">
        <ele>90.00</ele>
        <time>2013-02-24T11:26:39Z</time>
      </trkpt>
      <trkpt lat="41.598040200" lon="2.539986000">
        <ele>87.10</ele>
        <time>2013-02-24T11:26:46Z</time>
      </trkpt>
      <trkpt lat="41.598031700" lon="2.540098800">
        <ele>85.70</ele>
        <time>2013-02-24T11:26:50Z</time>
      </trkpt>
      <trkpt lat="41.598014300" lon="2.540088000">
        <ele>86.20</ele>
        <time>2013-02-24T11:26:58Z</time>
      </trkpt>
      <trkpt lat="41.598008700" lon="2.540088900">
        <ele>86.20</ele>
        <time>2013-02-24T11:27:00Z</time>
      </trkpt>
      <trkpt lat="41.597955200" lon="2.540125200">
        <ele>86.20</ele>
        <time>2013-02-24T11:27:04Z</time>
      </trkpt>
      <trkpt lat="41.597864200" lon="2.540334400">
        <ele>85.20</ele>
        <time>2013-02-24T11:27:09Z</time>
      </trkpt>
      <trkpt lat="41.597912500" lon="2.540522800">
        <ele>84.20</ele>
        <time>2013-02-24T11:27:14Z</time>
      </trkpt>
      <trkpt lat="41.597983800" lon="2.540559600">
        <ele>83.80</ele>
        <time>2013-02-24T11:27:16Z</time>
      </trkpt>
      <trkpt lat="41.598061400" lon="2.540607100">
        <ele>83.80</ele>
        <time>2013-02-24T11:27:17Z</time>
      </trkpt>
      <trkpt lat="41.598209100" lon="2.540664000">
        <ele>82.80</ele>
        <time>2013-02-24T11:27:21Z</time>
      </trkpt>
      <trkpt lat="41.598358800" lon="2.540759800">
        <ele>81.80</ele>
        <time>2013-02-24T11:27:26Z</time>
      </trkpt>
      <trkpt lat="41.598671600" lon="2.540866000">
        <ele>82.30</ele>
        <time>2013-02-24T11:27:35Z</time>
      </trkpt>
      <trkpt lat="41.598899000" lon="2.540895300">
        <ele>83.30</ele>
        <time>2013-02-24T11:27:42Z</time>
      </trkpt>
      <trkpt lat="41.599050500" lon="2.540977600">
        <ele>83.30</ele>
        <time>2013-02-24T11:27:49Z</time>
      </trkpt>
      <trkpt lat="41.599146500" lon="2.541146300">
        <ele>84.20</ele>
        <time>2013-02-24T11:27:56Z</time>
      </trkpt>
      <trkpt lat="41.599274000" lon="2.541222200">
        <ele>85.20</ele>
        <time>2013-02-24T11:28:03Z</time>
      </trkpt>
      <trkpt lat="41.599397400" lon="2.541207600">
        <ele>86.20</ele>
        <time>2013-02-24T11:28:10Z</time>
      </trkpt>
      <trkpt lat="41.599519900" lon="2.541153000">
        <ele>88.10</ele>
        <time>2013-02-24T11:28:17Z</time>
      </trkpt>
      <trkpt lat="41.599679100" lon="2.541075200">
        <ele>90.50</ele>
        <time>2013-02-24T11:28:25Z</time>
      </trkpt>
      <trkpt lat="41.599694700" lon="2.541057000">
        <ele>90.50</ele>
        <time>2013-02-24T11:28:27Z</time>
      </trkpt>
      <trkpt lat="41.599863400" lon="2.541081000">
        <ele>89.50</ele>
        <time>2013-02-24T11:28:34Z</time>
      </trkpt>
      <trkpt lat="41.600124100" lon="2.541283500">
        <ele>86.20</ele>
        <time>2013-02-24T11:28:41Z</time>
      </trkpt>
      <trkpt lat="41.600201300" lon="2.541358900">
        <ele>85.70</ele>
        <time>2013-02-24T11:28:43Z</time>
      </trkpt>
      <trkpt lat="41.600247400" lon="2.541394300">
        <ele>84.70</ele>
        <time>2013-02-24T11:28:43Z</time>
      </trkpt>
      <trkpt lat="41.600469600" lon="2.541478800">
        <ele>84.70</ele>
        <time>2013-02-24T11:28:48Z</time>
      </trkpt>
      <trkpt lat="41.600679000" lon="2.541454200">
        <ele>86.20</ele>
        <time>2013-02-24T11:28:57Z</time>
      </trkpt>
      <trkpt lat="41.600934300" lon="2.541408000">
        <ele>86.70</ele>
        <time>2013-02-24T11:29:06Z</time>
      </trkpt>
      <trkpt lat="41.601144600" lon="2.541367600">
        <ele>86.70</ele>
        <time>2013-02-24T11:29:12Z</time>
      </trkpt>
      <trkpt lat="41.601362500" lon="2.541286600">
        <ele>86.70</ele>
        <time>2013-02-24T11:29:21Z</time>
      </trkpt>
      <trkpt lat="41.601428700" lon="2.541267500">
        <ele>86.70</ele>
        <time>2013-02-24T11:29:23Z</time>
      </trkpt>
      <trkpt lat="41.601561600" lon="2.541173000">
        <ele>87.60</ele>
        <time>2013-02-24T11:29:28Z</time>
      </trkpt>
      <trkpt lat="41.601582500" lon="2.541173400">
        <ele>87.60</ele>
        <time>2013-02-24T11:29:30Z</time>
      </trkpt>
      <trkpt lat="41.601747800" lon="2.541157500">
        <ele>89.10</ele>
        <time>2013-02-24T11:29:37Z</time>
      </trkpt>
      <trkpt lat="41.601972300" lon="2.541103800">
        <ele>89.50</ele>
        <time>2013-02-24T11:29:46Z</time>
      </trkpt>
      <trkpt lat="41.602233800" lon="2.541019300">
        <ele>90.50</ele>
        <time>2013-02-24T11:29:56Z</time>
      </trkpt>
      <trkpt lat="41.602456000" lon="2.540935400">
        <ele>92.40</ele>
        <time>2013-02-24T11:30:05Z</time>
      </trkpt>
      <trkpt lat="41.602622600" lon="2.540891400">
        <ele>93.40</ele>
        <time>2013-02-24T11:30:12Z</time>
      </trkpt>
      <trkpt lat="41.602807500" lon="2.540816900">
        <ele>94.30</ele>
        <time>2013-02-24T11:30:20Z</time>
      </trkpt>
      <trkpt lat="41.603022500" lon="2.540712000">
        <ele>95.30</ele>
        <time>2013-02-24T11:30:29Z</time>
      </trkpt>
      <trkpt lat="41.603205400" lon="2.540600500">
        <ele>96.30</ele>
        <time>2013-02-24T11:30:38Z</time>
      </trkpt>
      <trkpt lat="41.603409400" lon="2.540472200">
        <ele>97.20</ele>
        <time>2013-02-24T11:30:47Z</time>
      </trkpt>
      <trkpt lat="41.603644000" lon="2.540322500">
        <ele>98.20</ele>
        <time>2013-02-24T11:30:57Z</time>
      </trkpt>
      <trkpt lat="41.603856200" lon="2.540162000">
        <ele>99.20</ele>
        <time>2013-02-24T11:31:06Z</time>
      </trkpt>
      <trkpt lat="41.604014100" lon="2.540062000">
        <ele>99.60</ele>
        <time>2013-02-24T11:31:13Z</time>
      </trkpt>
      <trkpt lat="41.604226800" lon="2.539969800">
        <ele>100.60</ele>
        <time>2013-02-24T11:31:23Z</time>
      </trkpt>
      <trkpt lat="41.604323500" lon="2.539903100">
        <ele>100.60</ele>
        <time>2013-02-24T11:31:30Z</time>
      </trkpt>
      <trkpt lat="41.604355100" lon="2.539863800">
        <ele>101.10</ele>
        <time>2013-02-24T11:31:35Z</time>
      </trkpt>
      <trkpt lat="41.604357000" lon="2.539856100">
        <ele>101.10</ele>
        <time>2013-02-24T11:31:46Z</time>
      </trkpt>
      <trkpt lat="41.604380200" lon="2.539860500">
        <ele>101.10</ele>
        <time>2013-02-24T11:32:00Z</time>
      </trkpt>
      <trkpt lat="41.604382900" lon="2.539855900">
        <ele>100.60</ele>
        <time>2013-02-24T11:32:17Z</time>
      </trkpt>
      <trkpt lat="41.604373800" lon="2.539843600">
        <ele>101.10</ele>
        <time>2013-02-24T11:32:29Z</time>
      </trkpt>
      <trkpt lat="41.604327600" lon="2.539816000">
        <ele>101.10</ele>
        <time>2013-02-24T11:32:48Z</time>
      </trkpt>
      <trkpt lat="41.604346000" lon="2.539856200">
        <ele>101.10</ele>
        <time>2013-02-24T11:33:04Z</time>
      </trkpt>
      <trkpt lat="41.604352000" lon="2.539874800">
        <ele>101.10</ele>
        <time>2013-02-24T11:33:23Z</time>
      </trkpt>
      <trkpt lat="41.604354100" lon="2.539868500">
        <ele>101.10</ele>
        <time>2013-02-24T11:33:32Z</time>
      </trkpt>
      <trkpt lat="41.604365500" lon="2.539858800">
        <ele>100.60</ele>
        <time>2013-02-24T11:33:41Z</time>
      </trkpt>
      <trkpt lat="41.604369000" lon="2.539853700">
        <ele>100.60</ele>
        <time>2013-02-24T11:33:41Z</time>
      </trkpt>
      <trkpt lat="41.604478200" lon="2.539852300">
        <ele>100.60</ele>
        <time>2013-02-24T11:33:48Z</time>
      </trkpt>
      <trkpt lat="41.604628900" lon="2.539969300">
        <ele>99.60</ele>
        <time>2013-02-24T11:33:55Z</time>
      </trkpt>
      <trkpt lat="41.604729300" lon="2.540056900">
        <ele>100.60</ele>
        <time>2013-02-24T11:34:00Z</time>
      </trkpt>
      <trkpt lat="41.604803300" lon="2.540192700">
        <ele>101.60</ele>
        <time>2013-02-24T11:34:07Z</time>
      </trkpt>
      <trkpt lat="41.604898800" lon="2.540212100">
        <ele>102.00</ele>
        <time>2013-02-24T11:34:10Z</time>
      </trkpt>
      <trkpt lat="41.605146100" lon="2.540223900">
        <ele>103.00</ele>
        <time>2013-02-24T11:34:21Z</time>
      </trkpt>
      <trkpt lat="41.605329200" lon="2.540258600">
        <ele>104.00</ele>
        <time>2013-02-24T11:34:28Z</time>
      </trkpt>
      <trkpt lat="41.605539000" lon="2.540312100">
        <ele>104.40</ele>
        <time>2013-02-24T11:34:35Z</time>
      </trkpt>
      <trkpt lat="41.605755800" lon="2.540375000">
        <ele>105.40</ele>
        <time>2013-02-24T11:34:43Z</time>
      </trkpt>
      <trkpt lat="41.605923900" lon="2.540457800">
        <ele>105.90</ele>
        <time>2013-02-24T11:34:50Z</time>
      </trkpt>
      <trkpt lat="41.605942600" lon="2.540465200">
        <ele>106.40</ele>
        <time>2013-02-24T11:34:52Z</time>
      </trkpt>
      <trkpt lat="41.605958000" lon="2.540502300">
        <ele>105.90</ele>
        <time>2013-02-24T11:34:56Z</time>
      </trkpt>
      <trkpt lat="41.605949600" lon="2.540603000">
        <ele>106.40</ele>
        <time>2013-02-24T11:35:01Z</time>
      </trkpt>
      <trkpt lat="41.606036100" lon="2.540652400">
        <ele>106.80</ele>
        <time>2013-02-24T11:35:06Z</time>
      </trkpt>
      <trkpt lat="41.606097400" lon="2.540680400">
        <ele>106.80</ele>
        <time>2013-02-24T11:35:08Z</time>
      </trkpt>
      <trkpt lat="41.606282200" lon="2.540713800">
        <ele>107.30</ele>
        <time>2013-02-24T11:35:17Z</time>
      </trkpt>
      <trkpt lat="41.606455300" lon="2.540776600">
        <ele>108.30</ele>
        <time>2013-02-24T11:35:24Z</time>
      </trkpt>
      <trkpt lat="41.606595100" lon="2.540977200">
        <ele>109.20</ele>
        <time>2013-02-24T11:35:32Z</time>
      </trkpt>
      <trkpt lat="41.606649200" lon="2.541205500">
        <ele>110.70</ele>
        <time>2013-02-24T11:35:39Z</time>
      </trkpt>
      <trkpt lat="41.606731000" lon="2.541535000">
        <ele>112.60</ele>
        <time>2013-02-24T11:35:48Z</time>
      </trkpt>
      <trkpt lat="41.606833700" lon="2.541800500">
        <ele>114.50</ele>
        <time>2013-02-24T11:35:58Z</time>
      </trkpt>
      <trkpt lat="41.606917300" lon="2.542047200">
        <ele>116.00</ele>
        <time>2013-02-24T11:36:05Z</time>
      </trkpt>
      <trkpt lat="41.607010700" lon="2.542242500">
        <ele>117.90</ele>
        <time>2013-02-24T11:36:12Z</time>
      </trkpt>
      <trkpt lat="41.607029300" lon="2.542302000">
        <ele>118.40</ele>
        <time>2013-02-24T11:36:14Z</time>
      </trkpt>
      <trkpt lat="41.607075700" lon="2.542349500">
        <ele>118.90</ele>
        <time>2013-02-24T11:36:21Z</time>
      </trkpt>
      <trkpt lat="41.607084900" lon="2.542362700">
        <ele>119.30</ele>
        <time>2013-02-24T11:36:26Z</time>
      </trkpt>
      <trkpt lat="41.607080600" lon="2.542379000">
        <ele>119.30</ele>
        <time>2013-02-24T11:36:37Z</time>
      </trkpt>
      <trkpt lat="41.607077900" lon="2.542371700">
        <ele>119.30</ele>
        <time>2013-02-24T11:36:51Z</time>
      </trkpt>
      <trkpt lat="41.607046800" lon="2.542421300">
        <ele>119.30</ele>
        <time>2013-02-24T11:37:13Z</time>
      </trkpt>
      <trkpt lat="41.607045800" lon="2.542418500">
        <ele>118.90</ele>
        <time>2013-02-24T11:37:15Z</time>
      </trkpt>
      <trkpt lat="41.606912200" lon="2.542628800">
        <ele>122.70</ele>
        <time>2013-02-24T11:37:36Z</time>
      </trkpt>
      <trkpt lat="41.606944100" lon="2.542579100">
        <ele>122.20</ele>
        <time>2013-02-24T11:37:38Z</time>
      </trkpt>
    </trkseg>
  </trk>
</gpx>
